<?xml version="1.0" encoding="UTF-8" standalone="no" ?>
<gpx xmlns="http://www.topografix.com/GPX/1/1" xmlns:xsi="http://www.w3.org/2001/XMLSchema-instance" xsi:schemaLocation="http://www.topografix.com/GPX/1/1 http://www.topografix.com/GPX/1/1/gpx.xsd" version="1.1" creator="VisuGPX - https://www.visugpx.com">
  <metadata>
    <name>Circuito di Berzi sentiero 2</name>
    <desc><![CDATA[AlpineQuest Track 24/03/2018 14:24:47]]></desc>
  </metadata>
  <trk>
    <name><![CDATA[berzi-cir.]]></name>
    <trkseg>
      <trkpt lat="43.90361" lon="7.71974">
        <ele>900.339</ele>
        <time>2018-03-24T13:24:47Z</time>
      </trkpt>
      <trkpt lat="43.9036" lon="7.71969">
        <ele>900.614</ele>
        <time>2018-03-24T13:24:52Z</time>
      </trkpt>
      <trkpt lat="43.90359" lon="7.71963">
        <ele>900.871</ele>
        <time>2018-03-24T13:24:54Z</time>
      </trkpt>
      <trkpt lat="43.90357" lon="7.71959">
        <ele>901.224</ele>
        <time>2018-03-24T13:24:57Z</time>
      </trkpt>
      <trkpt lat="43.90355" lon="7.71955">
        <ele>901.514</ele>
        <time>2018-03-24T13:25:00Z</time>
      </trkpt>
      <trkpt lat="43.90354" lon="7.71951">
        <ele>901.709</ele>
        <time>2018-03-24T13:25:02Z</time>
      </trkpt>
      <trkpt lat="43.90352" lon="7.71946">
        <ele>901.996</ele>
        <time>2018-03-24T13:25:04Z</time>
      </trkpt>
      <trkpt lat="43.90351" lon="7.71943">
        <ele>902.132</ele>
        <time>2018-03-24T13:25:06Z</time>
      </trkpt>
      <trkpt lat="43.9035" lon="7.71938">
        <ele>902.204</ele>
        <time>2018-03-24T13:25:08Z</time>
      </trkpt>
      <trkpt lat="43.90348" lon="7.71932">
        <ele>902.493</ele>
        <time>2018-03-24T13:25:11Z</time>
      </trkpt>
      <trkpt lat="43.90347" lon="7.71927">
        <ele>902.835</ele>
        <time>2018-03-24T13:25:13Z</time>
      </trkpt>
      <trkpt lat="43.90348" lon="7.71918">
        <ele>903.373</ele>
        <time>2018-03-24T13:25:17Z</time>
      </trkpt>
      <trkpt lat="43.90348" lon="7.71913">
        <ele>903.538</ele>
        <time>2018-03-24T13:25:19Z</time>
      </trkpt>
      <trkpt lat="43.90345" lon="7.71909">
        <ele>903.692</ele>
        <time>2018-03-24T13:25:22Z</time>
      </trkpt>
      <trkpt lat="43.90344" lon="7.71904">
        <ele>903.905</ele>
        <time>2018-03-24T13:25:24Z</time>
      </trkpt>
      <trkpt lat="43.90342" lon="7.719">
        <ele>904.355</ele>
        <time>2018-03-24T13:25:27Z</time>
      </trkpt>
      <trkpt lat="43.9034" lon="7.71897">
        <ele>904.616</ele>
        <time>2018-03-24T13:25:29Z</time>
      </trkpt>
      <trkpt lat="43.90338" lon="7.71894">
        <ele>904.84</ele>
        <time>2018-03-24T13:25:31Z</time>
      </trkpt>
      <trkpt lat="43.90337" lon="7.7189">
        <ele>904.988</ele>
        <time>2018-03-24T13:25:32Z</time>
      </trkpt>
      <trkpt lat="43.90335" lon="7.71886">
        <ele>905.055</ele>
        <time>2018-03-24T13:25:34Z</time>
      </trkpt>
      <trkpt lat="43.90333" lon="7.71882">
        <ele>905.014</ele>
        <time>2018-03-24T13:25:36Z</time>
      </trkpt>
      <trkpt lat="43.90332" lon="7.71878">
        <ele>905.479</ele>
        <time>2018-03-24T13:25:40Z</time>
      </trkpt>
      <trkpt lat="43.90331" lon="7.71872">
        <ele>905.745</ele>
        <time>2018-03-24T13:25:42Z</time>
      </trkpt>
      <trkpt lat="43.9033" lon="7.71867">
        <ele>905.885</ele>
        <time>2018-03-24T13:25:44Z</time>
      </trkpt>
      <trkpt lat="43.90328" lon="7.71864">
        <ele>905.848</ele>
        <time>2018-03-24T13:25:46Z</time>
      </trkpt>
      <trkpt lat="43.90326" lon="7.7186">
        <ele>905.666</ele>
        <time>2018-03-24T13:25:48Z</time>
      </trkpt>
      <trkpt lat="43.90325" lon="7.71855">
        <ele>905.572</ele>
        <time>2018-03-24T13:25:50Z</time>
      </trkpt>
      <trkpt lat="43.90323" lon="7.7185">
        <ele>905.245</ele>
        <time>2018-03-24T13:25:53Z</time>
      </trkpt>
      <trkpt lat="43.90322" lon="7.71845">
        <ele>905.014</ele>
        <time>2018-03-24T13:25:55Z</time>
      </trkpt>
      <trkpt lat="43.90321" lon="7.7184">
        <ele>904.71</ele>
        <time>2018-03-24T13:25:57Z</time>
      </trkpt>
      <trkpt lat="43.9032" lon="7.71837">
        <ele>904.534</ele>
        <time>2018-03-24T13:26:00Z</time>
      </trkpt>
      <trkpt lat="43.90317" lon="7.71833">
        <ele>904.347</ele>
        <time>2018-03-24T13:26:02Z</time>
      </trkpt>
      <trkpt lat="43.90316" lon="7.71829">
        <ele>904.241</ele>
        <time>2018-03-24T13:26:04Z</time>
      </trkpt>
      <trkpt lat="43.90314" lon="7.71822">
        <ele>904.014</ele>
        <time>2018-03-24T13:26:08Z</time>
      </trkpt>
      <trkpt lat="43.90314" lon="7.71818">
        <ele>904.04</ele>
        <time>2018-03-24T13:26:10Z</time>
      </trkpt>
      <trkpt lat="43.90311" lon="7.71813">
        <ele>903.958</ele>
        <time>2018-03-24T13:26:12Z</time>
      </trkpt>
      <trkpt lat="43.9031" lon="7.71809">
        <ele>903.846</ele>
        <time>2018-03-24T13:26:15Z</time>
      </trkpt>
      <trkpt lat="43.90309" lon="7.71805">
        <ele>903.913</ele>
        <time>2018-03-24T13:26:17Z</time>
      </trkpt>
      <trkpt lat="43.90307" lon="7.718">
        <ele>904.062</ele>
        <time>2018-03-24T13:26:19Z</time>
      </trkpt>
      <trkpt lat="43.90306" lon="7.71794">
        <ele>904.414</ele>
        <time>2018-03-24T13:26:22Z</time>
      </trkpt>
      <trkpt lat="43.90305" lon="7.7179">
        <ele>904.522</ele>
        <time>2018-03-24T13:26:24Z</time>
      </trkpt>
      <trkpt lat="43.90302" lon="7.71786">
        <ele>904.597</ele>
        <time>2018-03-24T13:26:26Z</time>
      </trkpt>
      <trkpt lat="43.90301" lon="7.71782">
        <ele>904.477</ele>
        <time>2018-03-24T13:26:28Z</time>
      </trkpt>
      <trkpt lat="43.90299" lon="7.71778">
        <ele>904.479</ele>
        <time>2018-03-24T13:26:30Z</time>
      </trkpt>
      <trkpt lat="43.90297" lon="7.71774">
        <ele>904.553</ele>
        <time>2018-03-24T13:26:33Z</time>
      </trkpt>
      <trkpt lat="43.90295" lon="7.71771">
        <ele>904.482</ele>
        <time>2018-03-24T13:26:35Z</time>
      </trkpt>
      <trkpt lat="43.90293" lon="7.71767">
        <ele>904.322</ele>
        <time>2018-03-24T13:26:38Z</time>
      </trkpt>
      <trkpt lat="43.90291" lon="7.71763">
        <ele>904.181</ele>
        <time>2018-03-24T13:26:40Z</time>
      </trkpt>
      <trkpt lat="43.9029" lon="7.71758">
        <ele>904.009</ele>
        <time>2018-03-24T13:26:42Z</time>
      </trkpt>
      <trkpt lat="43.90287" lon="7.71755">
        <ele>904.11</ele>
        <time>2018-03-24T13:26:44Z</time>
      </trkpt>
      <trkpt lat="43.90284" lon="7.71757">
        <ele>904.275</ele>
        <time>2018-03-24T13:26:49Z</time>
      </trkpt>
      <trkpt lat="43.90282" lon="7.71762">
        <ele>904.58</ele>
        <time>2018-03-24T13:26:52Z</time>
      </trkpt>
      <trkpt lat="43.90279" lon="7.71763">
        <ele>904.734</ele>
        <time>2018-03-24T13:26:54Z</time>
      </trkpt>
      <trkpt lat="43.90277" lon="7.71765">
        <ele>904.785</ele>
        <time>2018-03-24T13:26:56Z</time>
      </trkpt>
      <trkpt lat="43.90275" lon="7.71761">
        <ele>905.095</ele>
        <time>2018-03-24T13:27:01Z</time>
      </trkpt>
      <trkpt lat="43.90274" lon="7.71766">
        <ele>905.089</ele>
        <time>2018-03-24T13:27:08Z</time>
      </trkpt>
      <trkpt lat="43.90273" lon="7.71772">
        <ele>904.729</ele>
        <time>2018-03-24T13:27:10Z</time>
      </trkpt>
      <trkpt lat="43.90268" lon="7.71779">
        <ele>904.275</ele>
        <time>2018-03-24T13:27:13Z</time>
      </trkpt>
      <trkpt lat="43.90266" lon="7.71779">
        <ele>903.6</ele>
        <time>2018-03-24T13:27:17Z</time>
      </trkpt>
      <trkpt lat="43.90266" lon="7.71783">
        <ele>902.955</ele>
        <time>2018-03-24T13:27:22Z</time>
      </trkpt>
      <trkpt lat="43.90263" lon="7.71785">
        <ele>901.92</ele>
        <time>2018-03-24T13:27:28Z</time>
      </trkpt>
      <trkpt lat="43.9026" lon="7.71788">
        <ele>901.017</ele>
        <time>2018-03-24T13:27:32Z</time>
      </trkpt>
      <trkpt lat="43.90257" lon="7.71791">
        <ele>900.368</ele>
        <time>2018-03-24T13:27:34Z</time>
      </trkpt>
      <trkpt lat="43.90253" lon="7.71795">
        <ele>899.72</ele>
        <time>2018-03-24T13:27:36Z</time>
      </trkpt>
      <trkpt lat="43.90251" lon="7.71798">
        <ele>899.067</ele>
        <time>2018-03-24T13:27:38Z</time>
      </trkpt>
      <trkpt lat="43.90252" lon="7.71802">
        <ele>898.238</ele>
        <time>2018-03-24T13:27:41Z</time>
      </trkpt>
      <trkpt lat="43.90251" lon="7.71806">
        <ele>897.636</ele>
        <time>2018-03-24T13:27:43Z</time>
      </trkpt>
      <trkpt lat="43.90248" lon="7.71807">
        <ele>896.68</ele>
        <time>2018-03-24T13:27:56Z</time>
      </trkpt>
      <trkpt lat="43.90246" lon="7.71809">
        <ele>895.713</ele>
        <time>2018-03-24T13:28:08Z</time>
      </trkpt>
      <trkpt lat="43.90244" lon="7.71813">
        <ele>895.295</ele>
        <time>2018-03-24T13:28:11Z</time>
      </trkpt>
      <trkpt lat="43.90242" lon="7.71817">
        <ele>894.887</ele>
        <time>2018-03-24T13:28:13Z</time>
      </trkpt>
      <trkpt lat="43.90241" lon="7.71822">
        <ele>894.412</ele>
        <time>2018-03-24T13:28:16Z</time>
      </trkpt>
      <trkpt lat="43.90241" lon="7.71828">
        <ele>893.364</ele>
        <time>2018-03-24T13:28:21Z</time>
      </trkpt>
      <trkpt lat="43.9024" lon="7.71832">
        <ele>892.076</ele>
        <time>2018-03-24T13:28:25Z</time>
      </trkpt>
      <trkpt lat="43.9024" lon="7.71837">
        <ele>890.955</ele>
        <time>2018-03-24T13:28:29Z</time>
      </trkpt>
      <trkpt lat="43.90238" lon="7.7184">
        <ele>889.469</ele>
        <time>2018-03-24T13:28:34Z</time>
      </trkpt>
      <trkpt lat="43.90235" lon="7.71842">
        <ele>888.542</ele>
        <time>2018-03-24T13:28:37Z</time>
      </trkpt>
      <trkpt lat="43.90233" lon="7.71845">
        <ele>887.479</ele>
        <time>2018-03-24T13:28:40Z</time>
      </trkpt>
      <trkpt lat="43.90231" lon="7.71847">
        <ele>886.434</ele>
        <time>2018-03-24T13:28:43Z</time>
      </trkpt>
      <trkpt lat="43.90228" lon="7.71851">
        <ele>885.613</ele>
        <time>2018-03-24T13:28:46Z</time>
      </trkpt>
      <trkpt lat="43.90226" lon="7.71856">
        <ele>884.804</ele>
        <time>2018-03-24T13:28:49Z</time>
      </trkpt>
      <trkpt lat="43.90228" lon="7.7186">
        <ele>883.633</ele>
        <time>2018-03-24T13:28:52Z</time>
      </trkpt>
      <trkpt lat="43.9023" lon="7.71865">
        <ele>882.469</ele>
        <time>2018-03-24T13:28:55Z</time>
      </trkpt>
      <trkpt lat="43.9023" lon="7.71869">
        <ele>880.966</ele>
        <time>2018-03-24T13:28:59Z</time>
      </trkpt>
      <trkpt lat="43.90226" lon="7.71871">
        <ele>879.875</ele>
        <time>2018-03-24T13:29:02Z</time>
      </trkpt>
      <trkpt lat="43.90224" lon="7.71874">
        <ele>878.593</ele>
        <time>2018-03-24T13:29:06Z</time>
      </trkpt>
      <trkpt lat="43.90222" lon="7.71879">
        <ele>877.769</ele>
        <time>2018-03-24T13:29:09Z</time>
      </trkpt>
      <trkpt lat="43.90224" lon="7.71882">
        <ele>876.616</ele>
        <time>2018-03-24T13:29:13Z</time>
      </trkpt>
      <trkpt lat="43.90221" lon="7.71884">
        <ele>874.758</ele>
        <time>2018-03-24T13:29:19Z</time>
      </trkpt>
      <trkpt lat="43.90217" lon="7.71885">
        <ele>874.146</ele>
        <time>2018-03-24T13:29:21Z</time>
      </trkpt>
      <trkpt lat="43.90214" lon="7.71885">
        <ele>873.441</ele>
        <time>2018-03-24T13:29:23Z</time>
      </trkpt>
      <trkpt lat="43.90211" lon="7.71886">
        <ele>872.407</ele>
        <time>2018-03-24T13:29:26Z</time>
      </trkpt>
      <trkpt lat="43.90209" lon="7.7189">
        <ele>871.523</ele>
        <time>2018-03-24T13:29:29Z</time>
      </trkpt>
      <trkpt lat="43.90206" lon="7.71893">
        <ele>870.962</ele>
        <time>2018-03-24T13:29:31Z</time>
      </trkpt>
      <trkpt lat="43.90203" lon="7.71896">
        <ele>870.145</ele>
        <time>2018-03-24T13:29:34Z</time>
      </trkpt>
      <trkpt lat="43.90203" lon="7.71902">
        <ele>869.121</ele>
        <time>2018-03-24T13:29:37Z</time>
      </trkpt>
      <trkpt lat="43.90205" lon="7.71906">
        <ele>868.419</ele>
        <time>2018-03-24T13:29:39Z</time>
      </trkpt>
      <trkpt lat="43.90207" lon="7.71908">
        <ele>867.7</ele>
        <time>2018-03-24T13:29:41Z</time>
      </trkpt>
      <trkpt lat="43.90211" lon="7.7191">
        <ele>867.102</ele>
        <time>2018-03-24T13:29:43Z</time>
      </trkpt>
      <trkpt lat="43.90214" lon="7.71911">
        <ele>866.106</ele>
        <time>2018-03-24T13:29:46Z</time>
      </trkpt>
      <trkpt lat="43.90217" lon="7.71913">
        <ele>865.117</ele>
        <time>2018-03-24T13:29:49Z</time>
      </trkpt>
      <trkpt lat="43.9022" lon="7.71912">
        <ele>864.211</ele>
        <time>2018-03-24T13:29:52Z</time>
      </trkpt>
      <trkpt lat="43.9022" lon="7.71916">
        <ele>863.941</ele>
        <time>2018-03-24T13:30:01Z</time>
      </trkpt>
      <trkpt lat="43.90217" lon="7.71918">
        <ele>863.748</ele>
        <time>2018-03-24T13:30:04Z</time>
      </trkpt>
      <trkpt lat="43.90214" lon="7.71916">
        <ele>863.081</ele>
        <time>2018-03-24T13:30:08Z</time>
      </trkpt>
      <trkpt lat="43.90211" lon="7.71914">
        <ele>862.558</ele>
        <time>2018-03-24T13:30:10Z</time>
      </trkpt>
      <trkpt lat="43.90208" lon="7.71912">
        <ele>861.68</ele>
        <time>2018-03-24T13:30:13Z</time>
      </trkpt>
      <trkpt lat="43.90205" lon="7.71911">
        <ele>860.907</ele>
        <time>2018-03-24T13:30:16Z</time>
      </trkpt>
      <trkpt lat="43.90203" lon="7.71911">
        <ele>859.91</ele>
        <time>2018-03-24T13:30:44Z</time>
      </trkpt>
      <trkpt lat="43.902" lon="7.71912">
        <ele>859.343</ele>
        <time>2018-03-24T13:31:03Z</time>
      </trkpt>
      <trkpt lat="43.90202" lon="7.71914">
        <ele>858.194</ele>
        <time>2018-03-24T13:31:33Z</time>
      </trkpt>
      <trkpt lat="43.90205" lon="7.71916">
        <ele>857.701</ele>
        <time>2018-03-24T13:32:08Z</time>
      </trkpt>
      <trkpt lat="43.90203" lon="7.71918">
        <ele>857.55</ele>
        <time>2018-03-24T13:32:19Z</time>
      </trkpt>
      <trkpt lat="43.90201" lon="7.71914">
        <ele>857.208</ele>
        <time>2018-03-24T13:32:25Z</time>
      </trkpt>
      <trkpt lat="43.902" lon="7.71909">
        <ele>856.92</ele>
        <time>2018-03-24T13:32:29Z</time>
      </trkpt>
      <trkpt lat="43.90201" lon="7.71905">
        <ele>856.782</ele>
        <time>2018-03-24T13:32:31Z</time>
      </trkpt>
      <trkpt lat="43.90202" lon="7.71901">
        <ele>856.655</ele>
        <time>2018-03-24T13:32:33Z</time>
      </trkpt>
      <trkpt lat="43.90203" lon="7.71904">
        <ele>856.132</ele>
        <time>2018-03-24T13:32:45Z</time>
      </trkpt>
      <trkpt lat="43.90206" lon="7.71908">
        <ele>855.979</ele>
        <time>2018-03-24T13:32:53Z</time>
      </trkpt>
      <trkpt lat="43.90205" lon="7.71912">
        <ele>855.923</ele>
        <time>2018-03-24T13:32:59Z</time>
      </trkpt>
      <trkpt lat="43.90206" lon="7.71908">
        <ele>855.162</ele>
        <time>2018-03-24T13:33:27Z</time>
      </trkpt>
      <trkpt lat="43.90207" lon="7.71912">
        <ele>853.42</ele>
        <time>2018-03-24T13:33:44Z</time>
      </trkpt>
      <trkpt lat="43.9021" lon="7.71912">
        <ele>853.261</ele>
        <time>2018-03-24T13:33:46Z</time>
      </trkpt>
      <trkpt lat="43.90214" lon="7.71915">
        <ele>852.948</ele>
        <time>2018-03-24T13:33:49Z</time>
      </trkpt>
      <trkpt lat="43.90218" lon="7.71919">
        <ele>852.233</ele>
        <time>2018-03-24T13:33:52Z</time>
      </trkpt>
      <trkpt lat="43.90221" lon="7.71923">
        <ele>851.402</ele>
        <time>2018-03-24T13:33:56Z</time>
      </trkpt>
      <trkpt lat="43.90222" lon="7.71927">
        <ele>850.81</ele>
        <time>2018-03-24T13:34:05Z</time>
      </trkpt>
      <trkpt lat="43.9022" lon="7.71928">
        <ele>850.76</ele>
        <time>2018-03-24T13:34:21Z</time>
      </trkpt>
      <trkpt lat="43.90221" lon="7.71934">
        <ele>851.012</ele>
        <time>2018-03-24T13:34:54Z</time>
      </trkpt>
      <trkpt lat="43.90223" lon="7.71937">
        <ele>850.947</ele>
        <time>2018-03-24T13:34:56Z</time>
      </trkpt>
      <trkpt lat="43.90226" lon="7.7194">
        <ele>850.608</ele>
        <time>2018-03-24T13:34:59Z</time>
      </trkpt>
      <trkpt lat="43.90227" lon="7.71944">
        <ele>850.106</ele>
        <time>2018-03-24T13:35:02Z</time>
      </trkpt>
      <trkpt lat="43.90227" lon="7.71948">
        <ele>849.103</ele>
        <time>2018-03-24T13:35:07Z</time>
      </trkpt>
      <trkpt lat="43.90225" lon="7.71952">
        <ele>848.539</ele>
        <time>2018-03-24T13:35:10Z</time>
      </trkpt>
      <trkpt lat="43.90223" lon="7.71956">
        <ele>848.038</ele>
        <time>2018-03-24T13:35:12Z</time>
      </trkpt>
      <trkpt lat="43.90223" lon="7.71961">
        <ele>847.486</ele>
        <time>2018-03-24T13:35:14Z</time>
      </trkpt>
      <trkpt lat="43.90224" lon="7.71966">
        <ele>846.841</ele>
        <time>2018-03-24T13:35:16Z</time>
      </trkpt>
      <trkpt lat="43.90226" lon="7.7197">
        <ele>845.816</ele>
        <time>2018-03-24T13:35:19Z</time>
      </trkpt>
      <trkpt lat="43.90227" lon="7.71973">
        <ele>845.599</ele>
        <time>2018-03-24T13:35:21Z</time>
      </trkpt>
      <trkpt lat="43.90229" lon="7.71978">
        <ele>845.271</ele>
        <time>2018-03-24T13:35:23Z</time>
      </trkpt>
      <trkpt lat="43.90231" lon="7.71981">
        <ele>844.834</ele>
        <time>2018-03-24T13:35:26Z</time>
      </trkpt>
      <trkpt lat="43.90233" lon="7.71984">
        <ele>844.439</ele>
        <time>2018-03-24T13:35:29Z</time>
      </trkpt>
      <trkpt lat="43.90235" lon="7.71989">
        <ele>844.123</ele>
        <time>2018-03-24T13:35:31Z</time>
      </trkpt>
      <trkpt lat="43.90234" lon="7.71993">
        <ele>842.968</ele>
        <time>2018-03-24T13:35:37Z</time>
      </trkpt>
      <trkpt lat="43.90231" lon="7.71994">
        <ele>842.496</ele>
        <time>2018-03-24T13:35:39Z</time>
      </trkpt>
      <trkpt lat="43.90227" lon="7.71995">
        <ele>842.046</ele>
        <time>2018-03-24T13:35:41Z</time>
      </trkpt>
      <trkpt lat="43.90224" lon="7.71998">
        <ele>841.605</ele>
        <time>2018-03-24T13:35:44Z</time>
      </trkpt>
      <trkpt lat="43.90222" lon="7.72">
        <ele>840.96</ele>
        <time>2018-03-24T13:35:49Z</time>
      </trkpt>
      <trkpt lat="43.90219" lon="7.72004">
        <ele>840.233</ele>
        <time>2018-03-24T13:35:52Z</time>
      </trkpt>
      <trkpt lat="43.90217" lon="7.72007">
        <ele>839.689</ele>
        <time>2018-03-24T13:35:55Z</time>
      </trkpt>
      <trkpt lat="43.90214" lon="7.72009">
        <ele>839.291</ele>
        <time>2018-03-24T13:35:57Z</time>
      </trkpt>
      <trkpt lat="43.90211" lon="7.72012">
        <ele>838.806</ele>
        <time>2018-03-24T13:35:59Z</time>
      </trkpt>
      <trkpt lat="43.90208" lon="7.72015">
        <ele>837.932</ele>
        <time>2018-03-24T13:36:02Z</time>
      </trkpt>
      <trkpt lat="43.90206" lon="7.72021">
        <ele>837.065</ele>
        <time>2018-03-24T13:36:05Z</time>
      </trkpt>
      <trkpt lat="43.90204" lon="7.72025">
        <ele>836.747</ele>
        <time>2018-03-24T13:36:07Z</time>
      </trkpt>
      <trkpt lat="43.90202" lon="7.72029">
        <ele>835.967</ele>
        <time>2018-03-24T13:36:10Z</time>
      </trkpt>
      <trkpt lat="43.902" lon="7.72033">
        <ele>835.415</ele>
        <time>2018-03-24T13:36:12Z</time>
      </trkpt>
      <trkpt lat="43.90198" lon="7.72037">
        <ele>834.729</ele>
        <time>2018-03-24T13:36:15Z</time>
      </trkpt>
      <trkpt lat="43.90196" lon="7.7204">
        <ele>834.202</ele>
        <time>2018-03-24T13:36:18Z</time>
      </trkpt>
      <trkpt lat="43.90194" lon="7.72043">
        <ele>833.719</ele>
        <time>2018-03-24T13:36:20Z</time>
      </trkpt>
      <trkpt lat="43.90193" lon="7.72047">
        <ele>832.255</ele>
        <time>2018-03-24T13:36:33Z</time>
      </trkpt>
      <trkpt lat="43.90191" lon="7.7205">
        <ele>831.189</ele>
        <time>2018-03-24T13:36:37Z</time>
      </trkpt>
      <trkpt lat="43.90186" lon="7.72052">
        <ele>830.655</ele>
        <time>2018-03-24T13:36:39Z</time>
      </trkpt>
      <trkpt lat="43.90183" lon="7.72053">
        <ele>830.264</ele>
        <time>2018-03-24T13:36:41Z</time>
      </trkpt>
      <trkpt lat="43.90181" lon="7.72055">
        <ele>829.777</ele>
        <time>2018-03-24T13:36:43Z</time>
      </trkpt>
      <trkpt lat="43.90179" lon="7.72058">
        <ele>826.981</ele>
        <time>2018-03-24T13:37:03Z</time>
      </trkpt>
      <trkpt lat="43.90177" lon="7.72061">
        <ele>826.16</ele>
        <time>2018-03-24T13:37:06Z</time>
      </trkpt>
      <trkpt lat="43.90174" lon="7.72064">
        <ele>825.68</ele>
        <time>2018-03-24T13:37:08Z</time>
      </trkpt>
      <trkpt lat="43.90171" lon="7.72067">
        <ele>825.236</ele>
        <time>2018-03-24T13:37:10Z</time>
      </trkpt>
      <trkpt lat="43.90168" lon="7.72068">
        <ele>824.842</ele>
        <time>2018-03-24T13:37:13Z</time>
      </trkpt>
      <trkpt lat="43.90168" lon="7.72073">
        <ele>823.571</ele>
        <time>2018-03-24T13:37:23Z</time>
      </trkpt>
      <trkpt lat="43.90168" lon="7.72077">
        <ele>823.147</ele>
        <time>2018-03-24T13:37:26Z</time>
      </trkpt>
      <trkpt lat="43.90168" lon="7.72082">
        <ele>822.788</ele>
        <time>2018-03-24T13:37:28Z</time>
      </trkpt>
      <trkpt lat="43.90167" lon="7.72086">
        <ele>822.42</ele>
        <time>2018-03-24T13:37:30Z</time>
      </trkpt>
      <trkpt lat="43.90167" lon="7.72091">
        <ele>821.937</ele>
        <time>2018-03-24T13:37:32Z</time>
      </trkpt>
      <trkpt lat="43.90165" lon="7.72096">
        <ele>821.267</ele>
        <time>2018-03-24T13:37:35Z</time>
      </trkpt>
      <trkpt lat="43.90163" lon="7.72099">
        <ele>820.948</ele>
        <time>2018-03-24T13:37:36Z</time>
      </trkpt>
      <trkpt lat="43.90161" lon="7.72103">
        <ele>820.756</ele>
        <time>2018-03-24T13:37:38Z</time>
      </trkpt>
      <trkpt lat="43.90159" lon="7.72106">
        <ele>820.666</ele>
        <time>2018-03-24T13:37:40Z</time>
      </trkpt>
      <trkpt lat="43.90158" lon="7.7211">
        <ele>820.293</ele>
        <time>2018-03-24T13:37:43Z</time>
      </trkpt>
      <trkpt lat="43.90156" lon="7.72114">
        <ele>819.924</ele>
        <time>2018-03-24T13:37:45Z</time>
      </trkpt>
      <trkpt lat="43.90154" lon="7.72118">
        <ele>819.539</ele>
        <time>2018-03-24T13:37:47Z</time>
      </trkpt>
      <trkpt lat="43.90153" lon="7.72122">
        <ele>819.131</ele>
        <time>2018-03-24T13:37:49Z</time>
      </trkpt>
      <trkpt lat="43.90151" lon="7.72125">
        <ele>818.638</ele>
        <time>2018-03-24T13:37:52Z</time>
      </trkpt>
      <trkpt lat="43.9015" lon="7.7213">
        <ele>818.103</ele>
        <time>2018-03-24T13:37:57Z</time>
      </trkpt>
      <trkpt lat="43.90147" lon="7.72128">
        <ele>815.999</ele>
        <time>2018-03-24T13:38:18Z</time>
      </trkpt>
      <trkpt lat="43.90144" lon="7.72131">
        <ele>814.927</ele>
        <time>2018-03-24T13:38:26Z</time>
      </trkpt>
      <trkpt lat="43.90142" lon="7.72134">
        <ele>814.593</ele>
        <time>2018-03-24T13:38:29Z</time>
      </trkpt>
      <trkpt lat="43.90139" lon="7.72137">
        <ele>814.11</ele>
        <time>2018-03-24T13:38:31Z</time>
      </trkpt>
      <trkpt lat="43.90137" lon="7.72139">
        <ele>813.687</ele>
        <time>2018-03-24T13:38:33Z</time>
      </trkpt>
      <trkpt lat="43.90139" lon="7.72142">
        <ele>812.39</ele>
        <time>2018-03-24T13:38:43Z</time>
      </trkpt>
      <trkpt lat="43.90141" lon="7.72145">
        <ele>811.877</ele>
        <time>2018-03-24T13:39:02Z</time>
      </trkpt>
      <trkpt lat="43.90138" lon="7.72146">
        <ele>811.309</ele>
        <time>2018-03-24T13:39:18Z</time>
      </trkpt>
      <trkpt lat="43.90138" lon="7.7215">
        <ele>810.744</ele>
        <time>2018-03-24T13:39:29Z</time>
      </trkpt>
      <trkpt lat="43.9014" lon="7.72151">
        <ele>809.825</ele>
        <time>2018-03-24T13:39:39Z</time>
      </trkpt>
      <trkpt lat="43.90141" lon="7.72156">
        <ele>808.709</ele>
        <time>2018-03-24T13:40:26Z</time>
      </trkpt>
      <trkpt lat="43.9014" lon="7.7216">
        <ele>808.507</ele>
        <time>2018-03-24T13:40:28Z</time>
      </trkpt>
      <trkpt lat="43.90138" lon="7.72161">
        <ele>808.415</ele>
        <time>2018-03-24T13:40:31Z</time>
      </trkpt>
      <trkpt lat="43.90138" lon="7.72157">
        <ele>807.619</ele>
        <time>2018-03-24T13:41:03Z</time>
      </trkpt>
      <trkpt lat="43.9014" lon="7.72153">
        <ele>807.733</ele>
        <time>2018-03-24T13:41:05Z</time>
      </trkpt>
      <trkpt lat="43.90141" lon="7.72149">
        <ele>807.89</ele>
        <time>2018-03-24T13:41:07Z</time>
      </trkpt>
      <trkpt lat="43.90142" lon="7.72145">
        <ele>807.921</ele>
        <time>2018-03-24T13:41:09Z</time>
      </trkpt>
      <trkpt lat="43.90139" lon="7.72144">
        <ele>807.012</ele>
        <time>2018-03-24T13:42:06Z</time>
      </trkpt>
      <trkpt lat="43.90137" lon="7.72146">
        <ele>806.953</ele>
        <time>2018-03-24T13:42:17Z</time>
      </trkpt>
      <trkpt lat="43.90137" lon="7.72152">
        <ele>806.862</ele>
        <time>2018-03-24T13:42:21Z</time>
      </trkpt>
      <trkpt lat="43.90136" lon="7.72156">
        <ele>806.71</ele>
        <time>2018-03-24T13:42:26Z</time>
      </trkpt>
      <trkpt lat="43.90135" lon="7.72159">
        <ele>806.934</ele>
        <time>2018-03-24T13:42:49Z</time>
      </trkpt>
      <trkpt lat="43.90132" lon="7.72161">
        <ele>807.68</ele>
        <time>2018-03-24T13:43:02Z</time>
      </trkpt>
      <trkpt lat="43.90131" lon="7.72165">
        <ele>807.751</ele>
        <time>2018-03-24T13:43:04Z</time>
      </trkpt>
      <trkpt lat="43.90132" lon="7.72171">
        <ele>807.75</ele>
        <time>2018-03-24T13:43:06Z</time>
      </trkpt>
      <trkpt lat="43.90131" lon="7.72176">
        <ele>807.581</ele>
        <time>2018-03-24T13:43:10Z</time>
      </trkpt>
      <trkpt lat="43.9013" lon="7.7218">
        <ele>807.588</ele>
        <time>2018-03-24T13:43:12Z</time>
      </trkpt>
      <trkpt lat="43.90129" lon="7.72185">
        <ele>807.809</ele>
        <time>2018-03-24T13:43:37Z</time>
      </trkpt>
      <trkpt lat="43.90131" lon="7.72189">
        <ele>807.649</ele>
        <time>2018-03-24T13:43:40Z</time>
      </trkpt>
      <trkpt lat="43.90131" lon="7.72195">
        <ele>807.436</ele>
        <time>2018-03-24T13:43:42Z</time>
      </trkpt>
      <trkpt lat="43.90131" lon="7.72201">
        <ele>807.243</ele>
        <time>2018-03-24T13:43:44Z</time>
      </trkpt>
      <trkpt lat="43.9013" lon="7.72206">
        <ele>807.036</ele>
        <time>2018-03-24T13:43:46Z</time>
      </trkpt>
      <trkpt lat="43.90128" lon="7.72212">
        <ele>806.792</ele>
        <time>2018-03-24T13:43:48Z</time>
      </trkpt>
      <trkpt lat="43.90128" lon="7.72215">
        <ele>806.463</ele>
        <time>2018-03-24T13:43:50Z</time>
      </trkpt>
      <trkpt lat="43.9013" lon="7.72219">
        <ele>806.083</ele>
        <time>2018-03-24T13:43:53Z</time>
      </trkpt>
      <trkpt lat="43.90132" lon="7.72224">
        <ele>805.783</ele>
        <time>2018-03-24T13:43:56Z</time>
      </trkpt>
      <trkpt lat="43.90132" lon="7.72229">
        <ele>805.289</ele>
        <time>2018-03-24T13:43:59Z</time>
      </trkpt>
      <trkpt lat="43.90132" lon="7.72235">
        <ele>804.852</ele>
        <time>2018-03-24T13:44:02Z</time>
      </trkpt>
      <trkpt lat="43.90132" lon="7.72239">
        <ele>804.695</ele>
        <time>2018-03-24T13:44:04Z</time>
      </trkpt>
      <trkpt lat="43.90134" lon="7.72244">
        <ele>804.747</ele>
        <time>2018-03-24T13:44:06Z</time>
      </trkpt>
      <trkpt lat="43.90134" lon="7.72248">
        <ele>804.811</ele>
        <time>2018-03-24T13:44:08Z</time>
      </trkpt>
      <trkpt lat="43.90133" lon="7.72252">
        <ele>804.935</ele>
        <time>2018-03-24T13:44:10Z</time>
      </trkpt>
      <trkpt lat="43.9013" lon="7.72255">
        <ele>804.926</ele>
        <time>2018-03-24T13:44:13Z</time>
      </trkpt>
      <trkpt lat="43.90127" lon="7.72257">
        <ele>805.113</ele>
        <time>2018-03-24T13:44:18Z</time>
      </trkpt>
      <trkpt lat="43.90123" lon="7.72259">
        <ele>805.154</ele>
        <time>2018-03-24T13:44:20Z</time>
      </trkpt>
      <trkpt lat="43.90119" lon="7.7226">
        <ele>805.125</ele>
        <time>2018-03-24T13:44:22Z</time>
      </trkpt>
      <trkpt lat="43.90117" lon="7.72256">
        <ele>805.028</ele>
        <time>2018-03-24T13:44:26Z</time>
      </trkpt>
      <trkpt lat="43.90115" lon="7.72253">
        <ele>805.025</ele>
        <time>2018-03-24T13:44:28Z</time>
      </trkpt>
      <trkpt lat="43.90113" lon="7.7225">
        <ele>804.911</ele>
        <time>2018-03-24T13:44:30Z</time>
      </trkpt>
      <trkpt lat="43.9011" lon="7.72246">
        <ele>804.74</ele>
        <time>2018-03-24T13:44:32Z</time>
      </trkpt>
      <trkpt lat="43.90109" lon="7.72243">
        <ele>804.456</ele>
        <time>2018-03-24T13:44:34Z</time>
      </trkpt>
      <trkpt lat="43.90106" lon="7.72239">
        <ele>804.089</ele>
        <time>2018-03-24T13:44:36Z</time>
      </trkpt>
      <trkpt lat="43.90104" lon="7.72237">
        <ele>803.782</ele>
        <time>2018-03-24T13:44:38Z</time>
      </trkpt>
      <trkpt lat="43.90101" lon="7.72234">
        <ele>803.316</ele>
        <time>2018-03-24T13:44:40Z</time>
      </trkpt>
      <trkpt lat="43.90098" lon="7.72232">
        <ele>802.973</ele>
        <time>2018-03-24T13:44:42Z</time>
      </trkpt>
      <trkpt lat="43.90095" lon="7.7223">
        <ele>802.583</ele>
        <time>2018-03-24T13:44:44Z</time>
      </trkpt>
      <trkpt lat="43.90092" lon="7.7223">
        <ele>802.259</ele>
        <time>2018-03-24T13:44:46Z</time>
      </trkpt>
      <trkpt lat="43.90089" lon="7.7223">
        <ele>801.863</ele>
        <time>2018-03-24T13:44:48Z</time>
      </trkpt>
      <trkpt lat="43.90086" lon="7.72231">
        <ele>801.207</ele>
        <time>2018-03-24T13:44:50Z</time>
      </trkpt>
      <trkpt lat="43.90084" lon="7.72231">
        <ele>800.639</ele>
        <time>2018-03-24T13:44:52Z</time>
      </trkpt>
      <trkpt lat="43.90081" lon="7.72233">
        <ele>800.007</ele>
        <time>2018-03-24T13:44:54Z</time>
      </trkpt>
      <trkpt lat="43.90077" lon="7.72233">
        <ele>799.275</ele>
        <time>2018-03-24T13:44:57Z</time>
      </trkpt>
      <trkpt lat="43.90074" lon="7.72234">
        <ele>798.7</ele>
        <time>2018-03-24T13:44:59Z</time>
      </trkpt>
      <trkpt lat="43.9007" lon="7.72235">
        <ele>798.303</ele>
        <time>2018-03-24T13:45:01Z</time>
      </trkpt>
      <trkpt lat="43.90067" lon="7.72236">
        <ele>797.985</ele>
        <time>2018-03-24T13:45:03Z</time>
      </trkpt>
      <trkpt lat="43.90063" lon="7.72237">
        <ele>797.724</ele>
        <time>2018-03-24T13:45:05Z</time>
      </trkpt>
      <trkpt lat="43.9006" lon="7.72239">
        <ele>797.088</ele>
        <time>2018-03-24T13:45:08Z</time>
      </trkpt>
      <trkpt lat="43.90057" lon="7.7224">
        <ele>796.077</ele>
        <time>2018-03-24T13:45:12Z</time>
      </trkpt>
      <trkpt lat="43.90054" lon="7.72242">
        <ele>795.831</ele>
        <time>2018-03-24T13:45:15Z</time>
      </trkpt>
      <trkpt lat="43.90051" lon="7.72243">
        <ele>795.631</ele>
        <time>2018-03-24T13:45:17Z</time>
      </trkpt>
      <trkpt lat="43.90048" lon="7.72246">
        <ele>795.39</ele>
        <time>2018-03-24T13:45:19Z</time>
      </trkpt>
      <trkpt lat="43.90044" lon="7.72248">
        <ele>794.809</ele>
        <time>2018-03-24T13:45:22Z</time>
      </trkpt>
      <trkpt lat="43.9004" lon="7.7225">
        <ele>794.404</ele>
        <time>2018-03-24T13:45:24Z</time>
      </trkpt>
      <trkpt lat="43.90037" lon="7.72252">
        <ele>794.248</ele>
        <time>2018-03-24T13:45:27Z</time>
      </trkpt>
      <trkpt lat="43.90035" lon="7.72254">
        <ele>793.996</ele>
        <time>2018-03-24T13:45:30Z</time>
      </trkpt>
      <trkpt lat="43.90032" lon="7.72257">
        <ele>794.093</ele>
        <time>2018-03-24T13:45:34Z</time>
      </trkpt>
      <trkpt lat="43.90029" lon="7.72261">
        <ele>793.927</ele>
        <time>2018-03-24T13:45:37Z</time>
      </trkpt>
      <trkpt lat="43.90027" lon="7.72264">
        <ele>793.89</ele>
        <time>2018-03-24T13:45:40Z</time>
      </trkpt>
      <trkpt lat="43.90025" lon="7.72268">
        <ele>793.563</ele>
        <time>2018-03-24T13:45:43Z</time>
      </trkpt>
      <trkpt lat="43.90022" lon="7.72269">
        <ele>793.322</ele>
        <time>2018-03-24T13:45:47Z</time>
      </trkpt>
      <trkpt lat="43.90019" lon="7.7227">
        <ele>793.339</ele>
        <time>2018-03-24T13:45:49Z</time>
      </trkpt>
      <trkpt lat="43.90016" lon="7.7227">
        <ele>793.489</ele>
        <time>2018-03-24T13:45:51Z</time>
      </trkpt>
      <trkpt lat="43.90013" lon="7.7227">
        <ele>793.553</ele>
        <time>2018-03-24T13:45:53Z</time>
      </trkpt>
      <trkpt lat="43.9001" lon="7.72271">
        <ele>793.643</ele>
        <time>2018-03-24T13:45:55Z</time>
      </trkpt>
      <trkpt lat="43.90007" lon="7.72271">
        <ele>793.599</ele>
        <time>2018-03-24T13:45:58Z</time>
      </trkpt>
      <trkpt lat="43.90004" lon="7.7227">
        <ele>793.25</ele>
        <time>2018-03-24T13:46:02Z</time>
      </trkpt>
      <trkpt lat="43.90006" lon="7.72268">
        <ele>792.282</ele>
        <time>2018-03-24T13:46:15Z</time>
      </trkpt>
      <trkpt lat="43.9001" lon="7.72266">
        <ele>792.06</ele>
        <time>2018-03-24T13:46:18Z</time>
      </trkpt>
      <trkpt lat="43.90012" lon="7.72265">
        <ele>791.729</ele>
        <time>2018-03-24T13:46:20Z</time>
      </trkpt>
      <trkpt lat="43.90015" lon="7.72264">
        <ele>791.391</ele>
        <time>2018-03-24T13:46:22Z</time>
      </trkpt>
      <trkpt lat="43.90018" lon="7.72263">
        <ele>790.806</ele>
        <time>2018-03-24T13:46:25Z</time>
      </trkpt>
      <trkpt lat="43.90021" lon="7.72262">
        <ele>790.408</ele>
        <time>2018-03-24T13:46:28Z</time>
      </trkpt>
      <trkpt lat="43.90025" lon="7.72257">
        <ele>790.119</ele>
        <time>2018-03-24T13:46:30Z</time>
      </trkpt>
      <trkpt lat="43.90026" lon="7.72252">
        <ele>789.644</ele>
        <time>2018-03-24T13:46:33Z</time>
      </trkpt>
      <trkpt lat="43.90026" lon="7.72248">
        <ele>789.21</ele>
        <time>2018-03-24T13:46:35Z</time>
      </trkpt>
      <trkpt lat="43.90024" lon="7.72245">
        <ele>788.642</ele>
        <time>2018-03-24T13:46:41Z</time>
      </trkpt>
      <trkpt lat="43.90022" lon="7.72242">
        <ele>788.115</ele>
        <time>2018-03-24T13:47:04Z</time>
      </trkpt>
      <trkpt lat="43.90018" lon="7.72241">
        <ele>787.141</ele>
        <time>2018-03-24T13:47:10Z</time>
      </trkpt>
      <trkpt lat="43.90015" lon="7.72241">
        <ele>786.855</ele>
        <time>2018-03-24T13:47:13Z</time>
      </trkpt>
      <trkpt lat="43.90011" lon="7.72242">
        <ele>786.483</ele>
        <time>2018-03-24T13:47:16Z</time>
      </trkpt>
      <trkpt lat="43.90008" lon="7.72241">
        <ele>786.124</ele>
        <time>2018-03-24T13:47:19Z</time>
      </trkpt>
      <trkpt lat="43.90005" lon="7.7224">
        <ele>785.816</ele>
        <time>2018-03-24T13:47:22Z</time>
      </trkpt>
      <trkpt lat="43.89998" lon="7.72239">
        <ele>785.561</ele>
        <time>2018-03-24T13:47:25Z</time>
      </trkpt>
      <trkpt lat="43.89995" lon="7.7224">
        <ele>785.212</ele>
        <time>2018-03-24T13:47:28Z</time>
      </trkpt>
      <trkpt lat="43.89991" lon="7.72242">
        <ele>785.013</ele>
        <time>2018-03-24T13:47:30Z</time>
      </trkpt>
      <trkpt lat="43.89987" lon="7.72244">
        <ele>784.743</ele>
        <time>2018-03-24T13:47:32Z</time>
      </trkpt>
      <trkpt lat="43.89984" lon="7.72244">
        <ele>784.385</ele>
        <time>2018-03-24T13:47:34Z</time>
      </trkpt>
      <trkpt lat="43.89981" lon="7.72244">
        <ele>783.937</ele>
        <time>2018-03-24T13:47:36Z</time>
      </trkpt>
      <trkpt lat="43.89977" lon="7.7224">
        <ele>783.465</ele>
        <time>2018-03-24T13:47:39Z</time>
      </trkpt>
      <trkpt lat="43.89974" lon="7.72238">
        <ele>783.005</ele>
        <time>2018-03-24T13:47:41Z</time>
      </trkpt>
      <trkpt lat="43.89971" lon="7.72236">
        <ele>782.678</ele>
        <time>2018-03-24T13:47:43Z</time>
      </trkpt>
      <trkpt lat="43.89967" lon="7.72236">
        <ele>782.252</ele>
        <time>2018-03-24T13:47:45Z</time>
      </trkpt>
      <trkpt lat="43.89963" lon="7.72237">
        <ele>781.851</ele>
        <time>2018-03-24T13:47:47Z</time>
      </trkpt>
      <trkpt lat="43.8996" lon="7.7224">
        <ele>781.229</ele>
        <time>2018-03-24T13:47:49Z</time>
      </trkpt>
      <trkpt lat="43.89956" lon="7.72241">
        <ele>780.162</ele>
        <time>2018-03-24T13:47:52Z</time>
      </trkpt>
      <trkpt lat="43.89953" lon="7.72243">
        <ele>779.017</ele>
        <time>2018-03-24T13:47:56Z</time>
      </trkpt>
      <trkpt lat="43.89949" lon="7.72243">
        <ele>778.37</ele>
        <time>2018-03-24T13:47:59Z</time>
      </trkpt>
      <trkpt lat="43.89947" lon="7.72244">
        <ele>778.005</ele>
        <time>2018-03-24T13:48:01Z</time>
      </trkpt>
      <trkpt lat="43.89943" lon="7.72246">
        <ele>777.618</ele>
        <time>2018-03-24T13:48:03Z</time>
      </trkpt>
      <trkpt lat="43.89939" lon="7.72247">
        <ele>777.195</ele>
        <time>2018-03-24T13:48:05Z</time>
      </trkpt>
      <trkpt lat="43.89936" lon="7.7225">
        <ele>776.811</ele>
        <time>2018-03-24T13:48:07Z</time>
      </trkpt>
      <trkpt lat="43.89932" lon="7.7225">
        <ele>776.332</ele>
        <time>2018-03-24T13:48:09Z</time>
      </trkpt>
      <trkpt lat="43.89929" lon="7.72249">
        <ele>775.957</ele>
        <time>2018-03-24T13:48:11Z</time>
      </trkpt>
      <trkpt lat="43.89926" lon="7.72249">
        <ele>775.103</ele>
        <time>2018-03-24T13:48:15Z</time>
      </trkpt>
      <trkpt lat="43.89922" lon="7.72249">
        <ele>774.492</ele>
        <time>2018-03-24T13:48:18Z</time>
      </trkpt>
      <trkpt lat="43.89917" lon="7.72249">
        <ele>774.312</ele>
        <time>2018-03-24T13:48:20Z</time>
      </trkpt>
      <trkpt lat="43.89913" lon="7.72247">
        <ele>774.183</ele>
        <time>2018-03-24T13:48:22Z</time>
      </trkpt>
      <trkpt lat="43.89909" lon="7.72244">
        <ele>774.048</ele>
        <time>2018-03-24T13:48:24Z</time>
      </trkpt>
      <trkpt lat="43.89907" lon="7.72242">
        <ele>773.827</ele>
        <time>2018-03-24T13:48:26Z</time>
      </trkpt>
      <trkpt lat="43.89904" lon="7.7224">
        <ele>773.648</ele>
        <time>2018-03-24T13:48:28Z</time>
      </trkpt>
      <trkpt lat="43.899" lon="7.72237">
        <ele>773.438</ele>
        <time>2018-03-24T13:48:30Z</time>
      </trkpt>
      <trkpt lat="43.89897" lon="7.72235">
        <ele>773.245</ele>
        <time>2018-03-24T13:48:32Z</time>
      </trkpt>
      <trkpt lat="43.89893" lon="7.72233">
        <ele>773.133</ele>
        <time>2018-03-24T13:48:34Z</time>
      </trkpt>
      <trkpt lat="43.8989" lon="7.72232">
        <ele>772.939</ele>
        <time>2018-03-24T13:48:36Z</time>
      </trkpt>
      <trkpt lat="43.89886" lon="7.7223">
        <ele>772.674</ele>
        <time>2018-03-24T13:48:38Z</time>
      </trkpt>
      <trkpt lat="43.89883" lon="7.72229">
        <ele>772.264</ele>
        <time>2018-03-24T13:48:41Z</time>
      </trkpt>
      <trkpt lat="43.8988" lon="7.72229">
        <ele>771.894</ele>
        <time>2018-03-24T13:48:43Z</time>
      </trkpt>
      <trkpt lat="43.89876" lon="7.72228">
        <ele>771.625</ele>
        <time>2018-03-24T13:48:45Z</time>
      </trkpt>
      <trkpt lat="43.89872" lon="7.72227">
        <ele>771.251</ele>
        <time>2018-03-24T13:48:47Z</time>
      </trkpt>
      <trkpt lat="43.8987" lon="7.72226">
        <ele>770.858</ele>
        <time>2018-03-24T13:48:49Z</time>
      </trkpt>
      <trkpt lat="43.89866" lon="7.72224">
        <ele>770.53</ele>
        <time>2018-03-24T13:48:52Z</time>
      </trkpt>
      <trkpt lat="43.89862" lon="7.72224">
        <ele>770.186</ele>
        <time>2018-03-24T13:48:55Z</time>
      </trkpt>
      <trkpt lat="43.89859" lon="7.72224">
        <ele>769.587</ele>
        <time>2018-03-24T13:48:58Z</time>
      </trkpt>
      <trkpt lat="43.89855" lon="7.72223">
        <ele>769.203</ele>
        <time>2018-03-24T13:49:00Z</time>
      </trkpt>
      <trkpt lat="43.89853" lon="7.72224">
        <ele>768.844</ele>
        <time>2018-03-24T13:49:02Z</time>
      </trkpt>
      <trkpt lat="43.89849" lon="7.72224">
        <ele>768.454</ele>
        <time>2018-03-24T13:49:05Z</time>
      </trkpt>
      <trkpt lat="43.89844" lon="7.72224">
        <ele>768.144</ele>
        <time>2018-03-24T13:49:08Z</time>
      </trkpt>
      <trkpt lat="43.89841" lon="7.72224">
        <ele>767.995</ele>
        <time>2018-03-24T13:49:10Z</time>
      </trkpt>
      <trkpt lat="43.89837" lon="7.72225">
        <ele>767.846</ele>
        <time>2018-03-24T13:49:12Z</time>
      </trkpt>
      <trkpt lat="43.89835" lon="7.72227">
        <ele>767.875</ele>
        <time>2018-03-24T13:49:14Z</time>
      </trkpt>
      <trkpt lat="43.89832" lon="7.7223">
        <ele>767.834</ele>
        <time>2018-03-24T13:49:16Z</time>
      </trkpt>
      <trkpt lat="43.89829" lon="7.72232">
        <ele>767.539</ele>
        <time>2018-03-24T13:49:18Z</time>
      </trkpt>
      <trkpt lat="43.89825" lon="7.72234">
        <ele>767.401</ele>
        <time>2018-03-24T13:49:20Z</time>
      </trkpt>
      <trkpt lat="43.89821" lon="7.72236">
        <ele>767.091</ele>
        <time>2018-03-24T13:49:23Z</time>
      </trkpt>
      <trkpt lat="43.89819" lon="7.72239">
        <ele>766.463</ele>
        <time>2018-03-24T13:49:28Z</time>
      </trkpt>
      <trkpt lat="43.89815" lon="7.72245">
        <ele>765.87</ele>
        <time>2018-03-24T13:49:31Z</time>
      </trkpt>
      <trkpt lat="43.89813" lon="7.7225">
        <ele>765.442</ele>
        <time>2018-03-24T13:49:34Z</time>
      </trkpt>
      <trkpt lat="43.8981" lon="7.72254">
        <ele>764.942</ele>
        <time>2018-03-24T13:49:36Z</time>
      </trkpt>
      <trkpt lat="43.89806" lon="7.72258">
        <ele>764.377</ele>
        <time>2018-03-24T13:49:39Z</time>
      </trkpt>
      <trkpt lat="43.89804" lon="7.72261">
        <ele>764.081</ele>
        <time>2018-03-24T13:49:41Z</time>
      </trkpt>
      <trkpt lat="43.89802" lon="7.72263">
        <ele>763.752</ele>
        <time>2018-03-24T13:49:43Z</time>
      </trkpt>
      <trkpt lat="43.89799" lon="7.72264">
        <ele>763.139</ele>
        <time>2018-03-24T13:49:45Z</time>
      </trkpt>
      <trkpt lat="43.89796" lon="7.72265">
        <ele>762.527</ele>
        <time>2018-03-24T13:49:46Z</time>
      </trkpt>
      <trkpt lat="43.89794" lon="7.72267">
        <ele>762.068</ele>
        <time>2018-03-24T13:49:48Z</time>
      </trkpt>
      <trkpt lat="43.89791" lon="7.7227">
        <ele>761.802</ele>
        <time>2018-03-24T13:49:50Z</time>
      </trkpt>
      <trkpt lat="43.89788" lon="7.72272">
        <ele>761.486</ele>
        <time>2018-03-24T13:49:53Z</time>
      </trkpt>
      <trkpt lat="43.89785" lon="7.72273">
        <ele>761.305</ele>
        <time>2018-03-24T13:49:55Z</time>
      </trkpt>
      <trkpt lat="43.89782" lon="7.72273">
        <ele>761.051</ele>
        <time>2018-03-24T13:49:57Z</time>
      </trkpt>
      <trkpt lat="43.89778" lon="7.72274">
        <ele>760.405</ele>
        <time>2018-03-24T13:50:00Z</time>
      </trkpt>
      <trkpt lat="43.89775" lon="7.72274">
        <ele>759.709</ele>
        <time>2018-03-24T13:50:03Z</time>
      </trkpt>
      <trkpt lat="43.89772" lon="7.72271">
        <ele>758.834</ele>
        <time>2018-03-24T13:50:06Z</time>
      </trkpt>
      <trkpt lat="43.89768" lon="7.72269">
        <ele>758.227</ele>
        <time>2018-03-24T13:50:08Z</time>
      </trkpt>
      <trkpt lat="43.89765" lon="7.72268">
        <ele>757.83</ele>
        <time>2018-03-24T13:50:10Z</time>
      </trkpt>
      <trkpt lat="43.89761" lon="7.72266">
        <ele>757.318</ele>
        <time>2018-03-24T13:50:13Z</time>
      </trkpt>
      <trkpt lat="43.89757" lon="7.72263">
        <ele>757.201</ele>
        <time>2018-03-24T13:50:15Z</time>
      </trkpt>
      <trkpt lat="43.89754" lon="7.72261">
        <ele>757.049</ele>
        <time>2018-03-24T13:50:17Z</time>
      </trkpt>
      <trkpt lat="43.89751" lon="7.72259">
        <ele>756.876</ele>
        <time>2018-03-24T13:50:19Z</time>
      </trkpt>
      <trkpt lat="43.89748" lon="7.72257">
        <ele>756.563</ele>
        <time>2018-03-24T13:50:21Z</time>
      </trkpt>
      <trkpt lat="43.89746" lon="7.72255">
        <ele>756.217</ele>
        <time>2018-03-24T13:50:23Z</time>
      </trkpt>
      <trkpt lat="43.89742" lon="7.72254">
        <ele>755.916</ele>
        <time>2018-03-24T13:50:25Z</time>
      </trkpt>
      <trkpt lat="43.8974" lon="7.72253">
        <ele>755.753</ele>
        <time>2018-03-24T13:50:27Z</time>
      </trkpt>
      <trkpt lat="43.89736" lon="7.72251">
        <ele>755.268</ele>
        <time>2018-03-24T13:50:30Z</time>
      </trkpt>
      <trkpt lat="43.89733" lon="7.72252">
        <ele>755.125</ele>
        <time>2018-03-24T13:50:32Z</time>
      </trkpt>
      <trkpt lat="43.89729" lon="7.72253">
        <ele>754.887</ele>
        <time>2018-03-24T13:50:35Z</time>
      </trkpt>
      <trkpt lat="43.89725" lon="7.72254">
        <ele>754.26</ele>
        <time>2018-03-24T13:50:38Z</time>
      </trkpt>
      <trkpt lat="43.89722" lon="7.72253">
        <ele>753.833</ele>
        <time>2018-03-24T13:50:40Z</time>
      </trkpt>
      <trkpt lat="43.89719" lon="7.72252">
        <ele>753.514</ele>
        <time>2018-03-24T13:50:42Z</time>
      </trkpt>
      <trkpt lat="43.89715" lon="7.72253">
        <ele>753.002</ele>
        <time>2018-03-24T13:50:45Z</time>
      </trkpt>
      <trkpt lat="43.89711" lon="7.72252">
        <ele>752.707</ele>
        <time>2018-03-24T13:50:47Z</time>
      </trkpt>
      <trkpt lat="43.89707" lon="7.72253">
        <ele>751.981</ele>
        <time>2018-03-24T13:50:50Z</time>
      </trkpt>
      <trkpt lat="43.89704" lon="7.72253">
        <ele>751.193</ele>
        <time>2018-03-24T13:50:53Z</time>
      </trkpt>
      <trkpt lat="43.897" lon="7.72252">
        <ele>750.406</ele>
        <time>2018-03-24T13:50:56Z</time>
      </trkpt>
      <trkpt lat="43.89697" lon="7.72252">
        <ele>750</ele>
        <time>2018-03-24T13:50:58Z</time>
      </trkpt>
      <trkpt lat="43.89694" lon="7.7225">
        <ele>749.637</ele>
        <time>2018-03-24T13:51:04Z</time>
      </trkpt>
      <trkpt lat="43.89695" lon="7.72245">
        <ele>749.274</ele>
        <time>2018-03-24T13:51:17Z</time>
      </trkpt>
      <trkpt lat="43.89697" lon="7.72243">
        <ele>749.438</ele>
        <time>2018-03-24T13:51:23Z</time>
      </trkpt>
      <trkpt lat="43.89705" lon="7.72244">
        <ele>749.5</ele>
        <time>2018-03-24T13:51:26Z</time>
      </trkpt>
      <trkpt lat="43.89709" lon="7.72245">
        <ele>749.907</ele>
        <time>2018-03-24T13:51:31Z</time>
      </trkpt>
      <trkpt lat="43.89707" lon="7.72242">
        <ele>749.637</ele>
        <time>2018-03-24T13:51:41Z</time>
      </trkpt>
      <trkpt lat="43.89708" lon="7.72246">
        <ele>748.667</ele>
        <time>2018-03-24T13:52:03Z</time>
      </trkpt>
      <trkpt lat="43.89711" lon="7.72245">
        <ele>748.984</ele>
        <time>2018-03-24T13:52:27Z</time>
      </trkpt>
      <trkpt lat="43.89712" lon="7.72241">
        <ele>749.467</ele>
        <time>2018-03-24T13:52:48Z</time>
      </trkpt>
      <trkpt lat="43.8971" lon="7.72237">
        <ele>749.635</ele>
        <time>2018-03-24T13:52:50Z</time>
      </trkpt>
      <trkpt lat="43.89708" lon="7.72233">
        <ele>749.573</ele>
        <time>2018-03-24T13:52:53Z</time>
      </trkpt>
      <trkpt lat="43.8971" lon="7.72226">
        <ele>749.523</ele>
        <time>2018-03-24T13:52:55Z</time>
      </trkpt>
      <trkpt lat="43.8971" lon="7.72221">
        <ele>749.475</ele>
        <time>2018-03-24T13:52:57Z</time>
      </trkpt>
      <trkpt lat="43.8971" lon="7.72217">
        <ele>749.401</ele>
        <time>2018-03-24T13:52:59Z</time>
      </trkpt>
      <trkpt lat="43.89711" lon="7.72213">
        <ele>749.456</ele>
        <time>2018-03-24T13:53:02Z</time>
      </trkpt>
      <trkpt lat="43.89711" lon="7.72208">
        <ele>749.718</ele>
        <time>2018-03-24T13:53:06Z</time>
      </trkpt>
      <trkpt lat="43.89711" lon="7.72204">
        <ele>749.643</ele>
        <time>2018-03-24T13:53:08Z</time>
      </trkpt>
      <trkpt lat="43.89712" lon="7.722">
        <ele>749.413</ele>
        <time>2018-03-24T13:53:10Z</time>
      </trkpt>
      <trkpt lat="43.89712" lon="7.72195">
        <ele>749.182</ele>
        <time>2018-03-24T13:53:13Z</time>
      </trkpt>
      <trkpt lat="43.89714" lon="7.72191">
        <ele>748.921</ele>
        <time>2018-03-24T13:53:15Z</time>
      </trkpt>
      <trkpt lat="43.89717" lon="7.72187">
        <ele>748.617</ele>
        <time>2018-03-24T13:53:18Z</time>
      </trkpt>
      <trkpt lat="43.89719" lon="7.72182">
        <ele>748.403</ele>
        <time>2018-03-24T13:53:20Z</time>
      </trkpt>
      <trkpt lat="43.8972" lon="7.72179">
        <ele>747.86</ele>
        <time>2018-03-24T13:53:26Z</time>
      </trkpt>
      <trkpt lat="43.89722" lon="7.72175">
        <ele>746.311</ele>
        <time>2018-03-24T13:53:33Z</time>
      </trkpt>
      <trkpt lat="43.89723" lon="7.72171">
        <ele>745.16</ele>
        <time>2018-03-24T13:53:36Z</time>
      </trkpt>
      <trkpt lat="43.89722" lon="7.72167">
        <ele>744.231</ele>
        <time>2018-03-24T13:53:39Z</time>
      </trkpt>
      <trkpt lat="43.89722" lon="7.72161">
        <ele>743.755</ele>
        <time>2018-03-24T13:53:41Z</time>
      </trkpt>
      <trkpt lat="43.8972" lon="7.72157">
        <ele>743.03</ele>
        <time>2018-03-24T13:53:44Z</time>
      </trkpt>
      <trkpt lat="43.89716" lon="7.72154">
        <ele>742.524</ele>
        <time>2018-03-24T13:53:46Z</time>
      </trkpt>
      <trkpt lat="43.89712" lon="7.72152">
        <ele>741.709</ele>
        <time>2018-03-24T13:53:49Z</time>
      </trkpt>
      <trkpt lat="43.89708" lon="7.72152">
        <ele>741.159</ele>
        <time>2018-03-24T13:53:52Z</time>
      </trkpt>
      <trkpt lat="43.89706" lon="7.7215">
        <ele>740.897</ele>
        <time>2018-03-24T13:53:54Z</time>
      </trkpt>
      <trkpt lat="43.89703" lon="7.72149">
        <ele>740.659</ele>
        <time>2018-03-24T13:53:56Z</time>
      </trkpt>
      <trkpt lat="43.897" lon="7.72147">
        <ele>739.956</ele>
        <time>2018-03-24T13:53:59Z</time>
      </trkpt>
      <trkpt lat="43.89697" lon="7.72148">
        <ele>739.188</ele>
        <time>2018-03-24T13:54:02Z</time>
      </trkpt>
      <trkpt lat="43.89694" lon="7.72149">
        <ele>738.375</ele>
        <time>2018-03-24T13:54:07Z</time>
      </trkpt>
      <trkpt lat="43.89691" lon="7.72148">
        <ele>738.022</ele>
        <time>2018-03-24T13:54:15Z</time>
      </trkpt>
      <trkpt lat="43.89689" lon="7.72146">
        <ele>737.371</ele>
        <time>2018-03-24T13:54:20Z</time>
      </trkpt>
      <trkpt lat="43.8969" lon="7.7214">
        <ele>736.798</ele>
        <time>2018-03-24T13:54:23Z</time>
      </trkpt>
      <trkpt lat="43.89687" lon="7.72135">
        <ele>736.466</ele>
        <time>2018-03-24T13:54:25Z</time>
      </trkpt>
      <trkpt lat="43.89687" lon="7.72131">
        <ele>736.069</ele>
        <time>2018-03-24T13:54:27Z</time>
      </trkpt>
      <trkpt lat="43.89688" lon="7.72127">
        <ele>735.683</ele>
        <time>2018-03-24T13:54:29Z</time>
      </trkpt>
      <trkpt lat="43.89689" lon="7.72122">
        <ele>734.959</ele>
        <time>2018-03-24T13:54:32Z</time>
      </trkpt>
      <trkpt lat="43.89692" lon="7.72118">
        <ele>734.433</ele>
        <time>2018-03-24T13:54:34Z</time>
      </trkpt>
      <trkpt lat="43.89694" lon="7.72115">
        <ele>734.03</ele>
        <time>2018-03-24T13:54:36Z</time>
      </trkpt>
      <trkpt lat="43.89696" lon="7.72111">
        <ele>733.692</ele>
        <time>2018-03-24T13:54:38Z</time>
      </trkpt>
      <trkpt lat="43.89697" lon="7.72108">
        <ele>733.276</ele>
        <time>2018-03-24T13:54:40Z</time>
      </trkpt>
      <trkpt lat="43.89697" lon="7.72104">
        <ele>732.786</ele>
        <time>2018-03-24T13:54:42Z</time>
      </trkpt>
      <trkpt lat="43.89697" lon="7.72097">
        <ele>732.026</ele>
        <time>2018-03-24T13:54:45Z</time>
      </trkpt>
      <trkpt lat="43.89696" lon="7.72093">
        <ele>731.368</ele>
        <time>2018-03-24T13:54:47Z</time>
      </trkpt>
      <trkpt lat="43.89696" lon="7.72089">
        <ele>730.268</ele>
        <time>2018-03-24T13:54:50Z</time>
      </trkpt>
      <trkpt lat="43.89696" lon="7.72085">
        <ele>729.283</ele>
        <time>2018-03-24T13:54:53Z</time>
      </trkpt>
      <trkpt lat="43.89694" lon="7.72081">
        <ele>728.637</ele>
        <time>2018-03-24T13:54:55Z</time>
      </trkpt>
      <trkpt lat="43.89693" lon="7.72076">
        <ele>727.399</ele>
        <time>2018-03-24T13:54:59Z</time>
      </trkpt>
      <trkpt lat="43.89691" lon="7.7207">
        <ele>726.599</ele>
        <time>2018-03-24T13:55:02Z</time>
      </trkpt>
      <trkpt lat="43.89691" lon="7.72066">
        <ele>725.779</ele>
        <time>2018-03-24T13:55:05Z</time>
      </trkpt>
      <trkpt lat="43.8969" lon="7.72061">
        <ele>724.944</ele>
        <time>2018-03-24T13:55:08Z</time>
      </trkpt>
      <trkpt lat="43.8969" lon="7.72057">
        <ele>724.501</ele>
        <time>2018-03-24T13:55:10Z</time>
      </trkpt>
      <trkpt lat="43.89689" lon="7.72053">
        <ele>723.373</ele>
        <time>2018-03-24T13:55:13Z</time>
      </trkpt>
      <trkpt lat="43.89686" lon="7.72051">
        <ele>722.166</ele>
        <time>2018-03-24T13:55:16Z</time>
      </trkpt>
      <trkpt lat="43.89682" lon="7.7205">
        <ele>721.108</ele>
        <time>2018-03-24T13:55:19Z</time>
      </trkpt>
      <trkpt lat="43.89679" lon="7.7205">
        <ele>720.166</ele>
        <time>2018-03-24T13:55:22Z</time>
      </trkpt>
      <trkpt lat="43.89676" lon="7.72049">
        <ele>719.42</ele>
        <time>2018-03-24T13:55:26Z</time>
      </trkpt>
      <trkpt lat="43.89673" lon="7.72049">
        <ele>718.671</ele>
        <time>2018-03-24T13:55:32Z</time>
      </trkpt>
      <trkpt lat="43.8967" lon="7.72048">
        <ele>718.564</ele>
        <time>2018-03-24T13:55:34Z</time>
      </trkpt>
      <trkpt lat="43.89662" lon="7.72044">
        <ele>718.417</ele>
        <time>2018-03-24T13:55:36Z</time>
      </trkpt>
      <trkpt lat="43.89656" lon="7.7204">
        <ele>718.003</ele>
        <time>2018-03-24T13:55:38Z</time>
      </trkpt>
      <trkpt lat="43.89652" lon="7.72035">
        <ele>717.194</ele>
        <time>2018-03-24T13:55:41Z</time>
      </trkpt>
      <trkpt lat="43.8965" lon="7.72032">
        <ele>716.624</ele>
        <time>2018-03-24T13:55:43Z</time>
      </trkpt>
      <trkpt lat="43.89648" lon="7.72028">
        <ele>715.594</ele>
        <time>2018-03-24T13:55:46Z</time>
      </trkpt>
      <trkpt lat="43.89646" lon="7.72025">
        <ele>714.988</ele>
        <time>2018-03-24T13:55:49Z</time>
      </trkpt>
      <trkpt lat="43.89643" lon="7.7202">
        <ele>714.205</ele>
        <time>2018-03-24T13:55:52Z</time>
      </trkpt>
      <trkpt lat="43.89641" lon="7.72016">
        <ele>713.225</ele>
        <time>2018-03-24T13:55:55Z</time>
      </trkpt>
      <trkpt lat="43.89639" lon="7.72013">
        <ele>712.12</ele>
        <time>2018-03-24T13:55:58Z</time>
      </trkpt>
      <trkpt lat="43.89637" lon="7.7201">
        <ele>711.512</ele>
        <time>2018-03-24T13:56:00Z</time>
      </trkpt>
      <trkpt lat="43.89634" lon="7.72008">
        <ele>711.059</ele>
        <time>2018-03-24T13:56:02Z</time>
      </trkpt>
      <trkpt lat="43.89631" lon="7.72006">
        <ele>710.576</ele>
        <time>2018-03-24T13:56:04Z</time>
      </trkpt>
      <trkpt lat="43.89629" lon="7.72002">
        <ele>709.32</ele>
        <time>2018-03-24T13:56:08Z</time>
      </trkpt>
      <trkpt lat="43.89626" lon="7.72">
        <ele>708.809</ele>
        <time>2018-03-24T13:56:10Z</time>
      </trkpt>
      <trkpt lat="43.89623" lon="7.71998">
        <ele>708.425</ele>
        <time>2018-03-24T13:56:12Z</time>
      </trkpt>
      <trkpt lat="43.8962" lon="7.72">
        <ele>708.092</ele>
        <time>2018-03-24T13:56:15Z</time>
      </trkpt>
      <trkpt lat="43.89617" lon="7.72001">
        <ele>707.693</ele>
        <time>2018-03-24T13:56:18Z</time>
      </trkpt>
      <trkpt lat="43.89614" lon="7.72004">
        <ele>707.293</ele>
        <time>2018-03-24T13:56:21Z</time>
      </trkpt>
      <trkpt lat="43.89611" lon="7.72007">
        <ele>706.411</ele>
        <time>2018-03-24T13:56:25Z</time>
      </trkpt>
      <trkpt lat="43.89608" lon="7.7201">
        <ele>705.9</ele>
        <time>2018-03-24T13:56:28Z</time>
      </trkpt>
      <trkpt lat="43.89606" lon="7.72012">
        <ele>705.502</ele>
        <time>2018-03-24T13:56:30Z</time>
      </trkpt>
      <trkpt lat="43.89603" lon="7.72014">
        <ele>705.067</ele>
        <time>2018-03-24T13:56:32Z</time>
      </trkpt>
      <trkpt lat="43.896" lon="7.72014">
        <ele>704.941</ele>
        <time>2018-03-24T13:56:34Z</time>
      </trkpt>
      <trkpt lat="43.89594" lon="7.72013">
        <ele>704.57</ele>
        <time>2018-03-24T13:56:37Z</time>
      </trkpt>
      <trkpt lat="43.89592" lon="7.7201">
        <ele>704.381</ele>
        <time>2018-03-24T13:56:46Z</time>
      </trkpt>
      <trkpt lat="43.89592" lon="7.72005">
        <ele>704.653</ele>
        <time>2018-03-24T13:56:50Z</time>
      </trkpt>
      <trkpt lat="43.8959" lon="7.72002">
        <ele>704.518</ele>
        <time>2018-03-24T13:56:54Z</time>
      </trkpt>
      <trkpt lat="43.89584" lon="7.71998">
        <ele>704.34</ele>
        <time>2018-03-24T13:56:57Z</time>
      </trkpt>
      <trkpt lat="43.89581" lon="7.71998">
        <ele>704.276</ele>
        <time>2018-03-24T13:56:59Z</time>
      </trkpt>
      <trkpt lat="43.89578" lon="7.71998">
        <ele>704.135</ele>
        <time>2018-03-24T13:57:02Z</time>
      </trkpt>
      <trkpt lat="43.89574" lon="7.71998">
        <ele>703.851</ele>
        <time>2018-03-24T13:57:05Z</time>
      </trkpt>
      <trkpt lat="43.89571" lon="7.71996">
        <ele>703.434</ele>
        <time>2018-03-24T13:57:08Z</time>
      </trkpt>
      <trkpt lat="43.89568" lon="7.71996">
        <ele>703.236</ele>
        <time>2018-03-24T13:57:11Z</time>
      </trkpt>
      <trkpt lat="43.89565" lon="7.71993">
        <ele>703.052</ele>
        <time>2018-03-24T13:57:13Z</time>
      </trkpt>
      <trkpt lat="43.89562" lon="7.71996">
        <ele>702.432</ele>
        <time>2018-03-24T13:57:19Z</time>
      </trkpt>
      <trkpt lat="43.89559" lon="7.71998">
        <ele>702.041</ele>
        <time>2018-03-24T13:57:23Z</time>
      </trkpt>
      <trkpt lat="43.89554" lon="7.71997">
        <ele>701.446</ele>
        <time>2018-03-24T13:57:29Z</time>
      </trkpt>
      <trkpt lat="43.89551" lon="7.71995">
        <ele>701.403</ele>
        <time>2018-03-24T13:57:31Z</time>
      </trkpt>
      <trkpt lat="43.89547" lon="7.71993">
        <ele>701.305</ele>
        <time>2018-03-24T13:57:33Z</time>
      </trkpt>
      <trkpt lat="43.89546" lon="7.71987">
        <ele>701.498</ele>
        <time>2018-03-24T13:57:38Z</time>
      </trkpt>
      <trkpt lat="43.89546" lon="7.7198">
        <ele>701.496</ele>
        <time>2018-03-24T13:57:40Z</time>
      </trkpt>
      <trkpt lat="43.89544" lon="7.71975">
        <ele>701.525</ele>
        <time>2018-03-24T13:57:42Z</time>
      </trkpt>
      <trkpt lat="43.89541" lon="7.7197">
        <ele>701.632</ele>
        <time>2018-03-24T13:57:44Z</time>
      </trkpt>
      <trkpt lat="43.89538" lon="7.71965">
        <ele>701.7</ele>
        <time>2018-03-24T13:57:46Z</time>
      </trkpt>
      <trkpt lat="43.89536" lon="7.7196">
        <ele>701.772</ele>
        <time>2018-03-24T13:57:48Z</time>
      </trkpt>
      <trkpt lat="43.89535" lon="7.71957">
        <ele>701.825</ele>
        <time>2018-03-24T13:57:50Z</time>
      </trkpt>
      <trkpt lat="43.89534" lon="7.71953">
        <ele>701.704</ele>
        <time>2018-03-24T13:57:52Z</time>
      </trkpt>
      <trkpt lat="43.89534" lon="7.7195">
        <ele>701.394</ele>
        <time>2018-03-24T13:57:54Z</time>
      </trkpt>
      <trkpt lat="43.89534" lon="7.71945">
        <ele>701.066</ele>
        <time>2018-03-24T13:57:56Z</time>
      </trkpt>
      <trkpt lat="43.89533" lon="7.7194">
        <ele>700.401</ele>
        <time>2018-03-24T13:57:59Z</time>
      </trkpt>
      <trkpt lat="43.89532" lon="7.71935">
        <ele>699.932</ele>
        <time>2018-03-24T13:58:02Z</time>
      </trkpt>
      <trkpt lat="43.8953" lon="7.71932">
        <ele>699.212</ele>
        <time>2018-03-24T13:58:09Z</time>
      </trkpt>
      <trkpt lat="43.89528" lon="7.7193">
        <ele>698.984</ele>
        <time>2018-03-24T13:58:11Z</time>
      </trkpt>
      <trkpt lat="43.89526" lon="7.71927">
        <ele>698.782</ele>
        <time>2018-03-24T13:58:14Z</time>
      </trkpt>
      <trkpt lat="43.89525" lon="7.71923">
        <ele>698.532</ele>
        <time>2018-03-24T13:58:17Z</time>
      </trkpt>
      <trkpt lat="43.89523" lon="7.71919">
        <ele>698.064</ele>
        <time>2018-03-24T13:58:21Z</time>
      </trkpt>
      <trkpt lat="43.89521" lon="7.71917">
        <ele>697.244</ele>
        <time>2018-03-24T13:58:25Z</time>
      </trkpt>
      <trkpt lat="43.89518" lon="7.71914">
        <ele>696.766</ele>
        <time>2018-03-24T13:58:27Z</time>
      </trkpt>
      <trkpt lat="43.89515" lon="7.71911">
        <ele>696.147</ele>
        <time>2018-03-24T13:58:30Z</time>
      </trkpt>
      <trkpt lat="43.89512" lon="7.7191">
        <ele>695.67</ele>
        <time>2018-03-24T13:58:32Z</time>
      </trkpt>
      <trkpt lat="43.89509" lon="7.71911">
        <ele>694.77</ele>
        <time>2018-03-24T13:58:35Z</time>
      </trkpt>
      <trkpt lat="43.89506" lon="7.71911">
        <ele>694.115</ele>
        <time>2018-03-24T13:58:37Z</time>
      </trkpt>
      <trkpt lat="43.89502" lon="7.71914">
        <ele>693.589</ele>
        <time>2018-03-24T13:58:39Z</time>
      </trkpt>
      <trkpt lat="43.89499" lon="7.71915">
        <ele>693.061</ele>
        <time>2018-03-24T13:58:41Z</time>
      </trkpt>
      <trkpt lat="43.89497" lon="7.71919">
        <ele>692.516</ele>
        <time>2018-03-24T13:58:43Z</time>
      </trkpt>
      <trkpt lat="43.89496" lon="7.71922">
        <ele>692.003</ele>
        <time>2018-03-24T13:58:45Z</time>
      </trkpt>
      <trkpt lat="43.89493" lon="7.71925">
        <ele>690.859</ele>
        <time>2018-03-24T13:58:49Z</time>
      </trkpt>
      <trkpt lat="43.8949" lon="7.71928">
        <ele>690.071</ele>
        <time>2018-03-24T13:58:52Z</time>
      </trkpt>
      <trkpt lat="43.89485" lon="7.71929">
        <ele>687.657</ele>
        <time>2018-03-24T13:59:01Z</time>
      </trkpt>
      <trkpt lat="43.89481" lon="7.71928">
        <ele>686.794</ele>
        <time>2018-03-24T13:59:04Z</time>
      </trkpt>
      <trkpt lat="43.89477" lon="7.71925">
        <ele>685.479</ele>
        <time>2018-03-24T13:59:08Z</time>
      </trkpt>
      <trkpt lat="43.89475" lon="7.71923">
        <ele>684.932</ele>
        <time>2018-03-24T13:59:10Z</time>
      </trkpt>
      <trkpt lat="43.89472" lon="7.71921">
        <ele>684.456</ele>
        <time>2018-03-24T13:59:12Z</time>
      </trkpt>
      <trkpt lat="43.89469" lon="7.71918">
        <ele>683.393</ele>
        <time>2018-03-24T13:59:16Z</time>
      </trkpt>
      <trkpt lat="43.89466" lon="7.71918">
        <ele>682.266</ele>
        <time>2018-03-24T13:59:20Z</time>
      </trkpt>
      <trkpt lat="43.89462" lon="7.71917">
        <ele>681.81</ele>
        <time>2018-03-24T13:59:22Z</time>
      </trkpt>
      <trkpt lat="43.8946" lon="7.71914">
        <ele>681.303</ele>
        <time>2018-03-24T13:59:24Z</time>
      </trkpt>
      <trkpt lat="43.89457" lon="7.71912">
        <ele>680.622</ele>
        <time>2018-03-24T13:59:27Z</time>
      </trkpt>
      <trkpt lat="43.89453" lon="7.7191">
        <ele>680.273</ele>
        <time>2018-03-24T13:59:29Z</time>
      </trkpt>
      <trkpt lat="43.8945" lon="7.71909">
        <ele>679.716</ele>
        <time>2018-03-24T13:59:31Z</time>
      </trkpt>
      <trkpt lat="43.89447" lon="7.71908">
        <ele>679.1</ele>
        <time>2018-03-24T13:59:34Z</time>
      </trkpt>
      <trkpt lat="43.89444" lon="7.71905">
        <ele>678.458</ele>
        <time>2018-03-24T13:59:37Z</time>
      </trkpt>
      <trkpt lat="43.89441" lon="7.71901">
        <ele>678.239</ele>
        <time>2018-03-24T13:59:39Z</time>
      </trkpt>
      <trkpt lat="43.89436" lon="7.71899">
        <ele>677.284</ele>
        <time>2018-03-24T13:59:45Z</time>
      </trkpt>
      <trkpt lat="43.89433" lon="7.71897">
        <ele>676.445</ele>
        <time>2018-03-24T13:59:49Z</time>
      </trkpt>
      <trkpt lat="43.8943" lon="7.71893">
        <ele>675.876</ele>
        <time>2018-03-24T13:59:51Z</time>
      </trkpt>
      <trkpt lat="43.89428" lon="7.71889">
        <ele>674.217</ele>
        <time>2018-03-24T14:00:07Z</time>
      </trkpt>
      <trkpt lat="43.89426" lon="7.71885">
        <ele>674.146</ele>
        <time>2018-03-24T14:00:09Z</time>
      </trkpt>
      <trkpt lat="43.89424" lon="7.7188">
        <ele>674.124</ele>
        <time>2018-03-24T14:00:11Z</time>
      </trkpt>
      <trkpt lat="43.89422" lon="7.71876">
        <ele>674.022</ele>
        <time>2018-03-24T14:00:13Z</time>
      </trkpt>
      <trkpt lat="43.89421" lon="7.71871">
        <ele>674.019</ele>
        <time>2018-03-24T14:00:15Z</time>
      </trkpt>
      <trkpt lat="43.8942" lon="7.71867">
        <ele>673.776</ele>
        <time>2018-03-24T14:00:17Z</time>
      </trkpt>
      <trkpt lat="43.89417" lon="7.71864">
        <ele>673.585</ele>
        <time>2018-03-24T14:00:20Z</time>
      </trkpt>
      <trkpt lat="43.89414" lon="7.71861">
        <ele>673.084</ele>
        <time>2018-03-24T14:00:23Z</time>
      </trkpt>
      <trkpt lat="43.89412" lon="7.71857">
        <ele>672.493</ele>
        <time>2018-03-24T14:00:26Z</time>
      </trkpt>
      <trkpt lat="43.89411" lon="7.71853">
        <ele>671.454</ele>
        <time>2018-03-24T14:00:30Z</time>
      </trkpt>
      <trkpt lat="43.8941" lon="7.71849">
        <ele>670.64</ele>
        <time>2018-03-24T14:00:34Z</time>
      </trkpt>
      <trkpt lat="43.89409" lon="7.71846">
        <ele>669.741</ele>
        <time>2018-03-24T14:00:46Z</time>
      </trkpt>
      <trkpt lat="43.89408" lon="7.71842">
        <ele>669.453</ele>
        <time>2018-03-24T14:00:49Z</time>
      </trkpt>
      <trkpt lat="43.89405" lon="7.71839">
        <ele>669.1</ele>
        <time>2018-03-24T14:00:52Z</time>
      </trkpt>
      <trkpt lat="43.89402" lon="7.71835">
        <ele>668.388</ele>
        <time>2018-03-24T14:00:56Z</time>
      </trkpt>
      <trkpt lat="43.89399" lon="7.71837">
        <ele>667.093</ele>
        <time>2018-03-24T14:01:01Z</time>
      </trkpt>
      <trkpt lat="43.894" lon="7.71832">
        <ele>664.139</ele>
        <time>2018-03-24T14:01:20Z</time>
      </trkpt>
      <trkpt lat="43.89397" lon="7.71828">
        <ele>663.856</ele>
        <time>2018-03-24T14:01:22Z</time>
      </trkpt>
      <trkpt lat="43.89393" lon="7.7183">
        <ele>663.388</ele>
        <time>2018-03-24T14:01:24Z</time>
      </trkpt>
      <trkpt lat="43.8939" lon="7.71832">
        <ele>662.638</ele>
        <time>2018-03-24T14:01:27Z</time>
      </trkpt>
      <trkpt lat="43.89387" lon="7.71836">
        <ele>662.002</ele>
        <time>2018-03-24T14:01:30Z</time>
      </trkpt>
      <trkpt lat="43.89386" lon="7.71839">
        <ele>661.543</ele>
        <time>2018-03-24T14:01:32Z</time>
      </trkpt>
      <trkpt lat="43.89384" lon="7.71842">
        <ele>660.143</ele>
        <time>2018-03-24T14:01:37Z</time>
      </trkpt>
      <trkpt lat="43.89381" lon="7.71846">
        <ele>658.981</ele>
        <time>2018-03-24T14:01:49Z</time>
      </trkpt>
      <trkpt lat="43.89379" lon="7.7185">
        <ele>658.532</ele>
        <time>2018-03-24T14:01:51Z</time>
      </trkpt>
      <trkpt lat="43.89379" lon="7.71856">
        <ele>658.105</ele>
        <time>2018-03-24T14:01:53Z</time>
      </trkpt>
      <trkpt lat="43.89378" lon="7.7186">
        <ele>657.383</ele>
        <time>2018-03-24T14:01:56Z</time>
      </trkpt>
      <trkpt lat="43.89375" lon="7.71863">
        <ele>655.507</ele>
        <time>2018-03-24T14:02:14Z</time>
      </trkpt>
      <trkpt lat="43.89374" lon="7.71866">
        <ele>655.128</ele>
        <time>2018-03-24T14:02:16Z</time>
      </trkpt>
      <trkpt lat="43.89372" lon="7.7187">
        <ele>654.564</ele>
        <time>2018-03-24T14:02:21Z</time>
      </trkpt>
      <trkpt lat="43.89369" lon="7.71874">
        <ele>654.325</ele>
        <time>2018-03-24T14:02:23Z</time>
      </trkpt>
      <trkpt lat="43.89366" lon="7.71876">
        <ele>653.994</ele>
        <time>2018-03-24T14:02:26Z</time>
      </trkpt>
      <trkpt lat="43.89364" lon="7.71879">
        <ele>653.621</ele>
        <time>2018-03-24T14:02:29Z</time>
      </trkpt>
      <trkpt lat="43.89361" lon="7.71881">
        <ele>653.268</ele>
        <time>2018-03-24T14:02:32Z</time>
      </trkpt>
      <trkpt lat="43.89358" lon="7.71884">
        <ele>652.812</ele>
        <time>2018-03-24T14:02:35Z</time>
      </trkpt>
      <trkpt lat="43.89355" lon="7.71887">
        <ele>652.101</ele>
        <time>2018-03-24T14:02:38Z</time>
      </trkpt>
      <trkpt lat="43.89353" lon="7.71889">
        <ele>651.359</ele>
        <time>2018-03-24T14:02:41Z</time>
      </trkpt>
      <trkpt lat="43.89351" lon="7.71892">
        <ele>650.535</ele>
        <time>2018-03-24T14:02:45Z</time>
      </trkpt>
      <trkpt lat="43.89349" lon="7.71896">
        <ele>649.738</ele>
        <time>2018-03-24T14:02:50Z</time>
      </trkpt>
      <trkpt lat="43.89346" lon="7.71899">
        <ele>649.304</ele>
        <time>2018-03-24T14:02:53Z</time>
      </trkpt>
      <trkpt lat="43.89344" lon="7.71901">
        <ele>648.845</ele>
        <time>2018-03-24T14:02:55Z</time>
      </trkpt>
      <trkpt lat="43.89342" lon="7.71905">
        <ele>648.436</ele>
        <time>2018-03-24T14:02:57Z</time>
      </trkpt>
      <trkpt lat="43.89339" lon="7.71908">
        <ele>648.037</ele>
        <time>2018-03-24T14:03:00Z</time>
      </trkpt>
      <trkpt lat="43.89336" lon="7.7191">
        <ele>647.839</ele>
        <time>2018-03-24T14:03:03Z</time>
      </trkpt>
      <trkpt lat="43.89334" lon="7.71912">
        <ele>647.53</ele>
        <time>2018-03-24T14:03:06Z</time>
      </trkpt>
      <trkpt lat="43.89331" lon="7.71914">
        <ele>647.48</ele>
        <time>2018-03-24T14:03:09Z</time>
      </trkpt>
      <trkpt lat="43.89328" lon="7.71916">
        <ele>647.174</ele>
        <time>2018-03-24T14:03:12Z</time>
      </trkpt>
      <trkpt lat="43.89324" lon="7.71916">
        <ele>647.13</ele>
        <time>2018-03-24T14:03:15Z</time>
      </trkpt>
      <trkpt lat="43.89321" lon="7.71915">
        <ele>646.852</ele>
        <time>2018-03-24T14:03:24Z</time>
      </trkpt>
      <trkpt lat="43.89318" lon="7.71912">
        <ele>647.002</ele>
        <time>2018-03-24T14:03:27Z</time>
      </trkpt>
      <trkpt lat="43.89315" lon="7.71911">
        <ele>647.032</ele>
        <time>2018-03-24T14:03:30Z</time>
      </trkpt>
      <trkpt lat="43.89312" lon="7.7191">
        <ele>646.922</ele>
        <time>2018-03-24T14:03:32Z</time>
      </trkpt>
      <trkpt lat="43.89309" lon="7.71908">
        <ele>646.777</ele>
        <time>2018-03-24T14:03:35Z</time>
      </trkpt>
      <trkpt lat="43.89307" lon="7.71905">
        <ele>646.537</ele>
        <time>2018-03-24T14:03:38Z</time>
      </trkpt>
      <trkpt lat="43.89305" lon="7.71902">
        <ele>645.345</ele>
        <time>2018-03-24T14:03:52Z</time>
      </trkpt>
      <trkpt lat="43.89303" lon="7.71899">
        <ele>644.686</ele>
        <time>2018-03-24T14:03:56Z</time>
      </trkpt>
      <trkpt lat="43.89301" lon="7.71896">
        <ele>643.903</ele>
        <time>2018-03-24T14:04:00Z</time>
      </trkpt>
      <trkpt lat="43.89299" lon="7.71894">
        <ele>643.581</ele>
        <time>2018-03-24T14:04:02Z</time>
      </trkpt>
      <trkpt lat="43.89296" lon="7.71891">
        <ele>642.925</ele>
        <time>2018-03-24T14:04:19Z</time>
      </trkpt>
      <trkpt lat="43.89294" lon="7.71891">
        <ele>642.677</ele>
        <time>2018-03-24T14:04:23Z</time>
      </trkpt>
      <trkpt lat="43.89291" lon="7.7189">
        <ele>642.276</ele>
        <time>2018-03-24T14:04:26Z</time>
      </trkpt>
      <trkpt lat="43.89287" lon="7.7189">
        <ele>641.86</ele>
        <time>2018-03-24T14:04:29Z</time>
      </trkpt>
      <trkpt lat="43.89281" lon="7.71893">
        <ele>639.93</ele>
        <time>2018-03-24T14:04:35Z</time>
      </trkpt>
      <trkpt lat="43.89278" lon="7.71892">
        <ele>638.767</ele>
        <time>2018-03-24T14:04:39Z</time>
      </trkpt>
      <trkpt lat="43.89279" lon="7.71888">
        <ele>637.462</ele>
        <time>2018-03-24T14:04:43Z</time>
      </trkpt>
      <trkpt lat="43.8928" lon="7.71884">
        <ele>636.863</ele>
        <time>2018-03-24T14:04:45Z</time>
      </trkpt>
      <trkpt lat="43.89281" lon="7.71878">
        <ele>636.162</ele>
        <time>2018-03-24T14:04:48Z</time>
      </trkpt>
      <trkpt lat="43.89281" lon="7.71872">
        <ele>635.624</ele>
        <time>2018-03-24T14:04:50Z</time>
      </trkpt>
      <trkpt lat="43.89282" lon="7.71868">
        <ele>634.763</ele>
        <time>2018-03-24T14:04:54Z</time>
      </trkpt>
      <trkpt lat="43.89281" lon="7.71864">
        <ele>634.35</ele>
        <time>2018-03-24T14:04:56Z</time>
      </trkpt>
      <trkpt lat="43.89281" lon="7.71861">
        <ele>633.17</ele>
        <time>2018-03-24T14:05:00Z</time>
      </trkpt>
      <trkpt lat="43.89278" lon="7.71858">
        <ele>632.371</ele>
        <time>2018-03-24T14:05:02Z</time>
      </trkpt>
      <trkpt lat="43.89272" lon="7.7185">
        <ele>631.806</ele>
        <time>2018-03-24T14:05:04Z</time>
      </trkpt>
      <trkpt lat="43.8927" lon="7.71846">
        <ele>631.018</ele>
        <time>2018-03-24T14:05:07Z</time>
      </trkpt>
      <trkpt lat="43.89268" lon="7.71843">
        <ele>630.313</ele>
        <time>2018-03-24T14:05:12Z</time>
      </trkpt>
      <trkpt lat="43.89266" lon="7.71839">
        <ele>629.876</ele>
        <time>2018-03-24T14:05:15Z</time>
      </trkpt>
      <trkpt lat="43.89264" lon="7.71835">
        <ele>629.657</ele>
        <time>2018-03-24T14:05:17Z</time>
      </trkpt>
      <trkpt lat="43.89265" lon="7.71831">
        <ele>629.557</ele>
        <time>2018-03-24T14:05:20Z</time>
      </trkpt>
      <trkpt lat="43.89264" lon="7.71824">
        <ele>629.621</ele>
        <time>2018-03-24T14:05:23Z</time>
      </trkpt>
      <trkpt lat="43.89264" lon="7.71819">
        <ele>629.577</ele>
        <time>2018-03-24T14:05:25Z</time>
      </trkpt>
      <trkpt lat="43.89263" lon="7.71813">
        <ele>629.423</ele>
        <time>2018-03-24T14:05:27Z</time>
      </trkpt>
      <trkpt lat="43.89263" lon="7.71809">
        <ele>629.476</ele>
        <time>2018-03-24T14:05:29Z</time>
      </trkpt>
      <trkpt lat="43.89262" lon="7.71805">
        <ele>629.321</ele>
        <time>2018-03-24T14:05:31Z</time>
      </trkpt>
      <trkpt lat="43.89262" lon="7.71801">
        <ele>628.936</ele>
        <time>2018-03-24T14:05:33Z</time>
      </trkpt>
      <trkpt lat="43.89261" lon="7.71797">
        <ele>628.629</ele>
        <time>2018-03-24T14:05:36Z</time>
      </trkpt>
      <trkpt lat="43.8926" lon="7.71793">
        <ele>628.521</ele>
        <time>2018-03-24T14:05:38Z</time>
      </trkpt>
      <trkpt lat="43.89259" lon="7.71789">
        <ele>628.391</ele>
        <time>2018-03-24T14:05:42Z</time>
      </trkpt>
      <trkpt lat="43.89256" lon="7.71785">
        <ele>628.228</ele>
        <time>2018-03-24T14:05:45Z</time>
      </trkpt>
      <trkpt lat="43.89256" lon="7.71781">
        <ele>627.921</ele>
        <time>2018-03-24T14:05:48Z</time>
      </trkpt>
      <trkpt lat="43.89256" lon="7.71777">
        <ele>627.669</ele>
        <time>2018-03-24T14:05:50Z</time>
      </trkpt>
      <trkpt lat="43.89254" lon="7.71772">
        <ele>627.49</ele>
        <time>2018-03-24T14:05:53Z</time>
      </trkpt>
      <trkpt lat="43.89253" lon="7.71768">
        <ele>627.341</ele>
        <time>2018-03-24T14:05:55Z</time>
      </trkpt>
      <trkpt lat="43.89253" lon="7.71764">
        <ele>627.341</ele>
        <time>2018-03-24T14:05:59Z</time>
      </trkpt>
      <trkpt lat="43.89252" lon="7.7176">
        <ele>626.939</ele>
        <time>2018-03-24T14:06:15Z</time>
      </trkpt>
      <trkpt lat="43.8925" lon="7.71756">
        <ele>626.726</ele>
        <time>2018-03-24T14:06:18Z</time>
      </trkpt>
      <trkpt lat="43.89247" lon="7.71753">
        <ele>626.652</ele>
        <time>2018-03-24T14:06:20Z</time>
      </trkpt>
      <trkpt lat="43.89245" lon="7.7175">
        <ele>626.597</ele>
        <time>2018-03-24T14:06:22Z</time>
      </trkpt>
      <trkpt lat="43.89243" lon="7.71746">
        <ele>626.56</ele>
        <time>2018-03-24T14:06:25Z</time>
      </trkpt>
      <trkpt lat="43.89241" lon="7.71742">
        <ele>626.719</ele>
        <time>2018-03-24T14:06:29Z</time>
      </trkpt>
      <trkpt lat="43.8924" lon="7.71738">
        <ele>626.672</ele>
        <time>2018-03-24T14:06:32Z</time>
      </trkpt>
      <trkpt lat="43.89239" lon="7.71735">
        <ele>626.603</ele>
        <time>2018-03-24T14:06:36Z</time>
      </trkpt>
      <trkpt lat="43.89235" lon="7.71732">
        <ele>626.59</ele>
        <time>2018-03-24T14:06:40Z</time>
      </trkpt>
      <trkpt lat="43.89232" lon="7.71733">
        <ele>626.643</ele>
        <time>2018-03-24T14:06:50Z</time>
      </trkpt>
      <trkpt lat="43.8923" lon="7.71735">
        <ele>626.917</ele>
        <time>2018-03-24T14:06:57Z</time>
      </trkpt>
      <trkpt lat="43.89232" lon="7.71733">
        <ele>626.99</ele>
        <time>2018-03-24T14:07:05Z</time>
      </trkpt>
      <trkpt lat="43.89235" lon="7.7173">
        <ele>627.04</ele>
        <time>2018-03-24T14:07:08Z</time>
      </trkpt>
      <trkpt lat="43.89232" lon="7.71726">
        <ele>626.43</ele>
        <time>2018-03-24T14:07:47Z</time>
      </trkpt>
      <trkpt lat="43.8923" lon="7.71723">
        <ele>626.4</ele>
        <time>2018-03-24T14:07:49Z</time>
      </trkpt>
      <trkpt lat="43.89229" lon="7.71719">
        <ele>626.367</ele>
        <time>2018-03-24T14:07:52Z</time>
      </trkpt>
      <trkpt lat="43.89229" lon="7.71714">
        <ele>626.182</ele>
        <time>2018-03-24T14:07:54Z</time>
      </trkpt>
      <trkpt lat="43.89228" lon="7.71709">
        <ele>625.951</ele>
        <time>2018-03-24T14:07:56Z</time>
      </trkpt>
      <trkpt lat="43.89228" lon="7.71704">
        <ele>625.748</ele>
        <time>2018-03-24T14:07:58Z</time>
      </trkpt>
      <trkpt lat="43.89228" lon="7.717">
        <ele>625.472</ele>
        <time>2018-03-24T14:08:01Z</time>
      </trkpt>
      <trkpt lat="43.89227" lon="7.71696">
        <ele>625.114</ele>
        <time>2018-03-24T14:08:03Z</time>
      </trkpt>
      <trkpt lat="43.89226" lon="7.71692">
        <ele>624.795</ele>
        <time>2018-03-24T14:08:05Z</time>
      </trkpt>
      <trkpt lat="43.89226" lon="7.71687">
        <ele>624.417</ele>
        <time>2018-03-24T14:08:08Z</time>
      </trkpt>
      <trkpt lat="43.89226" lon="7.71683">
        <ele>624.239</ele>
        <time>2018-03-24T14:08:16Z</time>
      </trkpt>
      <trkpt lat="43.89225" lon="7.71679">
        <ele>624.121</ele>
        <time>2018-03-24T14:08:19Z</time>
      </trkpt>
      <trkpt lat="43.89224" lon="7.71674">
        <ele>624.05</ele>
        <time>2018-03-24T14:08:21Z</time>
      </trkpt>
      <trkpt lat="43.89223" lon="7.71669">
        <ele>624.195</ele>
        <time>2018-03-24T14:08:24Z</time>
      </trkpt>
      <trkpt lat="43.89222" lon="7.71664">
        <ele>624.177</ele>
        <time>2018-03-24T14:08:26Z</time>
      </trkpt>
      <trkpt lat="43.89219" lon="7.71655">
        <ele>624.419</ele>
        <time>2018-03-24T14:08:30Z</time>
      </trkpt>
      <trkpt lat="43.89222" lon="7.71653">
        <ele>624.405</ele>
        <time>2018-03-24T14:08:51Z</time>
      </trkpt>
      <trkpt lat="43.89218" lon="7.71653">
        <ele>623.956</ele>
        <time>2018-03-24T14:09:12Z</time>
      </trkpt>
      <trkpt lat="43.89215" lon="7.71653">
        <ele>623.467</ele>
        <time>2018-03-24T14:09:15Z</time>
      </trkpt>
      <trkpt lat="43.89209" lon="7.71648">
        <ele>622.22</ele>
        <time>2018-03-24T14:09:19Z</time>
      </trkpt>
      <trkpt lat="43.89206" lon="7.71644">
        <ele>621.692</ele>
        <time>2018-03-24T14:09:21Z</time>
      </trkpt>
      <trkpt lat="43.89205" lon="7.7164">
        <ele>621.104</ele>
        <time>2018-03-24T14:09:24Z</time>
      </trkpt>
      <trkpt lat="43.89205" lon="7.71636">
        <ele>620.915</ele>
        <time>2018-03-24T14:09:27Z</time>
      </trkpt>
      <trkpt lat="43.89205" lon="7.71632">
        <ele>621.083</ele>
        <time>2018-03-24T14:09:36Z</time>
      </trkpt>
      <trkpt lat="43.89206" lon="7.71627">
        <ele>621.318</ele>
        <time>2018-03-24T14:09:44Z</time>
      </trkpt>
      <trkpt lat="43.89209" lon="7.71625">
        <ele>624.298</ele>
        <time>2018-03-24T14:10:30Z</time>
      </trkpt>
      <trkpt lat="43.89209" lon="7.71629">
        <ele>625.804</ele>
        <time>2018-03-24T14:10:44Z</time>
      </trkpt>
      <trkpt lat="43.8921" lon="7.71625">
        <ele>629.139</ele>
        <time>2018-03-24T14:12:30Z</time>
      </trkpt>
      <trkpt lat="43.89214" lon="7.71624">
        <ele>630.673</ele>
        <time>2018-03-24T14:13:12Z</time>
      </trkpt>
      <trkpt lat="43.89216" lon="7.71624">
        <ele>630.673</ele>
        <time>2018-03-24T14:13:14Z</time>
      </trkpt>
      <trkpt lat="43.8922" lon="7.71624">
        <ele>634.266</ele>
        <time>2018-03-24T14:14:42Z</time>
      </trkpt>
      <trkpt lat="43.89221" lon="7.71628">
        <ele>634.457</ele>
        <time>2018-03-24T14:14:44Z</time>
      </trkpt>
      <trkpt lat="43.8922" lon="7.71624">
        <ele>633.323</ele>
        <time>2018-03-24T14:15:04Z</time>
      </trkpt>
      <trkpt lat="43.89217" lon="7.71622">
        <ele>632.712</ele>
        <time>2018-03-24T14:15:40Z</time>
      </trkpt>
      <trkpt lat="43.89214" lon="7.71622">
        <ele>632.734</ele>
        <time>2018-03-24T14:15:51Z</time>
      </trkpt>
      <trkpt lat="43.89214" lon="7.71618">
        <ele>628.095</ele>
        <time>2018-03-24T14:17:44Z</time>
      </trkpt>
      <trkpt lat="43.89211" lon="7.7162">
        <ele>627.446</ele>
        <time>2018-03-24T14:17:47Z</time>
      </trkpt>
      <trkpt lat="43.8921" lon="7.71627">
        <ele>627.125</ele>
        <time>2018-03-24T14:17:49Z</time>
      </trkpt>
      <trkpt lat="43.8921" lon="7.71632">
        <ele>626.859</ele>
        <time>2018-03-24T14:17:51Z</time>
      </trkpt>
      <trkpt lat="43.89208" lon="7.71637">
        <ele>626.646</ele>
        <time>2018-03-24T14:17:53Z</time>
      </trkpt>
      <trkpt lat="43.89207" lon="7.71643">
        <ele>626.482</ele>
        <time>2018-03-24T14:17:56Z</time>
      </trkpt>
      <trkpt lat="43.89205" lon="7.71647">
        <ele>626.407</ele>
        <time>2018-03-24T14:18:00Z</time>
      </trkpt>
      <trkpt lat="43.89203" lon="7.71651">
        <ele>626.381</ele>
        <time>2018-03-24T14:18:03Z</time>
      </trkpt>
      <trkpt lat="43.89201" lon="7.71654">
        <ele>626.078</ele>
        <time>2018-03-24T14:18:08Z</time>
      </trkpt>
      <trkpt lat="43.892" lon="7.71658">
        <ele>626.111</ele>
        <time>2018-03-24T14:18:25Z</time>
      </trkpt>
      <trkpt lat="43.89201" lon="7.71662">
        <ele>626.988</ele>
        <time>2018-03-24T14:18:48Z</time>
      </trkpt>
      <trkpt lat="43.89203" lon="7.71668">
        <ele>627.299</ele>
        <time>2018-03-24T14:18:51Z</time>
      </trkpt>
      <trkpt lat="43.89204" lon="7.71672">
        <ele>627.611</ele>
        <time>2018-03-24T14:18:53Z</time>
      </trkpt>
      <trkpt lat="43.89203" lon="7.71677">
        <ele>628.33</ele>
        <time>2018-03-24T14:19:07Z</time>
      </trkpt>
      <trkpt lat="43.89202" lon="7.71681">
        <ele>628.639</ele>
        <time>2018-03-24T14:19:10Z</time>
      </trkpt>
      <trkpt lat="43.892" lon="7.71685">
        <ele>629.12</ele>
        <time>2018-03-24T14:19:15Z</time>
      </trkpt>
      <trkpt lat="43.89197" lon="7.7169">
        <ele>629.414</ele>
        <time>2018-03-24T14:19:18Z</time>
      </trkpt>
      <trkpt lat="43.89196" lon="7.71693">
        <ele>629.711</ele>
        <time>2018-03-24T14:19:20Z</time>
      </trkpt>
      <trkpt lat="43.89195" lon="7.71698">
        <ele>630.07</ele>
        <time>2018-03-24T14:19:23Z</time>
      </trkpt>
      <trkpt lat="43.89195" lon="7.71703">
        <ele>630.472</ele>
        <time>2018-03-24T14:19:25Z</time>
      </trkpt>
      <trkpt lat="43.89194" lon="7.71707">
        <ele>631.65</ele>
        <time>2018-03-24T14:19:38Z</time>
      </trkpt>
      <trkpt lat="43.89196" lon="7.71711">
        <ele>631.91</ele>
        <time>2018-03-24T14:19:42Z</time>
      </trkpt>
      <trkpt lat="43.89194" lon="7.71715">
        <ele>632.225</ele>
        <time>2018-03-24T14:19:54Z</time>
      </trkpt>
      <trkpt lat="43.89196" lon="7.7172">
        <ele>632.403</ele>
        <time>2018-03-24T14:19:57Z</time>
      </trkpt>
      <trkpt lat="43.89197" lon="7.71724">
        <ele>632.96</ele>
        <time>2018-03-24T14:20:00Z</time>
      </trkpt>
      <trkpt lat="43.89199" lon="7.71726">
        <ele>634.022</ele>
        <time>2018-03-24T14:20:05Z</time>
      </trkpt>
      <trkpt lat="43.89202" lon="7.71728">
        <ele>634.882</ele>
        <time>2018-03-24T14:20:09Z</time>
      </trkpt>
      <trkpt lat="43.89202" lon="7.71732">
        <ele>635.594</ele>
        <time>2018-03-24T14:20:14Z</time>
      </trkpt>
      <trkpt lat="43.892" lon="7.71735">
        <ele>636.876</ele>
        <time>2018-03-24T14:20:46Z</time>
      </trkpt>
      <trkpt lat="43.89197" lon="7.71738">
        <ele>637.382</ele>
        <time>2018-03-24T14:20:48Z</time>
      </trkpt>
      <trkpt lat="43.89195" lon="7.71742">
        <ele>637.98</ele>
        <time>2018-03-24T14:20:51Z</time>
      </trkpt>
      <trkpt lat="43.89192" lon="7.71743">
        <ele>634.944</ele>
        <time>2018-03-24T14:22:21Z</time>
      </trkpt>
      <trkpt lat="43.8919" lon="7.71746">
        <ele>634.944</ele>
        <time>2018-03-24T14:22:24Z</time>
      </trkpt>
      <trkpt lat="43.89189" lon="7.7175">
        <ele>635.782</ele>
        <time>2018-03-24T14:22:32Z</time>
      </trkpt>
      <trkpt lat="43.89189" lon="7.71754">
        <ele>637.158</ele>
        <time>2018-03-24T14:22:43Z</time>
      </trkpt>
      <trkpt lat="43.89187" lon="7.71757">
        <ele>637.764</ele>
        <time>2018-03-24T14:22:46Z</time>
      </trkpt>
      <trkpt lat="43.89185" lon="7.71761">
        <ele>638.476</ele>
        <time>2018-03-24T14:23:07Z</time>
      </trkpt>
      <trkpt lat="43.89185" lon="7.71765">
        <ele>638.805</ele>
        <time>2018-03-24T14:23:09Z</time>
      </trkpt>
      <trkpt lat="43.89184" lon="7.71769">
        <ele>639.085</ele>
        <time>2018-03-24T14:23:11Z</time>
      </trkpt>
      <trkpt lat="43.89182" lon="7.71772">
        <ele>639.272</ele>
        <time>2018-03-24T14:23:13Z</time>
      </trkpt>
      <trkpt lat="43.89179" lon="7.71774">
        <ele>639.472</ele>
        <time>2018-03-24T14:23:15Z</time>
      </trkpt>
      <trkpt lat="43.89177" lon="7.71777">
        <ele>639.626</ele>
        <time>2018-03-24T14:23:17Z</time>
      </trkpt>
      <trkpt lat="43.89175" lon="7.71781">
        <ele>639.942</ele>
        <time>2018-03-24T14:23:19Z</time>
      </trkpt>
      <trkpt lat="43.89174" lon="7.71784">
        <ele>640.207</ele>
        <time>2018-03-24T14:23:21Z</time>
      </trkpt>
      <trkpt lat="43.89174" lon="7.7179">
        <ele>640.648</ele>
        <time>2018-03-24T14:23:24Z</time>
      </trkpt>
      <trkpt lat="43.89174" lon="7.71796">
        <ele>641.175</ele>
        <time>2018-03-24T14:23:27Z</time>
      </trkpt>
      <trkpt lat="43.89175" lon="7.718">
        <ele>641.264</ele>
        <time>2018-03-24T14:23:29Z</time>
      </trkpt>
      <trkpt lat="43.89174" lon="7.71805">
        <ele>641.394</ele>
        <time>2018-03-24T14:23:31Z</time>
      </trkpt>
      <trkpt lat="43.89174" lon="7.7181">
        <ele>641.637</ele>
        <time>2018-03-24T14:23:33Z</time>
      </trkpt>
      <trkpt lat="43.89173" lon="7.71814">
        <ele>642.041</ele>
        <time>2018-03-24T14:23:35Z</time>
      </trkpt>
      <trkpt lat="43.89173" lon="7.71819">
        <ele>642.299</ele>
        <time>2018-03-24T14:23:38Z</time>
      </trkpt>
      <trkpt lat="43.89172" lon="7.71824">
        <ele>642.545</ele>
        <time>2018-03-24T14:23:41Z</time>
      </trkpt>
      <trkpt lat="43.89172" lon="7.71829">
        <ele>642.819</ele>
        <time>2018-03-24T14:23:44Z</time>
      </trkpt>
      <trkpt lat="43.8917" lon="7.71833">
        <ele>643.097</ele>
        <time>2018-03-24T14:23:47Z</time>
      </trkpt>
      <trkpt lat="43.8917" lon="7.71837">
        <ele>643.35</ele>
        <time>2018-03-24T14:23:49Z</time>
      </trkpt>
      <trkpt lat="43.8917" lon="7.71842">
        <ele>643.592</ele>
        <time>2018-03-24T14:24:01Z</time>
      </trkpt>
      <trkpt lat="43.8917" lon="7.71847">
        <ele>644.105</ele>
        <time>2018-03-24T14:24:04Z</time>
      </trkpt>
      <trkpt lat="43.89168" lon="7.7185">
        <ele>644.534</ele>
        <time>2018-03-24T14:24:06Z</time>
      </trkpt>
      <trkpt lat="43.89167" lon="7.71855">
        <ele>644.736</ele>
        <time>2018-03-24T14:24:08Z</time>
      </trkpt>
      <trkpt lat="43.89166" lon="7.71859">
        <ele>645.108</ele>
        <time>2018-03-24T14:24:10Z</time>
      </trkpt>
      <trkpt lat="43.89164" lon="7.71863">
        <ele>645.037</ele>
        <time>2018-03-24T14:24:40Z</time>
      </trkpt>
      <trkpt lat="43.89162" lon="7.71867">
        <ele>645.157</ele>
        <time>2018-03-24T14:24:43Z</time>
      </trkpt>
      <trkpt lat="43.8916" lon="7.7187">
        <ele>645.4</ele>
        <time>2018-03-24T14:24:46Z</time>
      </trkpt>
      <trkpt lat="43.89157" lon="7.71874">
        <ele>645.869</ele>
        <time>2018-03-24T14:24:49Z</time>
      </trkpt>
      <trkpt lat="43.89154" lon="7.71877">
        <ele>645.541</ele>
        <time>2018-03-24T14:25:02Z</time>
      </trkpt>
      <trkpt lat="43.89153" lon="7.71882">
        <ele>645.957</ele>
        <time>2018-03-24T14:25:05Z</time>
      </trkpt>
      <trkpt lat="43.89152" lon="7.71887">
        <ele>646.67</ele>
        <time>2018-03-24T14:25:08Z</time>
      </trkpt>
      <trkpt lat="43.89152" lon="7.71891">
        <ele>647.451</ele>
        <time>2018-03-24T14:25:11Z</time>
      </trkpt>
      <trkpt lat="43.8915" lon="7.71895">
        <ele>648.043</ele>
        <time>2018-03-24T14:25:14Z</time>
      </trkpt>
      <trkpt lat="43.89148" lon="7.71898">
        <ele>648.304</ele>
        <time>2018-03-24T14:25:16Z</time>
      </trkpt>
      <trkpt lat="43.89146" lon="7.71901">
        <ele>648.41</ele>
        <time>2018-03-24T14:25:18Z</time>
      </trkpt>
      <trkpt lat="43.89145" lon="7.71905">
        <ele>648.583</ele>
        <time>2018-03-24T14:25:20Z</time>
      </trkpt>
      <trkpt lat="43.89143" lon="7.71909">
        <ele>648.741</ele>
        <time>2018-03-24T14:25:22Z</time>
      </trkpt>
      <trkpt lat="43.8914" lon="7.71913">
        <ele>649.018</ele>
        <time>2018-03-24T14:25:24Z</time>
      </trkpt>
      <trkpt lat="43.89138" lon="7.71916">
        <ele>649.201</ele>
        <time>2018-03-24T14:25:27Z</time>
      </trkpt>
      <trkpt lat="43.89136" lon="7.71919">
        <ele>649.158</ele>
        <time>2018-03-24T14:25:29Z</time>
      </trkpt>
      <trkpt lat="43.89134" lon="7.71923">
        <ele>649.06</ele>
        <time>2018-03-24T14:25:31Z</time>
      </trkpt>
      <trkpt lat="43.89132" lon="7.71925">
        <ele>649.109</ele>
        <time>2018-03-24T14:25:33Z</time>
      </trkpt>
      <trkpt lat="43.89128" lon="7.71928">
        <ele>649.205</ele>
        <time>2018-03-24T14:25:35Z</time>
      </trkpt>
      <trkpt lat="43.89128" lon="7.71931">
        <ele>654.344</ele>
        <time>2018-03-24T14:25:58Z</time>
      </trkpt>
      <trkpt lat="43.89125" lon="7.71932">
        <ele>655.996</ele>
        <time>2018-03-24T14:26:12Z</time>
      </trkpt>
      <trkpt lat="43.89122" lon="7.71935">
        <ele>656.333</ele>
        <time>2018-03-24T14:26:14Z</time>
      </trkpt>
      <trkpt lat="43.89119" lon="7.71938">
        <ele>656.658</ele>
        <time>2018-03-24T14:26:16Z</time>
      </trkpt>
      <trkpt lat="43.89117" lon="7.71943">
        <ele>656.985</ele>
        <time>2018-03-24T14:26:19Z</time>
      </trkpt>
      <trkpt lat="43.89116" lon="7.71947">
        <ele>657.186</ele>
        <time>2018-03-24T14:26:21Z</time>
      </trkpt>
      <trkpt lat="43.89115" lon="7.71951">
        <ele>657.269</ele>
        <time>2018-03-24T14:26:23Z</time>
      </trkpt>
      <trkpt lat="43.89114" lon="7.71956">
        <ele>657.192</ele>
        <time>2018-03-24T14:26:25Z</time>
      </trkpt>
      <trkpt lat="43.89113" lon="7.7196">
        <ele>657.057</ele>
        <time>2018-03-24T14:26:27Z</time>
      </trkpt>
      <trkpt lat="43.89112" lon="7.71964">
        <ele>656.947</ele>
        <time>2018-03-24T14:26:29Z</time>
      </trkpt>
      <trkpt lat="43.89111" lon="7.71968">
        <ele>656.878</ele>
        <time>2018-03-24T14:26:31Z</time>
      </trkpt>
      <trkpt lat="43.89112" lon="7.71972">
        <ele>656.952</ele>
        <time>2018-03-24T14:26:33Z</time>
      </trkpt>
      <trkpt lat="43.89111" lon="7.71977">
        <ele>657.081</ele>
        <time>2018-03-24T14:26:35Z</time>
      </trkpt>
      <trkpt lat="43.8911" lon="7.71981">
        <ele>657.181</ele>
        <time>2018-03-24T14:26:38Z</time>
      </trkpt>
      <trkpt lat="43.89107" lon="7.71984">
        <ele>657.01</ele>
        <time>2018-03-24T14:26:55Z</time>
      </trkpt>
      <trkpt lat="43.89105" lon="7.71987">
        <ele>656.919</ele>
        <time>2018-03-24T14:26:58Z</time>
      </trkpt>
      <trkpt lat="43.89102" lon="7.71989">
        <ele>656.938</ele>
        <time>2018-03-24T14:27:00Z</time>
      </trkpt>
      <trkpt lat="43.89099" lon="7.7199">
        <ele>656.772</ele>
        <time>2018-03-24T14:27:03Z</time>
      </trkpt>
      <trkpt lat="43.89096" lon="7.71992">
        <ele>656.598</ele>
        <time>2018-03-24T14:27:05Z</time>
      </trkpt>
      <trkpt lat="43.89094" lon="7.71994">
        <ele>656.48</ele>
        <time>2018-03-24T14:27:07Z</time>
      </trkpt>
      <trkpt lat="43.8909" lon="7.71993">
        <ele>656.536</ele>
        <time>2018-03-24T14:27:10Z</time>
      </trkpt>
      <trkpt lat="43.89087" lon="7.71995">
        <ele>656.58</ele>
        <time>2018-03-24T14:27:12Z</time>
      </trkpt>
      <trkpt lat="43.89084" lon="7.71996">
        <ele>656.786</ele>
        <time>2018-03-24T14:27:14Z</time>
      </trkpt>
      <trkpt lat="43.89081" lon="7.71998">
        <ele>656.731</ele>
        <time>2018-03-24T14:27:16Z</time>
      </trkpt>
      <trkpt lat="43.89078" lon="7.72001">
        <ele>656.624</ele>
        <time>2018-03-24T14:27:20Z</time>
      </trkpt>
      <trkpt lat="43.89074" lon="7.72003">
        <ele>656.718</ele>
        <time>2018-03-24T14:27:22Z</time>
      </trkpt>
      <trkpt lat="43.89072" lon="7.72005">
        <ele>656.655</ele>
        <time>2018-03-24T14:27:24Z</time>
      </trkpt>
      <trkpt lat="43.89069" lon="7.72008">
        <ele>656.689</ele>
        <time>2018-03-24T14:27:27Z</time>
      </trkpt>
      <trkpt lat="43.89066" lon="7.72011">
        <ele>656.737</ele>
        <time>2018-03-24T14:27:30Z</time>
      </trkpt>
      <trkpt lat="43.89062" lon="7.72014">
        <ele>656.843</ele>
        <time>2018-03-24T14:27:33Z</time>
      </trkpt>
      <trkpt lat="43.8906" lon="7.72016">
        <ele>656.901</ele>
        <time>2018-03-24T14:27:35Z</time>
      </trkpt>
      <trkpt lat="43.89057" lon="7.72019">
        <ele>656.813</ele>
        <time>2018-03-24T14:27:37Z</time>
      </trkpt>
      <trkpt lat="43.89055" lon="7.72021">
        <ele>656.671</ele>
        <time>2018-03-24T14:27:39Z</time>
      </trkpt>
      <trkpt lat="43.89052" lon="7.72023">
        <ele>656.581</ele>
        <time>2018-03-24T14:27:41Z</time>
      </trkpt>
      <trkpt lat="43.89049" lon="7.72025">
        <ele>656.43</ele>
        <time>2018-03-24T14:27:43Z</time>
      </trkpt>
      <trkpt lat="43.89047" lon="7.72027">
        <ele>656.201</ele>
        <time>2018-03-24T14:27:45Z</time>
      </trkpt>
      <trkpt lat="43.89044" lon="7.7203">
        <ele>656.164</ele>
        <time>2018-03-24T14:27:47Z</time>
      </trkpt>
      <trkpt lat="43.89042" lon="7.72033">
        <ele>656.158</ele>
        <time>2018-03-24T14:27:49Z</time>
      </trkpt>
      <trkpt lat="43.89039" lon="7.72034">
        <ele>656.363</ele>
        <time>2018-03-24T14:27:52Z</time>
      </trkpt>
      <trkpt lat="43.89035" lon="7.72032">
        <ele>657.782</ele>
        <time>2018-03-24T14:28:03Z</time>
      </trkpt>
      <trkpt lat="43.89032" lon="7.7203">
        <ele>658.834</ele>
        <time>2018-03-24T14:28:07Z</time>
      </trkpt>
      <trkpt lat="43.89028" lon="7.72034">
        <ele>658.18</ele>
        <time>2018-03-24T14:28:30Z</time>
      </trkpt>
      <trkpt lat="43.89026" lon="7.72038">
        <ele>657.79</ele>
        <time>2018-03-24T14:28:32Z</time>
      </trkpt>
      <trkpt lat="43.89023" lon="7.72037">
        <ele>657.882</ele>
        <time>2018-03-24T14:28:35Z</time>
      </trkpt>
      <trkpt lat="43.8902" lon="7.72036">
        <ele>658.158</ele>
        <time>2018-03-24T14:28:38Z</time>
      </trkpt>
      <trkpt lat="43.89016" lon="7.72034">
        <ele>658.402</ele>
        <time>2018-03-24T14:28:41Z</time>
      </trkpt>
      <trkpt lat="43.89013" lon="7.72037">
        <ele>659.268</ele>
        <time>2018-03-24T14:28:54Z</time>
      </trkpt>
      <trkpt lat="43.89011" lon="7.72039">
        <ele>659.607</ele>
        <time>2018-03-24T14:28:56Z</time>
      </trkpt>
      <trkpt lat="43.8901" lon="7.72043">
        <ele>663.879</ele>
        <time>2018-03-24T14:31:44Z</time>
      </trkpt>
      <trkpt lat="43.89007" lon="7.72044">
        <ele>664.257</ele>
        <time>2018-03-24T14:31:50Z</time>
      </trkpt>
      <trkpt lat="43.89003" lon="7.72045">
        <ele>663.894</ele>
        <time>2018-03-24T14:31:57Z</time>
      </trkpt>
      <trkpt lat="43.89001" lon="7.72047">
        <ele>663.752</ele>
        <time>2018-03-24T14:32:10Z</time>
      </trkpt>
      <trkpt lat="43.88998" lon="7.72048">
        <ele>663.873</ele>
        <time>2018-03-24T14:32:13Z</time>
      </trkpt>
      <trkpt lat="43.88995" lon="7.7205">
        <ele>664.132</ele>
        <time>2018-03-24T14:32:16Z</time>
      </trkpt>
      <trkpt lat="43.88993" lon="7.72052">
        <ele>664.289</ele>
        <time>2018-03-24T14:32:47Z</time>
      </trkpt>
      <trkpt lat="43.88991" lon="7.72056">
        <ele>664.002</ele>
        <time>2018-03-24T14:32:53Z</time>
      </trkpt>
      <trkpt lat="43.88989" lon="7.7206">
        <ele>663.871</ele>
        <time>2018-03-24T14:33:02Z</time>
      </trkpt>
      <trkpt lat="43.88987" lon="7.72063">
        <ele>663.57</ele>
        <time>2018-03-24T14:33:04Z</time>
      </trkpt>
      <trkpt lat="43.88984" lon="7.72067">
        <ele>663.146</ele>
        <time>2018-03-24T14:33:07Z</time>
      </trkpt>
      <trkpt lat="43.88982" lon="7.7207">
        <ele>662.955</ele>
        <time>2018-03-24T14:33:11Z</time>
      </trkpt>
      <trkpt lat="43.88979" lon="7.72072">
        <ele>662.866</ele>
        <time>2018-03-24T14:33:14Z</time>
      </trkpt>
      <trkpt lat="43.88977" lon="7.72075">
        <ele>663.352</ele>
        <time>2018-03-24T14:33:32Z</time>
      </trkpt>
      <trkpt lat="43.88975" lon="7.72074">
        <ele>663.865</ele>
        <time>2018-03-24T14:33:35Z</time>
      </trkpt>
      <trkpt lat="43.88972" lon="7.72073">
        <ele>664.184</ele>
        <time>2018-03-24T14:33:38Z</time>
      </trkpt>
      <trkpt lat="43.88969" lon="7.72072">
        <ele>664.463</ele>
        <time>2018-03-24T14:33:40Z</time>
      </trkpt>
      <trkpt lat="43.88966" lon="7.72071">
        <ele>664.919</ele>
        <time>2018-03-24T14:33:42Z</time>
      </trkpt>
      <trkpt lat="43.88962" lon="7.72071">
        <ele>665.833</ele>
        <time>2018-03-24T14:33:45Z</time>
      </trkpt>
      <trkpt lat="43.88959" lon="7.72068">
        <ele>666.525</ele>
        <time>2018-03-24T14:33:47Z</time>
      </trkpt>
      <trkpt lat="43.88957" lon="7.72066">
        <ele>667.179</ele>
        <time>2018-03-24T14:33:49Z</time>
      </trkpt>
      <trkpt lat="43.88952" lon="7.72066">
        <ele>667.989</ele>
        <time>2018-03-24T14:33:52Z</time>
      </trkpt>
      <trkpt lat="43.88949" lon="7.72065">
        <ele>669.233</ele>
        <time>2018-03-24T14:33:56Z</time>
      </trkpt>
      <trkpt lat="43.88946" lon="7.72062">
        <ele>669.885</ele>
        <time>2018-03-24T14:33:59Z</time>
      </trkpt>
      <trkpt lat="43.88943" lon="7.72057">
        <ele>670.487</ele>
        <time>2018-03-24T14:34:03Z</time>
      </trkpt>
      <trkpt lat="43.88941" lon="7.72053">
        <ele>670.774</ele>
        <time>2018-03-24T14:34:05Z</time>
      </trkpt>
      <trkpt lat="43.88941" lon="7.72048">
        <ele>672.183</ele>
        <time>2018-03-24T14:34:13Z</time>
      </trkpt>
      <trkpt lat="43.88942" lon="7.72043">
        <ele>672.579</ele>
        <time>2018-03-24T14:34:15Z</time>
      </trkpt>
      <trkpt lat="43.8894" lon="7.7204">
        <ele>673.009</ele>
        <time>2018-03-24T14:34:17Z</time>
      </trkpt>
      <trkpt lat="43.88937" lon="7.72037">
        <ele>675.085</ele>
        <time>2018-03-24T14:35:21Z</time>
      </trkpt>
      <trkpt lat="43.88937" lon="7.72033">
        <ele>674.43</ele>
        <time>2018-03-24T14:36:55Z</time>
      </trkpt>
      <trkpt lat="43.88939" lon="7.7203">
        <ele>674.393</ele>
        <time>2018-03-24T14:37:01Z</time>
      </trkpt>
      <trkpt lat="43.88937" lon="7.72027">
        <ele>674.556</ele>
        <time>2018-03-24T14:37:23Z</time>
      </trkpt>
      <trkpt lat="43.8894" lon="7.72028">
        <ele>672.337</ele>
        <time>2018-03-24T14:38:07Z</time>
      </trkpt>
      <trkpt lat="43.88941" lon="7.72032">
        <ele>674.22</ele>
        <time>2018-03-24T14:39:17Z</time>
      </trkpt>
      <trkpt lat="43.88939" lon="7.72028">
        <ele>674.622</ele>
        <time>2018-03-24T14:39:30Z</time>
      </trkpt>
      <trkpt lat="43.88937" lon="7.72024">
        <ele>674.954</ele>
        <time>2018-03-24T14:39:32Z</time>
      </trkpt>
      <trkpt lat="43.88933" lon="7.72021">
        <ele>675.267</ele>
        <time>2018-03-24T14:39:34Z</time>
      </trkpt>
      <trkpt lat="43.88931" lon="7.72018">
        <ele>675.516</ele>
        <time>2018-03-24T14:39:36Z</time>
      </trkpt>
      <trkpt lat="43.88927" lon="7.72016">
        <ele>675.996</ele>
        <time>2018-03-24T14:39:39Z</time>
      </trkpt>
      <trkpt lat="43.88926" lon="7.72012">
        <ele>676.466</ele>
        <time>2018-03-24T14:39:48Z</time>
      </trkpt>
      <trkpt lat="43.88923" lon="7.7201">
        <ele>676.952</ele>
        <time>2018-03-24T14:39:57Z</time>
      </trkpt>
      <trkpt lat="43.8892" lon="7.72007">
        <ele>676.986</ele>
        <time>2018-03-24T14:40:16Z</time>
      </trkpt>
      <trkpt lat="43.88917" lon="7.72004">
        <ele>677.185</ele>
        <time>2018-03-24T14:40:21Z</time>
      </trkpt>
      <trkpt lat="43.88918" lon="7.72">
        <ele>677.501</ele>
        <time>2018-03-24T14:40:55Z</time>
      </trkpt>
      <trkpt lat="43.88918" lon="7.71996">
        <ele>679.712</ele>
        <time>2018-03-24T14:41:14Z</time>
      </trkpt>
      <trkpt lat="43.88914" lon="7.71998">
        <ele>680.665</ele>
        <time>2018-03-24T14:41:37Z</time>
      </trkpt>
      <trkpt lat="43.88912" lon="7.71996">
        <ele>679.75</ele>
        <time>2018-03-24T14:41:46Z</time>
      </trkpt>
      <trkpt lat="43.88907" lon="7.71994">
        <ele>679.342</ele>
        <time>2018-03-24T14:41:51Z</time>
      </trkpt>
      <trkpt lat="43.88902" lon="7.71993">
        <ele>679.146</ele>
        <time>2018-03-24T14:41:53Z</time>
      </trkpt>
      <trkpt lat="43.889" lon="7.71992">
        <ele>678.991</ele>
        <time>2018-03-24T14:41:55Z</time>
      </trkpt>
      <trkpt lat="43.88896" lon="7.71991">
        <ele>681.625</ele>
        <time>2018-03-24T14:42:21Z</time>
      </trkpt>
      <trkpt lat="43.88893" lon="7.71991">
        <ele>683.555</ele>
        <time>2018-03-24T14:42:25Z</time>
      </trkpt>
      <trkpt lat="43.8889" lon="7.7199">
        <ele>684.249</ele>
        <time>2018-03-24T14:42:27Z</time>
      </trkpt>
      <trkpt lat="43.88887" lon="7.71988">
        <ele>688.351</ele>
        <time>2018-03-24T14:43:13Z</time>
      </trkpt>
      <trkpt lat="43.88888" lon="7.71984">
        <ele>688.278</ele>
        <time>2018-03-24T14:43:19Z</time>
      </trkpt>
      <trkpt lat="43.88888" lon="7.7198">
        <ele>688.56</ele>
        <time>2018-03-24T14:43:22Z</time>
      </trkpt>
      <trkpt lat="43.88887" lon="7.71976">
        <ele>688.87</ele>
        <time>2018-03-24T14:43:30Z</time>
      </trkpt>
      <trkpt lat="43.88885" lon="7.71973">
        <ele>688.659</ele>
        <time>2018-03-24T14:43:36Z</time>
      </trkpt>
      <trkpt lat="43.88883" lon="7.7197">
        <ele>688.484</ele>
        <time>2018-03-24T14:43:39Z</time>
      </trkpt>
      <trkpt lat="43.8888" lon="7.71971">
        <ele>687.688</ele>
        <time>2018-03-24T14:43:43Z</time>
      </trkpt>
      <trkpt lat="43.88884" lon="7.71972">
        <ele>686.194</ele>
        <time>2018-03-24T14:43:59Z</time>
      </trkpt>
      <trkpt lat="43.88887" lon="7.71973">
        <ele>686.14</ele>
        <time>2018-03-24T14:44:01Z</time>
      </trkpt>
      <trkpt lat="43.88884" lon="7.71973">
        <ele>685.903</ele>
        <time>2018-03-24T14:44:04Z</time>
      </trkpt>
      <trkpt lat="43.88882" lon="7.71972">
        <ele>685.703</ele>
        <time>2018-03-24T14:44:09Z</time>
      </trkpt>
      <trkpt lat="43.88879" lon="7.7197">
        <ele>685.707</ele>
        <time>2018-03-24T14:44:13Z</time>
      </trkpt>
      <trkpt lat="43.88876" lon="7.71968">
        <ele>685.824</ele>
        <time>2018-03-24T14:44:16Z</time>
      </trkpt>
      <trkpt lat="43.88869" lon="7.71963">
        <ele>686.069</ele>
        <time>2018-03-24T14:44:20Z</time>
      </trkpt>
      <trkpt lat="43.88866" lon="7.71963">
        <ele>686.313</ele>
        <time>2018-03-24T14:44:24Z</time>
      </trkpt>
      <trkpt lat="43.88864" lon="7.71966">
        <ele>686.309</ele>
        <time>2018-03-24T14:44:31Z</time>
      </trkpt>
      <trkpt lat="43.88864" lon="7.7197">
        <ele>686.335</ele>
        <time>2018-03-24T14:44:34Z</time>
      </trkpt>
      <trkpt lat="43.88863" lon="7.71974">
        <ele>686.551</ele>
        <time>2018-03-24T14:44:42Z</time>
      </trkpt>
      <trkpt lat="43.8886" lon="7.7197">
        <ele>686.441</ele>
        <time>2018-03-24T14:45:10Z</time>
      </trkpt>
      <trkpt lat="43.88857" lon="7.71969">
        <ele>686.397</ele>
        <time>2018-03-24T14:45:12Z</time>
      </trkpt>
      <trkpt lat="43.88854" lon="7.71969">
        <ele>686.466</ele>
        <time>2018-03-24T14:45:15Z</time>
      </trkpt>
      <trkpt lat="43.88851" lon="7.71968">
        <ele>687.476</ele>
        <time>2018-03-24T14:45:40Z</time>
      </trkpt>
      <trkpt lat="43.88849" lon="7.71965">
        <ele>687.595</ele>
        <time>2018-03-24T14:45:44Z</time>
      </trkpt>
      <trkpt lat="43.88847" lon="7.71963">
        <ele>687.969</ele>
        <time>2018-03-24T14:45:52Z</time>
      </trkpt>
      <trkpt lat="43.88844" lon="7.71962">
        <ele>689.659</ele>
        <time>2018-03-24T14:46:10Z</time>
      </trkpt>
      <trkpt lat="43.88841" lon="7.7196">
        <ele>690.039</ele>
        <time>2018-03-24T14:46:12Z</time>
      </trkpt>
      <trkpt lat="43.88838" lon="7.71957">
        <ele>690.509</ele>
        <time>2018-03-24T14:46:15Z</time>
      </trkpt>
      <trkpt lat="43.8884" lon="7.71954">
        <ele>691.344</ele>
        <time>2018-03-24T14:46:35Z</time>
      </trkpt>
      <trkpt lat="43.88837" lon="7.71955">
        <ele>691.84</ele>
        <time>2018-03-24T14:46:53Z</time>
      </trkpt>
      <trkpt lat="43.88834" lon="7.71955">
        <ele>692.081</ele>
        <time>2018-03-24T14:47:00Z</time>
      </trkpt>
      <trkpt lat="43.88832" lon="7.71954">
        <ele>692.556</ele>
        <time>2018-03-24T14:47:12Z</time>
      </trkpt>
      <trkpt lat="43.8883" lon="7.71951">
        <ele>692.711</ele>
        <time>2018-03-24T14:47:18Z</time>
      </trkpt>
      <trkpt lat="43.88828" lon="7.71948">
        <ele>695.317</ele>
        <time>2018-03-24T14:47:31Z</time>
      </trkpt>
      <trkpt lat="43.88826" lon="7.71945">
        <ele>698.38</ele>
        <time>2018-03-24T14:47:44Z</time>
      </trkpt>
      <trkpt lat="43.88826" lon="7.71941">
        <ele>698.573</ele>
        <time>2018-03-24T14:47:52Z</time>
      </trkpt>
      <trkpt lat="43.88826" lon="7.71937">
        <ele>699.706</ele>
        <time>2018-03-24T14:48:02Z</time>
      </trkpt>
      <trkpt lat="43.88824" lon="7.71933">
        <ele>700.527</ele>
        <time>2018-03-24T14:48:12Z</time>
      </trkpt>
      <trkpt lat="43.88821" lon="7.71931">
        <ele>701.302</ele>
        <time>2018-03-24T14:48:17Z</time>
      </trkpt>
      <trkpt lat="43.88818" lon="7.7193">
        <ele>701.769</ele>
        <time>2018-03-24T14:48:20Z</time>
      </trkpt>
      <trkpt lat="43.88815" lon="7.71931">
        <ele>701.793</ele>
        <time>2018-03-24T14:48:23Z</time>
      </trkpt>
      <trkpt lat="43.88812" lon="7.7193">
        <ele>701.358</ele>
        <time>2018-03-24T14:48:30Z</time>
      </trkpt>
      <trkpt lat="43.88812" lon="7.71934">
        <ele>701.189</ele>
        <time>2018-03-24T14:48:47Z</time>
      </trkpt>
      <trkpt lat="43.88809" lon="7.71933">
        <ele>703.467</ele>
        <time>2018-03-24T14:48:56Z</time>
      </trkpt>
      <trkpt lat="43.88805" lon="7.71933">
        <ele>704.072</ele>
        <time>2018-03-24T14:49:00Z</time>
      </trkpt>
      <trkpt lat="43.88802" lon="7.71932">
        <ele>704.296</ele>
        <time>2018-03-24T14:49:05Z</time>
      </trkpt>
      <trkpt lat="43.88799" lon="7.71931">
        <ele>705.226</ele>
        <time>2018-03-24T14:49:10Z</time>
      </trkpt>
      <trkpt lat="43.88798" lon="7.71928">
        <ele>708.667</ele>
        <time>2018-03-24T14:49:31Z</time>
      </trkpt>
      <trkpt lat="43.88794" lon="7.71927">
        <ele>708.98</ele>
        <time>2018-03-24T14:49:34Z</time>
      </trkpt>
      <trkpt lat="43.88792" lon="7.71925">
        <ele>709.469</ele>
        <time>2018-03-24T14:49:37Z</time>
      </trkpt>
      <trkpt lat="43.88789" lon="7.71922">
        <ele>709.665</ele>
        <time>2018-03-24T14:49:39Z</time>
      </trkpt>
      <trkpt lat="43.88786" lon="7.71918">
        <ele>710.03</ele>
        <time>2018-03-24T14:49:42Z</time>
      </trkpt>
      <trkpt lat="43.88783" lon="7.71915">
        <ele>710.602</ele>
        <time>2018-03-24T14:49:48Z</time>
      </trkpt>
      <trkpt lat="43.88782" lon="7.71912">
        <ele>710.702</ele>
        <time>2018-03-24T14:49:55Z</time>
      </trkpt>
      <trkpt lat="43.88782" lon="7.71908">
        <ele>711.088</ele>
        <time>2018-03-24T14:50:06Z</time>
      </trkpt>
      <trkpt lat="43.88784" lon="7.71905">
        <ele>711.108</ele>
        <time>2018-03-24T14:50:11Z</time>
      </trkpt>
      <trkpt lat="43.88785" lon="7.71901">
        <ele>711.112</ele>
        <time>2018-03-24T14:50:18Z</time>
      </trkpt>
      <trkpt lat="43.88782" lon="7.71901">
        <ele>710.828</ele>
        <time>2018-03-24T14:50:30Z</time>
      </trkpt>
      <trkpt lat="43.8878" lon="7.71902">
        <ele>711.091</ele>
        <time>2018-03-24T14:50:42Z</time>
      </trkpt>
      <trkpt lat="43.88777" lon="7.71902">
        <ele>711.508</ele>
        <time>2018-03-24T14:50:51Z</time>
      </trkpt>
      <trkpt lat="43.88775" lon="7.71899">
        <ele>711.753</ele>
        <time>2018-03-24T14:50:59Z</time>
      </trkpt>
      <trkpt lat="43.88773" lon="7.71896">
        <ele>711.898</ele>
        <time>2018-03-24T14:51:29Z</time>
      </trkpt>
      <trkpt lat="43.8877" lon="7.71896">
        <ele>711.816</ele>
        <time>2018-03-24T14:51:33Z</time>
      </trkpt>
      <trkpt lat="43.88768" lon="7.71894">
        <ele>711.778</ele>
        <time>2018-03-24T14:51:39Z</time>
      </trkpt>
      <trkpt lat="43.88765" lon="7.71892">
        <ele>711.779</ele>
        <time>2018-03-24T14:51:43Z</time>
      </trkpt>
      <trkpt lat="43.88764" lon="7.71888">
        <ele>710.872</ele>
        <time>2018-03-24T14:51:51Z</time>
      </trkpt>
      <trkpt lat="43.88761" lon="7.71885">
        <ele>710.532</ele>
        <time>2018-03-24T14:51:54Z</time>
      </trkpt>
      <trkpt lat="43.88758" lon="7.71883">
        <ele>710.442</ele>
        <time>2018-03-24T14:51:58Z</time>
      </trkpt>
      <trkpt lat="43.8876" lon="7.71881">
        <ele>711.003</ele>
        <time>2018-03-24T14:52:23Z</time>
      </trkpt>
      <trkpt lat="43.88758" lon="7.71878">
        <ele>712.62</ele>
        <time>2018-03-24T14:52:30Z</time>
      </trkpt>
      <trkpt lat="43.88756" lon="7.71875">
        <ele>713.243</ele>
        <time>2018-03-24T14:52:34Z</time>
      </trkpt>
      <trkpt lat="43.88754" lon="7.71872">
        <ele>713.515</ele>
        <time>2018-03-24T14:52:36Z</time>
      </trkpt>
      <trkpt lat="43.88752" lon="7.71869">
        <ele>713.809</ele>
        <time>2018-03-24T14:52:44Z</time>
      </trkpt>
      <trkpt lat="43.8875" lon="7.71866">
        <ele>713.815</ele>
        <time>2018-03-24T14:52:49Z</time>
      </trkpt>
      <trkpt lat="43.8875" lon="7.71862">
        <ele>713.808</ele>
        <time>2018-03-24T14:52:52Z</time>
      </trkpt>
      <trkpt lat="43.88751" lon="7.71858">
        <ele>713.869</ele>
        <time>2018-03-24T14:52:57Z</time>
      </trkpt>
      <trkpt lat="43.88751" lon="7.71854">
        <ele>714.683</ele>
        <time>2018-03-24T14:53:08Z</time>
      </trkpt>
      <trkpt lat="43.88755" lon="7.71858">
        <ele>715.603</ele>
        <time>2018-03-24T14:53:22Z</time>
      </trkpt>
      <trkpt lat="43.88753" lon="7.71862">
        <ele>716.658</ele>
        <time>2018-03-24T14:53:29Z</time>
      </trkpt>
      <trkpt lat="43.8875" lon="7.71862">
        <ele>716.99</ele>
        <time>2018-03-24T14:53:47Z</time>
      </trkpt>
      <trkpt lat="43.88751" lon="7.71866">
        <ele>716.831</ele>
        <time>2018-03-24T14:54:00Z</time>
      </trkpt>
      <trkpt lat="43.88749" lon="7.71864">
        <ele>718.372</ele>
        <time>2018-03-24T14:54:26Z</time>
      </trkpt>
      <trkpt lat="43.88747" lon="7.71861">
        <ele>718.57</ele>
        <time>2018-03-24T14:54:33Z</time>
      </trkpt>
      <trkpt lat="43.88745" lon="7.71858">
        <ele>718.614</ele>
        <time>2018-03-24T14:54:37Z</time>
      </trkpt>
      <trkpt lat="43.88746" lon="7.71854">
        <ele>718.699</ele>
        <time>2018-03-24T14:54:41Z</time>
      </trkpt>
      <trkpt lat="43.88749" lon="7.71851">
        <ele>719.044</ele>
        <time>2018-03-24T14:54:49Z</time>
      </trkpt>
      <trkpt lat="43.8875" lon="7.71848">
        <ele>719.406</ele>
        <time>2018-03-24T14:54:55Z</time>
      </trkpt>
      <trkpt lat="43.88753" lon="7.71845">
        <ele>720.421</ele>
        <time>2018-03-24T14:55:03Z</time>
      </trkpt>
      <trkpt lat="43.8875" lon="7.71843">
        <ele>721.76</ele>
        <time>2018-03-24T14:55:06Z</time>
      </trkpt>
      <trkpt lat="43.88753" lon="7.71845">
        <ele>722.395</ele>
        <time>2018-03-24T14:55:18Z</time>
      </trkpt>
      <trkpt lat="43.88755" lon="7.71848">
        <ele>722.408</ele>
        <time>2018-03-24T14:55:20Z</time>
      </trkpt>
      <trkpt lat="43.88756" lon="7.71852">
        <ele>722.434</ele>
        <time>2018-03-24T14:55:22Z</time>
      </trkpt>
      <trkpt lat="43.88754" lon="7.71856">
        <ele>722.716</ele>
        <time>2018-03-24T14:55:29Z</time>
      </trkpt>
      <trkpt lat="43.88751" lon="7.71856">
        <ele>722.712</ele>
        <time>2018-03-24T14:55:36Z</time>
      </trkpt>
      <trkpt lat="43.88749" lon="7.71854">
        <ele>722.798</ele>
        <time>2018-03-24T14:55:45Z</time>
      </trkpt>
      <trkpt lat="43.88747" lon="7.71851">
        <ele>722.493</ele>
        <time>2018-03-24T14:55:55Z</time>
      </trkpt>
      <trkpt lat="43.88744" lon="7.71849">
        <ele>722.186</ele>
        <time>2018-03-24T14:56:11Z</time>
      </trkpt>
      <trkpt lat="43.88741" lon="7.7185">
        <ele>722.105</ele>
        <time>2018-03-24T14:56:18Z</time>
      </trkpt>
      <trkpt lat="43.88738" lon="7.71849">
        <ele>721.658</ele>
        <time>2018-03-24T14:56:22Z</time>
      </trkpt>
      <trkpt lat="43.88736" lon="7.71847">
        <ele>721.724</ele>
        <time>2018-03-24T14:56:25Z</time>
      </trkpt>
      <trkpt lat="43.88736" lon="7.71843">
        <ele>721.98</ele>
        <time>2018-03-24T14:56:46Z</time>
      </trkpt>
      <trkpt lat="43.88739" lon="7.71841">
        <ele>722.34</ele>
        <time>2018-03-24T14:56:53Z</time>
      </trkpt>
      <trkpt lat="43.88736" lon="7.71841">
        <ele>723.848</ele>
        <time>2018-03-24T14:57:03Z</time>
      </trkpt>
      <trkpt lat="43.88733" lon="7.71838">
        <ele>723.999</ele>
        <time>2018-03-24T14:57:06Z</time>
      </trkpt>
      <trkpt lat="43.88727" lon="7.71836">
        <ele>724.071</ele>
        <time>2018-03-24T14:57:09Z</time>
      </trkpt>
      <trkpt lat="43.88724" lon="7.71835">
        <ele>723.953</ele>
        <time>2018-03-24T14:57:14Z</time>
      </trkpt>
      <trkpt lat="43.88724" lon="7.71832">
        <ele>723.789</ele>
        <time>2018-03-24T14:57:21Z</time>
      </trkpt>
      <trkpt lat="43.88721" lon="7.71833">
        <ele>722.881</ele>
        <time>2018-03-24T14:58:14Z</time>
      </trkpt>
      <trkpt lat="43.88718" lon="7.71834">
        <ele>723.074</ele>
        <time>2018-03-24T14:58:22Z</time>
      </trkpt>
      <trkpt lat="43.88715" lon="7.71834">
        <ele>723.181</ele>
        <time>2018-03-24T14:58:24Z</time>
      </trkpt>
      <trkpt lat="43.88713" lon="7.71831">
        <ele>723.501</ele>
        <time>2018-03-24T14:58:27Z</time>
      </trkpt>
      <trkpt lat="43.88711" lon="7.71827">
        <ele>723.378</ele>
        <time>2018-03-24T14:58:37Z</time>
      </trkpt>
      <trkpt lat="43.8871" lon="7.71824">
        <ele>723.182</ele>
        <time>2018-03-24T14:58:59Z</time>
      </trkpt>
      <trkpt lat="43.88707" lon="7.71822">
        <ele>723.741</ele>
        <time>2018-03-24T14:59:06Z</time>
      </trkpt>
      <trkpt lat="43.88706" lon="7.71819">
        <ele>724.161</ele>
        <time>2018-03-24T14:59:27Z</time>
      </trkpt>
      <trkpt lat="43.88705" lon="7.71814">
        <ele>724.306</ele>
        <time>2018-03-24T14:59:32Z</time>
      </trkpt>
      <trkpt lat="43.88705" lon="7.7181">
        <ele>724.493</ele>
        <time>2018-03-24T14:59:36Z</time>
      </trkpt>
      <trkpt lat="43.88704" lon="7.71807">
        <ele>725.12</ele>
        <time>2018-03-24T14:59:43Z</time>
      </trkpt>
      <trkpt lat="43.88703" lon="7.71811">
        <ele>727.619</ele>
        <time>2018-03-24T15:00:02Z</time>
      </trkpt>
      <trkpt lat="43.887" lon="7.71809">
        <ele>728.96</ele>
        <time>2018-03-24T15:00:10Z</time>
      </trkpt>
      <trkpt lat="43.88698" lon="7.71807">
        <ele>729.438</ele>
        <time>2018-03-24T15:00:13Z</time>
      </trkpt>
      <trkpt lat="43.88696" lon="7.71803">
        <ele>729.681</ele>
        <time>2018-03-24T15:00:18Z</time>
      </trkpt>
      <trkpt lat="43.88694" lon="7.71801">
        <ele>730.011</ele>
        <time>2018-03-24T15:00:27Z</time>
      </trkpt>
      <trkpt lat="43.88692" lon="7.71802">
        <ele>729.945</ele>
        <time>2018-03-24T15:00:44Z</time>
      </trkpt>
      <trkpt lat="43.88688" lon="7.71801">
        <ele>730.29</ele>
        <time>2018-03-24T15:00:49Z</time>
      </trkpt>
      <trkpt lat="43.88685" lon="7.718">
        <ele>730.356</ele>
        <time>2018-03-24T15:00:52Z</time>
      </trkpt>
      <trkpt lat="43.88688" lon="7.718">
        <ele>730.267</ele>
        <time>2018-03-24T15:00:59Z</time>
      </trkpt>
      <trkpt lat="43.88688" lon="7.71796">
        <ele>730.446</ele>
        <time>2018-03-24T15:01:10Z</time>
      </trkpt>
      <trkpt lat="43.88687" lon="7.718">
        <ele>731.08</ele>
        <time>2018-03-24T15:01:27Z</time>
      </trkpt>
      <trkpt lat="43.88685" lon="7.718">
        <ele>731.505</ele>
        <time>2018-03-24T15:01:30Z</time>
      </trkpt>
      <trkpt lat="43.88682" lon="7.71796">
        <ele>731.521</ele>
        <time>2018-03-24T15:01:37Z</time>
      </trkpt>
      <trkpt lat="43.88678" lon="7.71795">
        <ele>731.521</ele>
        <time>2018-03-24T15:01:39Z</time>
      </trkpt>
      <trkpt lat="43.88674" lon="7.71795">
        <ele>731.534</ele>
        <time>2018-03-24T15:01:41Z</time>
      </trkpt>
      <trkpt lat="43.88678" lon="7.71794">
        <ele>731.593</ele>
        <time>2018-03-24T15:01:47Z</time>
      </trkpt>
      <trkpt lat="43.88681" lon="7.71792">
        <ele>731.606</ele>
        <time>2018-03-24T15:01:49Z</time>
      </trkpt>
      <trkpt lat="43.88683" lon="7.7179">
        <ele>731.619</ele>
        <time>2018-03-24T15:01:52Z</time>
      </trkpt>
      <trkpt lat="43.88683" lon="7.71786">
        <ele>731.746</ele>
        <time>2018-03-24T15:02:01Z</time>
      </trkpt>
      <trkpt lat="43.88681" lon="7.71783">
        <ele>732.235</ele>
        <time>2018-03-24T15:02:08Z</time>
      </trkpt>
      <trkpt lat="43.88679" lon="7.71781">
        <ele>732.817</ele>
        <time>2018-03-24T15:02:12Z</time>
      </trkpt>
      <trkpt lat="43.88676" lon="7.7178">
        <ele>732.871</ele>
        <time>2018-03-24T15:02:13Z</time>
      </trkpt>
      <trkpt lat="43.88673" lon="7.71782">
        <ele>733.06</ele>
        <time>2018-03-24T15:02:19Z</time>
      </trkpt>
      <trkpt lat="43.8867" lon="7.71784">
        <ele>733.147</ele>
        <time>2018-03-24T15:02:25Z</time>
      </trkpt>
      <trkpt lat="43.88667" lon="7.71784">
        <ele>735.422</ele>
        <time>2018-03-24T15:02:45Z</time>
      </trkpt>
      <trkpt lat="43.88665" lon="7.71784">
        <ele>735.273</ele>
        <time>2018-03-24T15:02:55Z</time>
      </trkpt>
      <trkpt lat="43.88662" lon="7.71783">
        <ele>735.764</ele>
        <time>2018-03-24T15:03:12Z</time>
      </trkpt>
      <trkpt lat="43.88659" lon="7.71781">
        <ele>737.849</ele>
        <time>2018-03-24T15:03:50Z</time>
      </trkpt>
      <trkpt lat="43.8866" lon="7.71774">
        <ele>738.167</ele>
        <time>2018-03-24T15:03:53Z</time>
      </trkpt>
      <trkpt lat="43.88657" lon="7.71771">
        <ele>738.668</ele>
        <time>2018-03-24T15:03:56Z</time>
      </trkpt>
      <trkpt lat="43.88654" lon="7.71769">
        <ele>738.801</ele>
        <time>2018-03-24T15:03:59Z</time>
      </trkpt>
      <trkpt lat="43.88654" lon="7.71764">
        <ele>738.889</ele>
        <time>2018-03-24T15:04:07Z</time>
      </trkpt>
      <trkpt lat="43.88653" lon="7.71759">
        <ele>739.025</ele>
        <time>2018-03-24T15:04:13Z</time>
      </trkpt>
      <trkpt lat="43.88654" lon="7.71756">
        <ele>739.16</ele>
        <time>2018-03-24T15:04:16Z</time>
      </trkpt>
      <trkpt lat="43.88655" lon="7.7176">
        <ele>740.789</ele>
        <time>2018-03-24T15:04:30Z</time>
      </trkpt>
      <trkpt lat="43.88655" lon="7.71764">
        <ele>740.924</ele>
        <time>2018-03-24T15:04:35Z</time>
      </trkpt>
      <trkpt lat="43.88653" lon="7.71761">
        <ele>740.144</ele>
        <time>2018-03-24T15:04:52Z</time>
      </trkpt>
      <trkpt lat="43.88651" lon="7.71758">
        <ele>740.075</ele>
        <time>2018-03-24T15:04:55Z</time>
      </trkpt>
      <trkpt lat="43.88648" lon="7.71755">
        <ele>740.458</ele>
        <time>2018-03-24T15:04:58Z</time>
      </trkpt>
      <trkpt lat="43.88645" lon="7.71751">
        <ele>740.286</ele>
        <time>2018-03-24T15:05:11Z</time>
      </trkpt>
      <trkpt lat="43.88643" lon="7.71746">
        <ele>740.24</ele>
        <time>2018-03-24T15:05:13Z</time>
      </trkpt>
      <trkpt lat="43.8864" lon="7.71744">
        <ele>740.09</ele>
        <time>2018-03-24T15:05:16Z</time>
      </trkpt>
      <trkpt lat="43.88638" lon="7.7174">
        <ele>740.086</ele>
        <time>2018-03-24T15:05:21Z</time>
      </trkpt>
      <trkpt lat="43.88636" lon="7.71737">
        <ele>740.304</ele>
        <time>2018-03-24T15:05:26Z</time>
      </trkpt>
      <trkpt lat="43.88633" lon="7.71734">
        <ele>740.367</ele>
        <time>2018-03-24T15:05:30Z</time>
      </trkpt>
      <trkpt lat="43.88629" lon="7.71734">
        <ele>742.429</ele>
        <time>2018-03-24T15:06:03Z</time>
      </trkpt>
      <trkpt lat="43.88626" lon="7.71731">
        <ele>742.612</ele>
        <time>2018-03-24T15:06:06Z</time>
      </trkpt>
      <trkpt lat="43.88623" lon="7.71729">
        <ele>742.901</ele>
        <time>2018-03-24T15:06:09Z</time>
      </trkpt>
      <trkpt lat="43.88621" lon="7.71728">
        <ele>743.103</ele>
        <time>2018-03-24T15:06:12Z</time>
      </trkpt>
      <trkpt lat="43.88619" lon="7.71725">
        <ele>744.241</ele>
        <time>2018-03-24T15:06:18Z</time>
      </trkpt>
      <trkpt lat="43.88616" lon="7.71723">
        <ele>745.178</ele>
        <time>2018-03-24T15:06:22Z</time>
      </trkpt>
      <trkpt lat="43.88617" lon="7.71718">
        <ele>746.27</ele>
        <time>2018-03-24T15:06:35Z</time>
      </trkpt>
      <trkpt lat="43.88615" lon="7.71713">
        <ele>746.697</ele>
        <time>2018-03-24T15:06:37Z</time>
      </trkpt>
      <trkpt lat="43.88613" lon="7.7171">
        <ele>747.29</ele>
        <time>2018-03-24T15:06:40Z</time>
      </trkpt>
      <trkpt lat="43.88614" lon="7.71714">
        <ele>747.906</ele>
        <time>2018-03-24T15:06:52Z</time>
      </trkpt>
      <trkpt lat="43.88608" lon="7.71712">
        <ele>748.463</ele>
        <time>2018-03-24T15:07:01Z</time>
      </trkpt>
      <trkpt lat="43.88605" lon="7.71708">
        <ele>748.639</ele>
        <time>2018-03-24T15:07:03Z</time>
      </trkpt>
      <trkpt lat="43.88607" lon="7.71705">
        <ele>749.142</ele>
        <time>2018-03-24T15:07:22Z</time>
      </trkpt>
      <trkpt lat="43.88605" lon="7.71702">
        <ele>750.819</ele>
        <time>2018-03-24T15:07:38Z</time>
      </trkpt>
      <trkpt lat="43.88603" lon="7.71699">
        <ele>751.248</ele>
        <time>2018-03-24T15:07:42Z</time>
      </trkpt>
      <trkpt lat="43.886" lon="7.717">
        <ele>751.566</ele>
        <time>2018-03-24T15:08:01Z</time>
      </trkpt>
      <trkpt lat="43.88599" lon="7.71696">
        <ele>751.378</ele>
        <time>2018-03-24T15:08:18Z</time>
      </trkpt>
      <trkpt lat="43.88596" lon="7.71694">
        <ele>752.394</ele>
        <time>2018-03-24T15:08:30Z</time>
      </trkpt>
      <trkpt lat="43.88593" lon="7.71694">
        <ele>752.863</ele>
        <time>2018-03-24T15:08:34Z</time>
      </trkpt>
      <trkpt lat="43.8859" lon="7.71693">
        <ele>752.922</ele>
        <time>2018-03-24T15:08:40Z</time>
      </trkpt>
      <trkpt lat="43.8859" lon="7.7169">
        <ele>755.147</ele>
        <time>2018-03-24T15:10:42Z</time>
      </trkpt>
      <trkpt lat="43.88588" lon="7.71693">
        <ele>755.584</ele>
        <time>2018-03-24T15:11:13Z</time>
      </trkpt>
      <trkpt lat="43.88588" lon="7.71698">
        <ele>755.901</ele>
        <time>2018-03-24T15:11:17Z</time>
      </trkpt>
      <trkpt lat="43.88589" lon="7.71702">
        <ele>756.175</ele>
        <time>2018-03-24T15:11:39Z</time>
      </trkpt>
      <trkpt lat="43.88592" lon="7.71703">
        <ele>756.744</ele>
        <time>2018-03-24T15:12:29Z</time>
      </trkpt>
      <trkpt lat="43.88593" lon="7.71706">
        <ele>758.498</ele>
        <time>2018-03-24T15:13:04Z</time>
      </trkpt>
      <trkpt lat="43.88593" lon="7.71711">
        <ele>758.544</ele>
        <time>2018-03-24T15:13:06Z</time>
      </trkpt>
      <trkpt lat="43.88593" lon="7.71715">
        <ele>758.666</ele>
        <time>2018-03-24T15:13:09Z</time>
      </trkpt>
      <trkpt lat="43.88593" lon="7.71712">
        <ele>759.895</ele>
        <time>2018-03-24T15:13:36Z</time>
      </trkpt>
      <trkpt lat="43.88596" lon="7.71716">
        <ele>759.793</ele>
        <time>2018-03-24T15:13:46Z</time>
      </trkpt>
      <trkpt lat="43.88597" lon="7.7172">
        <ele>759.741</ele>
        <time>2018-03-24T15:13:49Z</time>
      </trkpt>
      <trkpt lat="43.88597" lon="7.71724">
        <ele>759.786</ele>
        <time>2018-03-24T15:13:53Z</time>
      </trkpt>
      <trkpt lat="43.88596" lon="7.71729">
        <ele>759.937</ele>
        <time>2018-03-24T15:13:56Z</time>
      </trkpt>
      <trkpt lat="43.88596" lon="7.71733">
        <ele>760.086</ele>
        <time>2018-03-24T15:14:00Z</time>
      </trkpt>
      <trkpt lat="43.88594" lon="7.71737">
        <ele>760.99</ele>
        <time>2018-03-24T15:14:11Z</time>
      </trkpt>
      <trkpt lat="43.88593" lon="7.71742">
        <ele>761.377</ele>
        <time>2018-03-24T15:14:14Z</time>
      </trkpt>
      <trkpt lat="43.88593" lon="7.71746">
        <ele>762.294</ele>
        <time>2018-03-24T15:14:19Z</time>
      </trkpt>
      <trkpt lat="43.88593" lon="7.71751">
        <ele>762.762</ele>
        <time>2018-03-24T15:14:22Z</time>
      </trkpt>
      <trkpt lat="43.88593" lon="7.71754">
        <ele>763.058</ele>
        <time>2018-03-24T15:14:25Z</time>
      </trkpt>
      <trkpt lat="43.88593" lon="7.71758">
        <ele>763.211</ele>
        <time>2018-03-24T15:14:28Z</time>
      </trkpt>
      <trkpt lat="43.88593" lon="7.71762">
        <ele>763.556</ele>
        <time>2018-03-24T15:14:31Z</time>
      </trkpt>
      <trkpt lat="43.88596" lon="7.71763">
        <ele>764.525</ele>
        <time>2018-03-24T15:14:43Z</time>
      </trkpt>
      <trkpt lat="43.88597" lon="7.71767">
        <ele>765.567</ele>
        <time>2018-03-24T15:14:49Z</time>
      </trkpt>
      <trkpt lat="43.88598" lon="7.7177">
        <ele>766.079</ele>
        <time>2018-03-24T15:14:52Z</time>
      </trkpt>
      <trkpt lat="43.88599" lon="7.71775">
        <ele>766.913</ele>
        <time>2018-03-24T15:14:56Z</time>
      </trkpt>
      <trkpt lat="43.88599" lon="7.71779">
        <ele>767.519</ele>
        <time>2018-03-24T15:15:00Z</time>
      </trkpt>
      <trkpt lat="43.886" lon="7.71783">
        <ele>767.989</ele>
        <time>2018-03-24T15:15:04Z</time>
      </trkpt>
      <trkpt lat="43.88601" lon="7.71787">
        <ele>768.445</ele>
        <time>2018-03-24T15:15:07Z</time>
      </trkpt>
      <trkpt lat="43.88603" lon="7.71789">
        <ele>769.198</ele>
        <time>2018-03-24T15:15:13Z</time>
      </trkpt>
      <trkpt lat="43.88605" lon="7.71793">
        <ele>770.753</ele>
        <time>2018-03-24T15:15:29Z</time>
      </trkpt>
      <trkpt lat="43.88603" lon="7.71797">
        <ele>770.987</ele>
        <time>2018-03-24T15:15:32Z</time>
      </trkpt>
      <trkpt lat="43.88603" lon="7.71802">
        <ele>771.487</ele>
        <time>2018-03-24T15:15:36Z</time>
      </trkpt>
      <trkpt lat="43.88603" lon="7.71806">
        <ele>772.164</ele>
        <time>2018-03-24T15:15:43Z</time>
      </trkpt>
      <trkpt lat="43.88603" lon="7.7181">
        <ele>772.923</ele>
        <time>2018-03-24T15:15:48Z</time>
      </trkpt>
      <trkpt lat="43.88604" lon="7.71814">
        <ele>773.442</ele>
        <time>2018-03-24T15:15:51Z</time>
      </trkpt>
      <trkpt lat="43.88603" lon="7.71818">
        <ele>774.042</ele>
        <time>2018-03-24T15:15:54Z</time>
      </trkpt>
      <trkpt lat="43.88603" lon="7.71822">
        <ele>775.161</ele>
        <time>2018-03-24T15:16:02Z</time>
      </trkpt>
      <trkpt lat="43.88603" lon="7.71827">
        <ele>776.248</ele>
        <time>2018-03-24T15:16:07Z</time>
      </trkpt>
      <trkpt lat="43.88603" lon="7.71831">
        <ele>779.04</ele>
        <time>2018-03-24T15:16:30Z</time>
      </trkpt>
      <trkpt lat="43.88605" lon="7.71836">
        <ele>780.412</ele>
        <time>2018-03-24T15:16:35Z</time>
      </trkpt>
      <trkpt lat="43.88608" lon="7.71839">
        <ele>780.796</ele>
        <time>2018-03-24T15:16:38Z</time>
      </trkpt>
      <trkpt lat="43.88608" lon="7.71843">
        <ele>781.494</ele>
        <time>2018-03-24T15:16:43Z</time>
      </trkpt>
      <trkpt lat="43.8861" lon="7.71847">
        <ele>782.082</ele>
        <time>2018-03-24T15:16:48Z</time>
      </trkpt>
      <trkpt lat="43.88612" lon="7.71849">
        <ele>782.613</ele>
        <time>2018-03-24T15:16:51Z</time>
      </trkpt>
      <trkpt lat="43.88615" lon="7.71852">
        <ele>783.472</ele>
        <time>2018-03-24T15:16:55Z</time>
      </trkpt>
      <trkpt lat="43.88616" lon="7.71855">
        <ele>785.853</ele>
        <time>2018-03-24T15:17:11Z</time>
      </trkpt>
      <trkpt lat="43.88618" lon="7.7186">
        <ele>786.437</ele>
        <time>2018-03-24T15:17:14Z</time>
      </trkpt>
      <trkpt lat="43.8862" lon="7.71863">
        <ele>788.253</ele>
        <time>2018-03-24T15:17:33Z</time>
      </trkpt>
      <trkpt lat="43.88623" lon="7.71865">
        <ele>788.639</ele>
        <time>2018-03-24T15:17:35Z</time>
      </trkpt>
      <trkpt lat="43.88625" lon="7.71868">
        <ele>789.446</ele>
        <time>2018-03-24T15:17:53Z</time>
      </trkpt>
      <trkpt lat="43.88626" lon="7.71873">
        <ele>790.572</ele>
        <time>2018-03-24T15:18:08Z</time>
      </trkpt>
      <trkpt lat="43.88626" lon="7.71877">
        <ele>791.071</ele>
        <time>2018-03-24T15:18:13Z</time>
      </trkpt>
      <trkpt lat="43.88625" lon="7.7188">
        <ele>791.606</ele>
        <time>2018-03-24T15:18:17Z</time>
      </trkpt>
      <trkpt lat="43.88626" lon="7.71885">
        <ele>792.005</ele>
        <time>2018-03-24T15:18:28Z</time>
      </trkpt>
      <trkpt lat="43.88627" lon="7.7189">
        <ele>792.209</ele>
        <time>2018-03-24T15:18:30Z</time>
      </trkpt>
      <trkpt lat="43.88629" lon="7.71893">
        <ele>792.765</ele>
        <time>2018-03-24T15:18:33Z</time>
      </trkpt>
      <trkpt lat="43.8863" lon="7.71898">
        <ele>793.664</ele>
        <time>2018-03-24T15:18:37Z</time>
      </trkpt>
      <trkpt lat="43.88631" lon="7.71902">
        <ele>794.941</ele>
        <time>2018-03-24T15:18:50Z</time>
      </trkpt>
      <trkpt lat="43.88632" lon="7.71906">
        <ele>795.607</ele>
        <time>2018-03-24T15:18:54Z</time>
      </trkpt>
      <trkpt lat="43.88634" lon="7.71909">
        <ele>796.214</ele>
        <time>2018-03-24T15:19:05Z</time>
      </trkpt>
      <trkpt lat="43.88636" lon="7.71913">
        <ele>797.388</ele>
        <time>2018-03-24T15:19:17Z</time>
      </trkpt>
      <trkpt lat="43.88637" lon="7.71917">
        <ele>797.618</ele>
        <time>2018-03-24T15:19:19Z</time>
      </trkpt>
      <trkpt lat="43.88639" lon="7.7192">
        <ele>797.889</ele>
        <time>2018-03-24T15:19:21Z</time>
      </trkpt>
      <trkpt lat="43.8864" lon="7.71923">
        <ele>798.341</ele>
        <time>2018-03-24T15:19:24Z</time>
      </trkpt>
      <trkpt lat="43.88643" lon="7.71927">
        <ele>798.821</ele>
        <time>2018-03-24T15:19:27Z</time>
      </trkpt>
      <trkpt lat="43.88645" lon="7.71931">
        <ele>799.31</ele>
        <time>2018-03-24T15:19:30Z</time>
      </trkpt>
      <trkpt lat="43.88647" lon="7.71935">
        <ele>799.811</ele>
        <time>2018-03-24T15:19:33Z</time>
      </trkpt>
      <trkpt lat="43.8865" lon="7.71939">
        <ele>800.101</ele>
        <time>2018-03-24T15:19:35Z</time>
      </trkpt>
      <trkpt lat="43.88653" lon="7.71942">
        <ele>800.53</ele>
        <time>2018-03-24T15:19:38Z</time>
      </trkpt>
      <trkpt lat="43.88655" lon="7.71945">
        <ele>800.971</ele>
        <time>2018-03-24T15:19:41Z</time>
      </trkpt>
      <trkpt lat="43.88658" lon="7.71949">
        <ele>801.219</ele>
        <time>2018-03-24T15:19:44Z</time>
      </trkpt>
      <trkpt lat="43.8866" lon="7.71953">
        <ele>801.575</ele>
        <time>2018-03-24T15:19:47Z</time>
      </trkpt>
      <trkpt lat="43.88658" lon="7.71956">
        <ele>802.024</ele>
        <time>2018-03-24T15:20:07Z</time>
      </trkpt>
      <trkpt lat="43.88659" lon="7.7196">
        <ele>802.047</ele>
        <time>2018-03-24T15:20:11Z</time>
      </trkpt>
      <trkpt lat="43.88661" lon="7.71962">
        <ele>802.184</ele>
        <time>2018-03-24T15:20:13Z</time>
      </trkpt>
      <trkpt lat="43.88663" lon="7.71966">
        <ele>802.505</ele>
        <time>2018-03-24T15:20:15Z</time>
      </trkpt>
      <trkpt lat="43.88665" lon="7.7197">
        <ele>802.714</ele>
        <time>2018-03-24T15:20:17Z</time>
      </trkpt>
      <trkpt lat="43.88666" lon="7.71974">
        <ele>802.987</ele>
        <time>2018-03-24T15:20:20Z</time>
      </trkpt>
      <trkpt lat="43.88666" lon="7.7197">
        <ele>803.322</ele>
        <time>2018-03-24T15:20:26Z</time>
      </trkpt>
      <trkpt lat="43.88665" lon="7.71975">
        <ele>803.695</ele>
        <time>2018-03-24T15:20:54Z</time>
      </trkpt>
      <trkpt lat="43.88665" lon="7.71979">
        <ele>803.962</ele>
        <time>2018-03-24T15:21:09Z</time>
      </trkpt>
      <trkpt lat="43.88666" lon="7.71983">
        <ele>803.637</ele>
        <time>2018-03-24T15:21:14Z</time>
      </trkpt>
      <trkpt lat="43.88666" lon="7.71987">
        <ele>803.497</ele>
        <time>2018-03-24T15:21:17Z</time>
      </trkpt>
      <trkpt lat="43.88666" lon="7.71991">
        <ele>803.468</ele>
        <time>2018-03-24T15:21:20Z</time>
      </trkpt>
      <trkpt lat="43.88668" lon="7.71994">
        <ele>803.612</ele>
        <time>2018-03-24T15:21:26Z</time>
      </trkpt>
      <trkpt lat="43.88669" lon="7.71997">
        <ele>803.59</ele>
        <time>2018-03-24T15:21:35Z</time>
      </trkpt>
      <trkpt lat="43.8867" lon="7.72001">
        <ele>803.721</ele>
        <time>2018-03-24T15:21:52Z</time>
      </trkpt>
      <trkpt lat="43.88674" lon="7.72006">
        <ele>804.014</ele>
        <time>2018-03-24T15:22:01Z</time>
      </trkpt>
      <trkpt lat="43.88676" lon="7.7201">
        <ele>804.137</ele>
        <time>2018-03-24T15:22:03Z</time>
      </trkpt>
      <trkpt lat="43.88677" lon="7.72013">
        <ele>804.178</ele>
        <time>2018-03-24T15:22:05Z</time>
      </trkpt>
      <trkpt lat="43.88678" lon="7.72017">
        <ele>804.489</ele>
        <time>2018-03-24T15:22:10Z</time>
      </trkpt>
      <trkpt lat="43.88679" lon="7.72021">
        <ele>805.774</ele>
        <time>2018-03-24T15:22:32Z</time>
      </trkpt>
      <trkpt lat="43.88678" lon="7.72025">
        <ele>806.106</ele>
        <time>2018-03-24T15:22:37Z</time>
      </trkpt>
      <trkpt lat="43.88678" lon="7.72029">
        <ele>806.114</ele>
        <time>2018-03-24T15:22:45Z</time>
      </trkpt>
      <trkpt lat="43.8868" lon="7.72033">
        <ele>806.163</ele>
        <time>2018-03-24T15:22:51Z</time>
      </trkpt>
      <trkpt lat="43.88682" lon="7.72035">
        <ele>806.399</ele>
        <time>2018-03-24T15:23:01Z</time>
      </trkpt>
      <trkpt lat="43.88685" lon="7.72039">
        <ele>806.966</ele>
        <time>2018-03-24T15:23:06Z</time>
      </trkpt>
      <trkpt lat="43.88686" lon="7.72044">
        <ele>807.171</ele>
        <time>2018-03-24T15:23:08Z</time>
      </trkpt>
      <trkpt lat="43.88688" lon="7.72048">
        <ele>807.312</ele>
        <time>2018-03-24T15:23:11Z</time>
      </trkpt>
      <trkpt lat="43.88689" lon="7.72052">
        <ele>807.307</ele>
        <time>2018-03-24T15:23:14Z</time>
      </trkpt>
      <trkpt lat="43.8869" lon="7.72056">
        <ele>807.174</ele>
        <time>2018-03-24T15:23:17Z</time>
      </trkpt>
      <trkpt lat="43.88691" lon="7.7206">
        <ele>807.114</ele>
        <time>2018-03-24T15:23:20Z</time>
      </trkpt>
      <trkpt lat="43.88693" lon="7.72064">
        <ele>807.24</ele>
        <time>2018-03-24T15:23:23Z</time>
      </trkpt>
      <trkpt lat="43.88696" lon="7.72066">
        <ele>807.946</ele>
        <time>2018-03-24T15:23:39Z</time>
      </trkpt>
      <trkpt lat="43.88697" lon="7.72069">
        <ele>807.956</ele>
        <time>2018-03-24T15:23:43Z</time>
      </trkpt>
      <trkpt lat="43.88698" lon="7.72073">
        <ele>807.937</ele>
        <time>2018-03-24T15:23:46Z</time>
      </trkpt>
      <trkpt lat="43.88699" lon="7.72077">
        <ele>808.258</ele>
        <time>2018-03-24T15:24:13Z</time>
      </trkpt>
      <trkpt lat="43.88699" lon="7.72082">
        <ele>808.364</ele>
        <time>2018-03-24T15:24:17Z</time>
      </trkpt>
      <trkpt lat="43.88699" lon="7.72087">
        <ele>809.768</ele>
        <time>2018-03-24T15:24:54Z</time>
      </trkpt>
      <trkpt lat="43.88701" lon="7.72091">
        <ele>810.269</ele>
        <time>2018-03-24T15:25:03Z</time>
      </trkpt>
      <trkpt lat="43.88701" lon="7.72097">
        <ele>810.234</ele>
        <time>2018-03-24T15:25:06Z</time>
      </trkpt>
      <trkpt lat="43.88701" lon="7.72102">
        <ele>810.444</ele>
        <time>2018-03-24T15:25:09Z</time>
      </trkpt>
      <trkpt lat="43.88701" lon="7.72107">
        <ele>810.671</ele>
        <time>2018-03-24T15:25:12Z</time>
      </trkpt>
      <trkpt lat="43.887" lon="7.72112">
        <ele>811.009</ele>
        <time>2018-03-24T15:25:15Z</time>
      </trkpt>
      <trkpt lat="43.887" lon="7.72117">
        <ele>811.349</ele>
        <time>2018-03-24T15:25:18Z</time>
      </trkpt>
      <trkpt lat="43.887" lon="7.72121">
        <ele>811.97</ele>
        <time>2018-03-24T15:25:22Z</time>
      </trkpt>
      <trkpt lat="43.88701" lon="7.72125">
        <ele>812.348</ele>
        <time>2018-03-24T15:25:26Z</time>
      </trkpt>
      <trkpt lat="43.88702" lon="7.72129">
        <ele>812.622</ele>
        <time>2018-03-24T15:25:36Z</time>
      </trkpt>
      <trkpt lat="43.88702" lon="7.72134">
        <ele>813.052</ele>
        <time>2018-03-24T15:25:40Z</time>
      </trkpt>
      <trkpt lat="43.88701" lon="7.72138">
        <ele>813.059</ele>
        <time>2018-03-24T15:25:43Z</time>
      </trkpt>
      <trkpt lat="43.88701" lon="7.72142">
        <ele>813.968</ele>
        <time>2018-03-24T15:25:58Z</time>
      </trkpt>
      <trkpt lat="43.887" lon="7.72146">
        <ele>814.254</ele>
        <time>2018-03-24T15:26:00Z</time>
      </trkpt>
      <trkpt lat="43.88699" lon="7.72149">
        <ele>814.579</ele>
        <time>2018-03-24T15:26:03Z</time>
      </trkpt>
      <trkpt lat="43.88698" lon="7.72153">
        <ele>814.912</ele>
        <time>2018-03-24T15:26:05Z</time>
      </trkpt>
      <trkpt lat="43.88698" lon="7.72157">
        <ele>815.271</ele>
        <time>2018-03-24T15:26:08Z</time>
      </trkpt>
      <trkpt lat="43.88698" lon="7.72162">
        <ele>815.514</ele>
        <time>2018-03-24T15:26:11Z</time>
      </trkpt>
      <trkpt lat="43.88699" lon="7.72167">
        <ele>815.696</ele>
        <time>2018-03-24T15:26:16Z</time>
      </trkpt>
      <trkpt lat="43.88699" lon="7.72171">
        <ele>815.851</ele>
        <time>2018-03-24T15:26:19Z</time>
      </trkpt>
      <trkpt lat="43.88698" lon="7.72175">
        <ele>816.076</ele>
        <time>2018-03-24T15:26:22Z</time>
      </trkpt>
      <trkpt lat="43.88697" lon="7.7218">
        <ele>816.244</ele>
        <time>2018-03-24T15:26:25Z</time>
      </trkpt>
      <trkpt lat="43.88696" lon="7.72184">
        <ele>816.613</ele>
        <time>2018-03-24T15:26:29Z</time>
      </trkpt>
      <trkpt lat="43.88696" lon="7.72188">
        <ele>816.856</ele>
        <time>2018-03-24T15:26:32Z</time>
      </trkpt>
      <trkpt lat="43.88695" lon="7.72193">
        <ele>817.112</ele>
        <time>2018-03-24T15:26:35Z</time>
      </trkpt>
      <trkpt lat="43.88698" lon="7.72195">
        <ele>817.277</ele>
        <time>2018-03-24T15:26:42Z</time>
      </trkpt>
      <trkpt lat="43.88699" lon="7.72198">
        <ele>817.724</ele>
        <time>2018-03-24T15:26:48Z</time>
      </trkpt>
      <trkpt lat="43.88698" lon="7.72203">
        <ele>818.067</ele>
        <time>2018-03-24T15:26:51Z</time>
      </trkpt>
      <trkpt lat="43.88697" lon="7.72208">
        <ele>818.583</ele>
        <time>2018-03-24T15:26:54Z</time>
      </trkpt>
      <trkpt lat="43.88696" lon="7.72212">
        <ele>818.916</ele>
        <time>2018-03-24T15:26:57Z</time>
      </trkpt>
      <trkpt lat="43.88694" lon="7.72215">
        <ele>819.353</ele>
        <time>2018-03-24T15:27:11Z</time>
      </trkpt>
      <trkpt lat="43.88695" lon="7.7222">
        <ele>819.454</ele>
        <time>2018-03-24T15:27:13Z</time>
      </trkpt>
      <trkpt lat="43.88695" lon="7.72224">
        <ele>819.814</ele>
        <time>2018-03-24T15:27:16Z</time>
      </trkpt>
      <trkpt lat="43.88693" lon="7.72227">
        <ele>820.196</ele>
        <time>2018-03-24T15:27:20Z</time>
      </trkpt>
      <trkpt lat="43.88692" lon="7.72231">
        <ele>820.667</ele>
        <time>2018-03-24T15:27:30Z</time>
      </trkpt>
      <trkpt lat="43.88692" lon="7.72236">
        <ele>821.14</ele>
        <time>2018-03-24T15:27:35Z</time>
      </trkpt>
      <trkpt lat="43.88692" lon="7.7224">
        <ele>822.457</ele>
        <time>2018-03-24T15:27:51Z</time>
      </trkpt>
      <trkpt lat="43.88694" lon="7.72243">
        <ele>823.495</ele>
        <time>2018-03-24T15:27:55Z</time>
      </trkpt>
      <trkpt lat="43.88695" lon="7.72248">
        <ele>824.383</ele>
        <time>2018-03-24T15:28:02Z</time>
      </trkpt>
      <trkpt lat="43.88696" lon="7.72252">
        <ele>824.484</ele>
        <time>2018-03-24T15:28:04Z</time>
      </trkpt>
      <trkpt lat="43.88697" lon="7.72257">
        <ele>824.635</ele>
        <time>2018-03-24T15:28:08Z</time>
      </trkpt>
      <trkpt lat="43.88697" lon="7.72262">
        <ele>824.766</ele>
        <time>2018-03-24T15:28:10Z</time>
      </trkpt>
      <trkpt lat="43.88698" lon="7.72266">
        <ele>825.105</ele>
        <time>2018-03-24T15:28:13Z</time>
      </trkpt>
      <trkpt lat="43.88699" lon="7.72272">
        <ele>826</ele>
        <time>2018-03-24T15:28:27Z</time>
      </trkpt>
      <trkpt lat="43.88701" lon="7.72279">
        <ele>826.433</ele>
        <time>2018-03-24T15:28:30Z</time>
      </trkpt>
      <trkpt lat="43.887" lon="7.72284">
        <ele>826.826</ele>
        <time>2018-03-24T15:28:34Z</time>
      </trkpt>
      <trkpt lat="43.887" lon="7.72288">
        <ele>827.649</ele>
        <time>2018-03-24T15:28:42Z</time>
      </trkpt>
      <trkpt lat="43.887" lon="7.72292">
        <ele>829.059</ele>
        <time>2018-03-24T15:29:08Z</time>
      </trkpt>
      <trkpt lat="43.88701" lon="7.72296">
        <ele>829.606</ele>
        <time>2018-03-24T15:29:11Z</time>
      </trkpt>
      <trkpt lat="43.88701" lon="7.72301">
        <ele>829.744</ele>
        <time>2018-03-24T15:29:14Z</time>
      </trkpt>
      <trkpt lat="43.88702" lon="7.72305">
        <ele>830.015</ele>
        <time>2018-03-24T15:29:17Z</time>
      </trkpt>
      <trkpt lat="43.88702" lon="7.72309">
        <ele>830.294</ele>
        <time>2018-03-24T15:29:20Z</time>
      </trkpt>
      <trkpt lat="43.887" lon="7.72312">
        <ele>830.349</ele>
        <time>2018-03-24T15:29:24Z</time>
      </trkpt>
      <trkpt lat="43.88701" lon="7.72316">
        <ele>830.833</ele>
        <time>2018-03-24T15:29:37Z</time>
      </trkpt>
      <trkpt lat="43.88702" lon="7.72321">
        <ele>832.062</ele>
        <time>2018-03-24T15:29:43Z</time>
      </trkpt>
      <trkpt lat="43.88698" lon="7.72321">
        <ele>833.084</ele>
        <time>2018-03-24T15:30:00Z</time>
      </trkpt>
      <trkpt lat="43.88699" lon="7.72325">
        <ele>833.922</ele>
        <time>2018-03-24T15:30:10Z</time>
      </trkpt>
      <trkpt lat="43.88697" lon="7.72329">
        <ele>834.289</ele>
        <time>2018-03-24T15:30:20Z</time>
      </trkpt>
      <trkpt lat="43.88699" lon="7.72332">
        <ele>835.619</ele>
        <time>2018-03-24T15:30:40Z</time>
      </trkpt>
      <trkpt lat="43.88701" lon="7.72334">
        <ele>835.745</ele>
        <time>2018-03-24T15:30:42Z</time>
      </trkpt>
      <trkpt lat="43.88699" lon="7.72335">
        <ele>836.864</ele>
        <time>2018-03-24T15:30:51Z</time>
      </trkpt>
      <trkpt lat="43.88701" lon="7.72337">
        <ele>837.597</ele>
        <time>2018-03-24T15:31:05Z</time>
      </trkpt>
      <trkpt lat="43.88704" lon="7.72339">
        <ele>838.316</ele>
        <time>2018-03-24T15:31:12Z</time>
      </trkpt>
      <trkpt lat="43.88705" lon="7.72343">
        <ele>838.442</ele>
        <time>2018-03-24T15:31:16Z</time>
      </trkpt>
      <trkpt lat="43.88706" lon="7.72347">
        <ele>838.537</ele>
        <time>2018-03-24T15:31:18Z</time>
      </trkpt>
      <trkpt lat="43.88708" lon="7.72349">
        <ele>838.695</ele>
        <time>2018-03-24T15:31:21Z</time>
      </trkpt>
      <trkpt lat="43.88708" lon="7.72353">
        <ele>839.786</ele>
        <time>2018-03-24T15:31:35Z</time>
      </trkpt>
      <trkpt lat="43.88709" lon="7.72357">
        <ele>840.312</ele>
        <time>2018-03-24T15:31:39Z</time>
      </trkpt>
      <trkpt lat="43.8871" lon="7.72361">
        <ele>840.874</ele>
        <time>2018-03-24T15:31:43Z</time>
      </trkpt>
      <trkpt lat="43.88713" lon="7.72363">
        <ele>841.958</ele>
        <time>2018-03-24T15:31:56Z</time>
      </trkpt>
      <trkpt lat="43.88715" lon="7.72367">
        <ele>842.565</ele>
        <time>2018-03-24T15:31:59Z</time>
      </trkpt>
      <trkpt lat="43.88716" lon="7.72372">
        <ele>843.207</ele>
        <time>2018-03-24T15:32:02Z</time>
      </trkpt>
      <trkpt lat="43.88717" lon="7.72376">
        <ele>844.189</ele>
        <time>2018-03-24T15:32:06Z</time>
      </trkpt>
      <trkpt lat="43.88717" lon="7.7238">
        <ele>844.834</ele>
        <time>2018-03-24T15:32:09Z</time>
      </trkpt>
      <trkpt lat="43.88717" lon="7.72385">
        <ele>845.44</ele>
        <time>2018-03-24T15:32:12Z</time>
      </trkpt>
      <trkpt lat="43.88718" lon="7.72389">
        <ele>846.291</ele>
        <time>2018-03-24T15:32:17Z</time>
      </trkpt>
      <trkpt lat="43.88716" lon="7.72392">
        <ele>846.97</ele>
        <time>2018-03-24T15:32:27Z</time>
      </trkpt>
      <trkpt lat="43.88714" lon="7.72394">
        <ele>846.966</ele>
        <time>2018-03-24T15:32:35Z</time>
      </trkpt>
      <trkpt lat="43.88715" lon="7.72398">
        <ele>847.988</ele>
        <time>2018-03-24T15:32:44Z</time>
      </trkpt>
      <trkpt lat="43.88718" lon="7.72398">
        <ele>848.902</ele>
        <time>2018-03-24T15:32:55Z</time>
      </trkpt>
      <trkpt lat="43.8872" lon="7.72401">
        <ele>850.308</ele>
        <time>2018-03-24T15:33:03Z</time>
      </trkpt>
      <trkpt lat="43.88721" lon="7.72404">
        <ele>851.321</ele>
        <time>2018-03-24T15:33:07Z</time>
      </trkpt>
      <trkpt lat="43.88719" lon="7.72408">
        <ele>851.999</ele>
        <time>2018-03-24T15:33:19Z</time>
      </trkpt>
      <trkpt lat="43.88719" lon="7.72412">
        <ele>852.113</ele>
        <time>2018-03-24T15:33:24Z</time>
      </trkpt>
      <trkpt lat="43.88717" lon="7.72416">
        <ele>852.504</ele>
        <time>2018-03-24T15:33:30Z</time>
      </trkpt>
      <trkpt lat="43.88717" lon="7.7242">
        <ele>852.88</ele>
        <time>2018-03-24T15:33:33Z</time>
      </trkpt>
      <trkpt lat="43.88717" lon="7.72424">
        <ele>853.551</ele>
        <time>2018-03-24T15:33:38Z</time>
      </trkpt>
      <trkpt lat="43.88715" lon="7.72428">
        <ele>855.582</ele>
        <time>2018-03-24T15:33:54Z</time>
      </trkpt>
      <trkpt lat="43.88715" lon="7.72432">
        <ele>856.374</ele>
        <time>2018-03-24T15:33:59Z</time>
      </trkpt>
      <trkpt lat="43.88713" lon="7.72436">
        <ele>856.907</ele>
        <time>2018-03-24T15:34:04Z</time>
      </trkpt>
      <trkpt lat="43.88712" lon="7.7244">
        <ele>857.032</ele>
        <time>2018-03-24T15:34:24Z</time>
      </trkpt>
      <trkpt lat="43.88713" lon="7.72444">
        <ele>857.014</ele>
        <time>2018-03-24T15:34:33Z</time>
      </trkpt>
      <trkpt lat="43.88711" lon="7.72447">
        <ele>857.105</ele>
        <time>2018-03-24T15:34:51Z</time>
      </trkpt>
      <trkpt lat="43.88711" lon="7.72451">
        <ele>859.367</ele>
        <time>2018-03-24T15:35:07Z</time>
      </trkpt>
      <trkpt lat="43.88712" lon="7.72457">
        <ele>860.474</ele>
        <time>2018-03-24T15:35:12Z</time>
      </trkpt>
      <trkpt lat="43.88713" lon="7.72461">
        <ele>861.421</ele>
        <time>2018-03-24T15:35:19Z</time>
      </trkpt>
      <trkpt lat="43.88716" lon="7.72464">
        <ele>863.015</ele>
        <time>2018-03-24T15:35:31Z</time>
      </trkpt>
      <trkpt lat="43.88713" lon="7.72466">
        <ele>863.765</ele>
        <time>2018-03-24T15:35:36Z</time>
      </trkpt>
      <trkpt lat="43.8871" lon="7.72466">
        <ele>865.137</ele>
        <time>2018-03-24T15:35:48Z</time>
      </trkpt>
      <trkpt lat="43.88707" lon="7.72465">
        <ele>867.585</ele>
        <time>2018-03-24T15:36:06Z</time>
      </trkpt>
      <trkpt lat="43.88705" lon="7.72468">
        <ele>868.285</ele>
        <time>2018-03-24T15:36:14Z</time>
      </trkpt>
      <trkpt lat="43.88705" lon="7.72472">
        <ele>869.101</ele>
        <time>2018-03-24T15:36:19Z</time>
      </trkpt>
      <trkpt lat="43.88704" lon="7.72476">
        <ele>870.824</ele>
        <time>2018-03-24T15:36:46Z</time>
      </trkpt>
      <trkpt lat="43.88702" lon="7.72479">
        <ele>870.788</ele>
        <time>2018-03-24T15:36:56Z</time>
      </trkpt>
      <trkpt lat="43.88701" lon="7.72483">
        <ele>871.582</ele>
        <time>2018-03-24T15:37:02Z</time>
      </trkpt>
      <trkpt lat="43.887" lon="7.72487">
        <ele>871.935</ele>
        <time>2018-03-24T15:37:07Z</time>
      </trkpt>
      <trkpt lat="43.88702" lon="7.72492">
        <ele>872.408</ele>
        <time>2018-03-24T15:37:12Z</time>
      </trkpt>
      <trkpt lat="43.88701" lon="7.72496">
        <ele>873.507</ele>
        <time>2018-03-24T15:37:16Z</time>
      </trkpt>
      <trkpt lat="43.88702" lon="7.72499">
        <ele>875.104</ele>
        <time>2018-03-24T15:37:22Z</time>
      </trkpt>
      <trkpt lat="43.88704" lon="7.72498">
        <ele>875.545</ele>
        <time>2018-03-24T15:37:27Z</time>
      </trkpt>
      <trkpt lat="43.88706" lon="7.72502">
        <ele>877.903</ele>
        <time>2018-03-24T15:37:43Z</time>
      </trkpt>
      <trkpt lat="43.88706" lon="7.72505">
        <ele>880.13</ele>
        <time>2018-03-24T15:37:58Z</time>
      </trkpt>
      <trkpt lat="43.88708" lon="7.72508">
        <ele>881.388</ele>
        <time>2018-03-24T15:38:19Z</time>
      </trkpt>
      <trkpt lat="43.88704" lon="7.7251">
        <ele>882.24</ele>
        <time>2018-03-24T15:38:25Z</time>
      </trkpt>
      <trkpt lat="43.88704" lon="7.72514">
        <ele>883.808</ele>
        <time>2018-03-24T15:38:43Z</time>
      </trkpt>
      <trkpt lat="43.88705" lon="7.72517">
        <ele>884.536</ele>
        <time>2018-03-24T15:38:48Z</time>
      </trkpt>
      <trkpt lat="43.88705" lon="7.72521">
        <ele>887.106</ele>
        <time>2018-03-24T15:38:56Z</time>
      </trkpt>
      <trkpt lat="43.88708" lon="7.7252">
        <ele>887.713</ele>
        <time>2018-03-24T15:39:10Z</time>
      </trkpt>
      <trkpt lat="43.88711" lon="7.7252">
        <ele>888.109</ele>
        <time>2018-03-24T15:39:12Z</time>
      </trkpt>
      <trkpt lat="43.88713" lon="7.72523">
        <ele>888.644</ele>
        <time>2018-03-24T15:39:25Z</time>
      </trkpt>
      <trkpt lat="43.88714" lon="7.72528">
        <ele>888.927</ele>
        <time>2018-03-24T15:39:28Z</time>
      </trkpt>
      <trkpt lat="43.88713" lon="7.72531">
        <ele>889.026</ele>
        <time>2018-03-24T15:39:31Z</time>
      </trkpt>
      <trkpt lat="43.88711" lon="7.72535">
        <ele>889.076</ele>
        <time>2018-03-24T15:39:32Z</time>
      </trkpt>
      <trkpt lat="43.8871" lon="7.7254">
        <ele>889.65</ele>
        <time>2018-03-24T15:39:38Z</time>
      </trkpt>
      <trkpt lat="43.88711" lon="7.72545">
        <ele>890.374</ele>
        <time>2018-03-24T15:39:44Z</time>
      </trkpt>
      <trkpt lat="43.88711" lon="7.72549">
        <ele>890.527</ele>
        <time>2018-03-24T15:39:46Z</time>
      </trkpt>
      <trkpt lat="43.88712" lon="7.72554">
        <ele>891.404</ele>
        <time>2018-03-24T15:40:00Z</time>
      </trkpt>
      <trkpt lat="43.88712" lon="7.72557">
        <ele>892.105</ele>
        <time>2018-03-24T15:40:03Z</time>
      </trkpt>
      <trkpt lat="43.88711" lon="7.72563">
        <ele>893.169</ele>
        <time>2018-03-24T15:40:07Z</time>
      </trkpt>
      <trkpt lat="43.8871" lon="7.72567">
        <ele>893.969</ele>
        <time>2018-03-24T15:40:11Z</time>
      </trkpt>
      <trkpt lat="43.8871" lon="7.72571">
        <ele>894.178</ele>
        <time>2018-03-24T15:40:13Z</time>
      </trkpt>
      <trkpt lat="43.88711" lon="7.72575">
        <ele>894.771</ele>
        <time>2018-03-24T15:40:18Z</time>
      </trkpt>
      <trkpt lat="43.88711" lon="7.72579">
        <ele>895.482</ele>
        <time>2018-03-24T15:40:26Z</time>
      </trkpt>
      <trkpt lat="43.88711" lon="7.72583">
        <ele>895.711</ele>
        <time>2018-03-24T15:40:47Z</time>
      </trkpt>
      <trkpt lat="43.88708" lon="7.72585">
        <ele>896.099</ele>
        <time>2018-03-24T15:40:57Z</time>
      </trkpt>
      <trkpt lat="43.88709" lon="7.72589">
        <ele>896.758</ele>
        <time>2018-03-24T15:41:14Z</time>
      </trkpt>
      <trkpt lat="43.8871" lon="7.72594">
        <ele>896.854</ele>
        <time>2018-03-24T15:41:16Z</time>
      </trkpt>
      <trkpt lat="43.88712" lon="7.72597">
        <ele>897.19</ele>
        <time>2018-03-24T15:41:20Z</time>
      </trkpt>
      <trkpt lat="43.88712" lon="7.72601">
        <ele>897.863</ele>
        <time>2018-03-24T15:41:34Z</time>
      </trkpt>
      <trkpt lat="43.88714" lon="7.72605">
        <ele>898.003</ele>
        <time>2018-03-24T15:41:38Z</time>
      </trkpt>
      <trkpt lat="43.88714" lon="7.72609">
        <ele>898.324</ele>
        <time>2018-03-24T15:41:43Z</time>
      </trkpt>
      <trkpt lat="43.88715" lon="7.72614">
        <ele>898.447</ele>
        <time>2018-03-24T15:41:47Z</time>
      </trkpt>
      <trkpt lat="43.88717" lon="7.72617">
        <ele>898.936</ele>
        <time>2018-03-24T15:41:52Z</time>
      </trkpt>
      <trkpt lat="43.88716" lon="7.72621">
        <ele>899.629</ele>
        <time>2018-03-24T15:41:58Z</time>
      </trkpt>
      <trkpt lat="43.88718" lon="7.72625">
        <ele>899.941</ele>
        <time>2018-03-24T15:42:00Z</time>
      </trkpt>
      <trkpt lat="43.88716" lon="7.72625">
        <ele>901.145</ele>
        <time>2018-03-24T15:42:25Z</time>
      </trkpt>
      <trkpt lat="43.88717" lon="7.72622">
        <ele>902.438</ele>
        <time>2018-03-24T15:42:51Z</time>
      </trkpt>
      <trkpt lat="43.88721" lon="7.72622">
        <ele>902.62</ele>
        <time>2018-03-24T15:42:55Z</time>
      </trkpt>
      <trkpt lat="43.88705" lon="7.72632">
        <ele>918.4</ele>
        <time>2018-03-24T16:42:25Z</time>
      </trkpt>
      <trkpt lat="43.88714" lon="7.72631">
        <ele>916.172</ele>
        <time>2018-03-24T16:42:42Z</time>
      </trkpt>
      <trkpt lat="43.88721" lon="7.72638">
        <ele>912.367</ele>
        <time>2018-03-24T16:42:54Z</time>
      </trkpt>
      <trkpt lat="43.88733" lon="7.72644">
        <ele>915.151</ele>
        <time>2018-03-24T16:43:56Z</time>
      </trkpt>
      <trkpt lat="43.88738" lon="7.72642">
        <ele>914.946</ele>
        <time>2018-03-24T16:43:59Z</time>
      </trkpt>
      <trkpt lat="43.88741" lon="7.72641">
        <ele>915.202</ele>
        <time>2018-03-24T16:44:11Z</time>
      </trkpt>
      <trkpt lat="43.88743" lon="7.7264">
        <ele>915.08</ele>
        <time>2018-03-24T16:44:35Z</time>
      </trkpt>
      <trkpt lat="43.88746" lon="7.72645">
        <ele>913.815</ele>
        <time>2018-03-24T16:44:52Z</time>
      </trkpt>
      <trkpt lat="43.88749" lon="7.72647">
        <ele>913.557</ele>
        <time>2018-03-24T16:44:53Z</time>
      </trkpt>
      <trkpt lat="43.88754" lon="7.72651">
        <ele>913.154</ele>
        <time>2018-03-24T16:44:55Z</time>
      </trkpt>
      <trkpt lat="43.88757" lon="7.72656">
        <ele>912.931</ele>
        <time>2018-03-24T16:44:57Z</time>
      </trkpt>
      <trkpt lat="43.88761" lon="7.72662">
        <ele>912.635</ele>
        <time>2018-03-24T16:44:59Z</time>
      </trkpt>
      <trkpt lat="43.88763" lon="7.72674">
        <ele>912.348</ele>
        <time>2018-03-24T16:45:02Z</time>
      </trkpt>
      <trkpt lat="43.88762" lon="7.72681">
        <ele>912.055</ele>
        <time>2018-03-24T16:45:04Z</time>
      </trkpt>
      <trkpt lat="43.88763" lon="7.72685">
        <ele>911.964</ele>
        <time>2018-03-24T16:45:07Z</time>
      </trkpt>
      <trkpt lat="43.88766" lon="7.72687">
        <ele>912.14</ele>
        <time>2018-03-24T16:45:10Z</time>
      </trkpt>
      <trkpt lat="43.88762" lon="7.72689">
        <ele>912.493</ele>
        <time>2018-03-24T16:45:13Z</time>
      </trkpt>
      <trkpt lat="43.88766" lon="7.72692">
        <ele>911.06</ele>
        <time>2018-03-24T16:45:30Z</time>
      </trkpt>
      <trkpt lat="43.88771" lon="7.72695">
        <ele>910.986</ele>
        <time>2018-03-24T16:45:32Z</time>
      </trkpt>
      <trkpt lat="43.88774" lon="7.72697">
        <ele>911.069</ele>
        <time>2018-03-24T16:45:34Z</time>
      </trkpt>
      <trkpt lat="43.88777" lon="7.72699">
        <ele>911.089</ele>
        <time>2018-03-24T16:45:36Z</time>
      </trkpt>
      <trkpt lat="43.88779" lon="7.72704">
        <ele>910.829</ele>
        <time>2018-03-24T16:45:44Z</time>
      </trkpt>
      <trkpt lat="43.88779" lon="7.72708">
        <ele>911.202</ele>
        <time>2018-03-24T16:45:48Z</time>
      </trkpt>
      <trkpt lat="43.88781" lon="7.7271">
        <ele>912.069</ele>
        <time>2018-03-24T16:45:52Z</time>
      </trkpt>
      <trkpt lat="43.88783" lon="7.72714">
        <ele>912.325</ele>
        <time>2018-03-24T16:45:54Z</time>
      </trkpt>
      <trkpt lat="43.88785" lon="7.72717">
        <ele>912.842</ele>
        <time>2018-03-24T16:46:05Z</time>
      </trkpt>
      <trkpt lat="43.8879" lon="7.72721">
        <ele>913.176</ele>
        <time>2018-03-24T16:46:07Z</time>
      </trkpt>
      <trkpt lat="43.88792" lon="7.72722">
        <ele>913.274</ele>
        <time>2018-03-24T16:46:13Z</time>
      </trkpt>
      <trkpt lat="43.88795" lon="7.72724">
        <ele>913.429</ele>
        <time>2018-03-24T16:46:15Z</time>
      </trkpt>
      <trkpt lat="43.88798" lon="7.72726">
        <ele>913.69</ele>
        <time>2018-03-24T16:46:17Z</time>
      </trkpt>
      <trkpt lat="43.88801" lon="7.72726">
        <ele>913.812</ele>
        <time>2018-03-24T16:46:22Z</time>
      </trkpt>
      <trkpt lat="43.88804" lon="7.72726">
        <ele>914.026</ele>
        <time>2018-03-24T16:46:24Z</time>
      </trkpt>
      <trkpt lat="43.88809" lon="7.72726">
        <ele>914.018</ele>
        <time>2018-03-24T16:46:26Z</time>
      </trkpt>
      <trkpt lat="43.88812" lon="7.72727">
        <ele>913.941</ele>
        <time>2018-03-24T16:46:28Z</time>
      </trkpt>
      <trkpt lat="43.88816" lon="7.72729">
        <ele>914.048</ele>
        <time>2018-03-24T16:46:32Z</time>
      </trkpt>
      <trkpt lat="43.88817" lon="7.72733">
        <ele>914.326</ele>
        <time>2018-03-24T16:46:36Z</time>
      </trkpt>
      <trkpt lat="43.88822" lon="7.72734">
        <ele>915.116</ele>
        <time>2018-03-24T16:46:43Z</time>
      </trkpt>
      <trkpt lat="43.88824" lon="7.72731">
        <ele>915.16</ele>
        <time>2018-03-24T16:46:46Z</time>
      </trkpt>
      <trkpt lat="43.88826" lon="7.72729">
        <ele>915.196</ele>
        <time>2018-03-24T16:46:48Z</time>
      </trkpt>
      <trkpt lat="43.8883" lon="7.72728">
        <ele>915.295</ele>
        <time>2018-03-24T16:46:50Z</time>
      </trkpt>
      <trkpt lat="43.88838" lon="7.72725">
        <ele>915.503</ele>
        <time>2018-03-24T16:46:53Z</time>
      </trkpt>
      <trkpt lat="43.88846" lon="7.72722">
        <ele>915.65</ele>
        <time>2018-03-24T16:46:55Z</time>
      </trkpt>
      <trkpt lat="43.88855" lon="7.7272">
        <ele>915.929</ele>
        <time>2018-03-24T16:47:02Z</time>
      </trkpt>
      <trkpt lat="43.8886" lon="7.7272">
        <ele>916.102</ele>
        <time>2018-03-24T16:47:04Z</time>
      </trkpt>
      <trkpt lat="43.88867" lon="7.7272">
        <ele>916.209</ele>
        <time>2018-03-24T16:47:06Z</time>
      </trkpt>
      <trkpt lat="43.88872" lon="7.72721">
        <ele>916.313</ele>
        <time>2018-03-24T16:47:08Z</time>
      </trkpt>
      <trkpt lat="43.8888" lon="7.72725">
        <ele>916.249</ele>
        <time>2018-03-24T16:47:10Z</time>
      </trkpt>
      <trkpt lat="43.88884" lon="7.72725">
        <ele>916.161</ele>
        <time>2018-03-24T16:47:12Z</time>
      </trkpt>
      <trkpt lat="43.88887" lon="7.72723">
        <ele>915.952</ele>
        <time>2018-03-24T16:47:15Z</time>
      </trkpt>
      <trkpt lat="43.8889" lon="7.7272">
        <ele>915.621</ele>
        <time>2018-03-24T16:47:18Z</time>
      </trkpt>
      <trkpt lat="43.88893" lon="7.72718">
        <ele>915.46</ele>
        <time>2018-03-24T16:47:21Z</time>
      </trkpt>
      <trkpt lat="43.88897" lon="7.72716">
        <ele>915.401</ele>
        <time>2018-03-24T16:47:23Z</time>
      </trkpt>
      <trkpt lat="43.88898" lon="7.72712">
        <ele>915.352</ele>
        <time>2018-03-24T16:47:25Z</time>
      </trkpt>
      <trkpt lat="43.88901" lon="7.72709">
        <ele>915.381</ele>
        <time>2018-03-24T16:47:27Z</time>
      </trkpt>
      <trkpt lat="43.88905" lon="7.72708">
        <ele>915.175</ele>
        <time>2018-03-24T16:47:29Z</time>
      </trkpt>
      <trkpt lat="43.88907" lon="7.72705">
        <ele>915.104</ele>
        <time>2018-03-24T16:47:31Z</time>
      </trkpt>
      <trkpt lat="43.8891" lon="7.72703">
        <ele>915.088</ele>
        <time>2018-03-24T16:47:33Z</time>
      </trkpt>
      <trkpt lat="43.88913" lon="7.72699">
        <ele>914.995</ele>
        <time>2018-03-24T16:47:36Z</time>
      </trkpt>
      <trkpt lat="43.88917" lon="7.72696">
        <ele>914.788</ele>
        <time>2018-03-24T16:47:39Z</time>
      </trkpt>
      <trkpt lat="43.88921" lon="7.72692">
        <ele>912.958</ele>
        <time>2018-03-24T16:47:43Z</time>
      </trkpt>
      <trkpt lat="43.88924" lon="7.72691">
        <ele>912.939</ele>
        <time>2018-03-24T16:47:45Z</time>
      </trkpt>
      <trkpt lat="43.8893" lon="7.72695">
        <ele>912.886</ele>
        <time>2018-03-24T16:47:49Z</time>
      </trkpt>
      <trkpt lat="43.88933" lon="7.72698">
        <ele>912.832</ele>
        <time>2018-03-24T16:47:51Z</time>
      </trkpt>
      <trkpt lat="43.88937" lon="7.727">
        <ele>912.906</ele>
        <time>2018-03-24T16:47:54Z</time>
      </trkpt>
      <trkpt lat="43.88939" lon="7.72704">
        <ele>912.844</ele>
        <time>2018-03-24T16:47:56Z</time>
      </trkpt>
      <trkpt lat="43.88941" lon="7.72707">
        <ele>912.603</ele>
        <time>2018-03-24T16:47:59Z</time>
      </trkpt>
      <trkpt lat="43.88944" lon="7.72709">
        <ele>912.542</ele>
        <time>2018-03-24T16:48:01Z</time>
      </trkpt>
      <trkpt lat="43.88947" lon="7.72712">
        <ele>912.742</ele>
        <time>2018-03-24T16:48:05Z</time>
      </trkpt>
      <trkpt lat="43.8895" lon="7.72713">
        <ele>912.745</ele>
        <time>2018-03-24T16:48:07Z</time>
      </trkpt>
      <trkpt lat="43.88954" lon="7.72716">
        <ele>912.743</ele>
        <time>2018-03-24T16:48:10Z</time>
      </trkpt>
      <trkpt lat="43.88957" lon="7.72717">
        <ele>913.548</ele>
        <time>2018-03-24T16:48:15Z</time>
      </trkpt>
      <trkpt lat="43.8896" lon="7.72719">
        <ele>914.007</ele>
        <time>2018-03-24T16:48:19Z</time>
      </trkpt>
      <trkpt lat="43.88963" lon="7.72719">
        <ele>914.113</ele>
        <time>2018-03-24T16:48:21Z</time>
      </trkpt>
      <trkpt lat="43.88965" lon="7.72717">
        <ele>914.705</ele>
        <time>2018-03-24T16:48:28Z</time>
      </trkpt>
      <trkpt lat="43.88969" lon="7.72714">
        <ele>915.053</ele>
        <time>2018-03-24T16:48:31Z</time>
      </trkpt>
      <trkpt lat="43.88971" lon="7.72711">
        <ele>915.285</ele>
        <time>2018-03-24T16:48:34Z</time>
      </trkpt>
      <trkpt lat="43.88975" lon="7.72708">
        <ele>915.429</ele>
        <time>2018-03-24T16:48:36Z</time>
      </trkpt>
      <trkpt lat="43.88979" lon="7.72706">
        <ele>915.666</ele>
        <time>2018-03-24T16:48:38Z</time>
      </trkpt>
      <trkpt lat="43.88981" lon="7.72702">
        <ele>915.929</ele>
        <time>2018-03-24T16:48:40Z</time>
      </trkpt>
      <trkpt lat="43.88984" lon="7.72698">
        <ele>916.282</ele>
        <time>2018-03-24T16:48:43Z</time>
      </trkpt>
      <trkpt lat="43.88988" lon="7.72695">
        <ele>916.807</ele>
        <time>2018-03-24T16:48:46Z</time>
      </trkpt>
      <trkpt lat="43.88991" lon="7.72692">
        <ele>917.252</ele>
        <time>2018-03-24T16:48:49Z</time>
      </trkpt>
      <trkpt lat="43.88994" lon="7.72689">
        <ele>917.544</ele>
        <time>2018-03-24T16:48:51Z</time>
      </trkpt>
      <trkpt lat="43.88996" lon="7.72687">
        <ele>917.766</ele>
        <time>2018-03-24T16:48:53Z</time>
      </trkpt>
      <trkpt lat="43.88999" lon="7.72685">
        <ele>917.948</ele>
        <time>2018-03-24T16:48:55Z</time>
      </trkpt>
      <trkpt lat="43.89002" lon="7.72682">
        <ele>918.131</ele>
        <time>2018-03-24T16:48:57Z</time>
      </trkpt>
      <trkpt lat="43.89005" lon="7.72683">
        <ele>918.258</ele>
        <time>2018-03-24T16:48:59Z</time>
      </trkpt>
      <trkpt lat="43.89008" lon="7.72684">
        <ele>918.365</ele>
        <time>2018-03-24T16:49:01Z</time>
      </trkpt>
      <trkpt lat="43.89011" lon="7.72686">
        <ele>918.488</ele>
        <time>2018-03-24T16:49:10Z</time>
      </trkpt>
      <trkpt lat="43.89009" lon="7.72689">
        <ele>918.499</ele>
        <time>2018-03-24T16:49:13Z</time>
      </trkpt>
      <trkpt lat="43.89013" lon="7.72692">
        <ele>918.43</ele>
        <time>2018-03-24T16:49:15Z</time>
      </trkpt>
      <trkpt lat="43.89016" lon="7.72695">
        <ele>918.3</ele>
        <time>2018-03-24T16:49:17Z</time>
      </trkpt>
      <trkpt lat="43.8902" lon="7.72699">
        <ele>918.292</ele>
        <time>2018-03-24T16:49:19Z</time>
      </trkpt>
      <trkpt lat="43.89023" lon="7.72702">
        <ele>918.263</ele>
        <time>2018-03-24T16:49:21Z</time>
      </trkpt>
      <trkpt lat="43.89024" lon="7.72706">
        <ele>918.127</ele>
        <time>2018-03-24T16:49:24Z</time>
      </trkpt>
      <trkpt lat="43.89027" lon="7.72706">
        <ele>917.427</ele>
        <time>2018-03-24T16:49:37Z</time>
      </trkpt>
      <trkpt lat="43.89029" lon="7.72708">
        <ele>917.74</ele>
        <time>2018-03-24T16:49:43Z</time>
      </trkpt>
      <trkpt lat="43.89033" lon="7.72709">
        <ele>917.776</ele>
        <time>2018-03-24T16:49:45Z</time>
      </trkpt>
      <trkpt lat="43.89037" lon="7.72709">
        <ele>918.065</ele>
        <time>2018-03-24T16:49:49Z</time>
      </trkpt>
      <trkpt lat="43.89038" lon="7.72712">
        <ele>918.619</ele>
        <time>2018-03-24T16:49:54Z</time>
      </trkpt>
      <trkpt lat="43.89042" lon="7.72714">
        <ele>918.712</ele>
        <time>2018-03-24T16:49:56Z</time>
      </trkpt>
      <trkpt lat="43.89046" lon="7.72714">
        <ele>918.897</ele>
        <time>2018-03-24T16:50:00Z</time>
      </trkpt>
      <trkpt lat="43.89049" lon="7.72713">
        <ele>918.871</ele>
        <time>2018-03-24T16:50:07Z</time>
      </trkpt>
      <trkpt lat="43.89057" lon="7.7271">
        <ele>918.95</ele>
        <time>2018-03-24T16:50:10Z</time>
      </trkpt>
      <trkpt lat="43.89061" lon="7.72708">
        <ele>919.07</ele>
        <time>2018-03-24T16:50:14Z</time>
      </trkpt>
      <trkpt lat="43.89065" lon="7.72703">
        <ele>918.761</ele>
        <time>2018-03-24T16:50:20Z</time>
      </trkpt>
      <trkpt lat="43.89072" lon="7.72703">
        <ele>918.842</ele>
        <time>2018-03-24T16:50:25Z</time>
      </trkpt>
      <trkpt lat="43.89081" lon="7.72703">
        <ele>919.192</ele>
        <time>2018-03-24T16:50:32Z</time>
      </trkpt>
      <trkpt lat="43.89085" lon="7.72704">
        <ele>919.389</ele>
        <time>2018-03-24T16:50:34Z</time>
      </trkpt>
      <trkpt lat="43.89089" lon="7.72706">
        <ele>919.616</ele>
        <time>2018-03-24T16:50:36Z</time>
      </trkpt>
      <trkpt lat="43.89092" lon="7.72705">
        <ele>919.833</ele>
        <time>2018-03-24T16:50:38Z</time>
      </trkpt>
      <trkpt lat="43.89096" lon="7.72708">
        <ele>920.163</ele>
        <time>2018-03-24T16:50:40Z</time>
      </trkpt>
      <trkpt lat="43.89099" lon="7.7271">
        <ele>920.177</ele>
        <time>2018-03-24T16:50:42Z</time>
      </trkpt>
      <trkpt lat="43.89104" lon="7.72713">
        <ele>920.179</ele>
        <time>2018-03-24T16:50:44Z</time>
      </trkpt>
      <trkpt lat="43.89105" lon="7.72717">
        <ele>920.157</ele>
        <time>2018-03-24T16:50:47Z</time>
      </trkpt>
      <trkpt lat="43.8911" lon="7.72719">
        <ele>920.241</ele>
        <time>2018-03-24T16:50:49Z</time>
      </trkpt>
      <trkpt lat="43.89113" lon="7.72718">
        <ele>920.462</ele>
        <time>2018-03-24T16:50:51Z</time>
      </trkpt>
      <trkpt lat="43.89116" lon="7.72719">
        <ele>920.712</ele>
        <time>2018-03-24T16:50:53Z</time>
      </trkpt>
      <trkpt lat="43.8912" lon="7.72721">
        <ele>920.953</ele>
        <time>2018-03-24T16:50:55Z</time>
      </trkpt>
      <trkpt lat="43.89124" lon="7.72723">
        <ele>921.66</ele>
        <time>2018-03-24T16:51:00Z</time>
      </trkpt>
      <trkpt lat="43.89129" lon="7.72724">
        <ele>922.743</ele>
        <time>2018-03-24T16:51:08Z</time>
      </trkpt>
      <trkpt lat="43.89135" lon="7.72727">
        <ele>922.809</ele>
        <time>2018-03-24T16:51:10Z</time>
      </trkpt>
      <trkpt lat="43.89138" lon="7.72731">
        <ele>923.277</ele>
        <time>2018-03-24T16:51:14Z</time>
      </trkpt>
      <trkpt lat="43.89142" lon="7.72731">
        <ele>923.465</ele>
        <time>2018-03-24T16:51:16Z</time>
      </trkpt>
      <trkpt lat="43.89145" lon="7.72731">
        <ele>923.584</ele>
        <time>2018-03-24T16:51:18Z</time>
      </trkpt>
      <trkpt lat="43.89148" lon="7.72732">
        <ele>923.83</ele>
        <time>2018-03-24T16:51:21Z</time>
      </trkpt>
      <trkpt lat="43.89152" lon="7.72734">
        <ele>923.814</ele>
        <time>2018-03-24T16:51:24Z</time>
      </trkpt>
      <trkpt lat="43.89156" lon="7.72735">
        <ele>923.702</ele>
        <time>2018-03-24T16:51:26Z</time>
      </trkpt>
      <trkpt lat="43.89161" lon="7.72734">
        <ele>923.579</ele>
        <time>2018-03-24T16:51:28Z</time>
      </trkpt>
      <trkpt lat="43.89163" lon="7.72732">
        <ele>923.37</ele>
        <time>2018-03-24T16:51:31Z</time>
      </trkpt>
      <trkpt lat="43.89167" lon="7.72734">
        <ele>923.163</ele>
        <time>2018-03-24T16:51:34Z</time>
      </trkpt>
      <trkpt lat="43.89171" lon="7.72735">
        <ele>922.93</ele>
        <time>2018-03-24T16:51:36Z</time>
      </trkpt>
      <trkpt lat="43.89174" lon="7.7274">
        <ele>922.609</ele>
        <time>2018-03-24T16:51:38Z</time>
      </trkpt>
      <trkpt lat="43.89177" lon="7.72742">
        <ele>922.41</ele>
        <time>2018-03-24T16:51:40Z</time>
      </trkpt>
      <trkpt lat="43.8918" lon="7.72743">
        <ele>922.21</ele>
        <time>2018-03-24T16:51:42Z</time>
      </trkpt>
      <trkpt lat="43.89182" lon="7.72745">
        <ele>922.055</ele>
        <time>2018-03-24T16:51:44Z</time>
      </trkpt>
      <trkpt lat="43.89186" lon="7.72745">
        <ele>922.026</ele>
        <time>2018-03-24T16:51:47Z</time>
      </trkpt>
      <trkpt lat="43.89189" lon="7.72746">
        <ele>921.273</ele>
        <time>2018-03-24T16:51:53Z</time>
      </trkpt>
      <trkpt lat="43.8919" lon="7.7275">
        <ele>921.246</ele>
        <time>2018-03-24T16:51:55Z</time>
      </trkpt>
      <trkpt lat="43.89193" lon="7.72752">
        <ele>921.245</ele>
        <time>2018-03-24T16:51:57Z</time>
      </trkpt>
      <trkpt lat="43.89196" lon="7.72756">
        <ele>920.969</ele>
        <time>2018-03-24T16:51:59Z</time>
      </trkpt>
      <trkpt lat="43.89199" lon="7.72759">
        <ele>920.712</ele>
        <time>2018-03-24T16:52:01Z</time>
      </trkpt>
      <trkpt lat="43.892" lon="7.72764">
        <ele>920.524</ele>
        <time>2018-03-24T16:52:03Z</time>
      </trkpt>
      <trkpt lat="43.89203" lon="7.72768">
        <ele>920.398</ele>
        <time>2018-03-24T16:52:06Z</time>
      </trkpt>
      <trkpt lat="43.89205" lon="7.72772">
        <ele>920.505</ele>
        <time>2018-03-24T16:52:09Z</time>
      </trkpt>
      <trkpt lat="43.89207" lon="7.72776">
        <ele>920.468</ele>
        <time>2018-03-24T16:52:11Z</time>
      </trkpt>
      <trkpt lat="43.8921" lon="7.72781">
        <ele>920.395</ele>
        <time>2018-03-24T16:52:13Z</time>
      </trkpt>
      <trkpt lat="43.89213" lon="7.72785">
        <ele>920.008</ele>
        <time>2018-03-24T16:52:17Z</time>
      </trkpt>
      <trkpt lat="43.89215" lon="7.72788">
        <ele>920.137</ele>
        <time>2018-03-24T16:52:21Z</time>
      </trkpt>
      <trkpt lat="43.89218" lon="7.7279">
        <ele>920.44</ele>
        <time>2018-03-24T16:52:24Z</time>
      </trkpt>
      <trkpt lat="43.89221" lon="7.72792">
        <ele>920.77</ele>
        <time>2018-03-24T16:52:27Z</time>
      </trkpt>
      <trkpt lat="43.89224" lon="7.72793">
        <ele>921.033</ele>
        <time>2018-03-24T16:52:31Z</time>
      </trkpt>
      <trkpt lat="43.89226" lon="7.72798">
        <ele>921.238</ele>
        <time>2018-03-24T16:52:35Z</time>
      </trkpt>
      <trkpt lat="43.89229" lon="7.72803">
        <ele>921.511</ele>
        <time>2018-03-24T16:52:37Z</time>
      </trkpt>
      <trkpt lat="43.89232" lon="7.72807">
        <ele>921.846</ele>
        <time>2018-03-24T16:52:40Z</time>
      </trkpt>
      <trkpt lat="43.89236" lon="7.72808">
        <ele>922.594</ele>
        <time>2018-03-24T16:52:44Z</time>
      </trkpt>
      <trkpt lat="43.89241" lon="7.72812">
        <ele>923.875</ele>
        <time>2018-03-24T16:52:50Z</time>
      </trkpt>
      <trkpt lat="43.89245" lon="7.72812">
        <ele>924.293</ele>
        <time>2018-03-24T16:52:52Z</time>
      </trkpt>
      <trkpt lat="43.89247" lon="7.72816">
        <ele>924.817</ele>
        <time>2018-03-24T16:52:56Z</time>
      </trkpt>
      <trkpt lat="43.89249" lon="7.72819">
        <ele>924.977</ele>
        <time>2018-03-24T16:52:58Z</time>
      </trkpt>
      <trkpt lat="43.89254" lon="7.72821">
        <ele>925.151</ele>
        <time>2018-03-24T16:53:00Z</time>
      </trkpt>
      <trkpt lat="43.89257" lon="7.72823">
        <ele>925.49</ele>
        <time>2018-03-24T16:53:03Z</time>
      </trkpt>
      <trkpt lat="43.8926" lon="7.72825">
        <ele>925.758</ele>
        <time>2018-03-24T16:53:08Z</time>
      </trkpt>
      <trkpt lat="43.89263" lon="7.72826">
        <ele>925.978</ele>
        <time>2018-03-24T16:53:12Z</time>
      </trkpt>
      <trkpt lat="43.89266" lon="7.72826">
        <ele>925.987</ele>
        <time>2018-03-24T16:53:14Z</time>
      </trkpt>
      <trkpt lat="43.89268" lon="7.72829">
        <ele>925.969</ele>
        <time>2018-03-24T16:53:16Z</time>
      </trkpt>
      <trkpt lat="43.89272" lon="7.7283">
        <ele>926.037</ele>
        <time>2018-03-24T16:53:20Z</time>
      </trkpt>
      <trkpt lat="43.89275" lon="7.72831">
        <ele>925.909</ele>
        <time>2018-03-24T16:53:22Z</time>
      </trkpt>
      <trkpt lat="43.8928" lon="7.72832">
        <ele>925.789</ele>
        <time>2018-03-24T16:53:25Z</time>
      </trkpt>
      <trkpt lat="43.89283" lon="7.72831">
        <ele>926.01</ele>
        <time>2018-03-24T16:53:31Z</time>
      </trkpt>
      <trkpt lat="43.89287" lon="7.72832">
        <ele>926.544</ele>
        <time>2018-03-24T16:53:34Z</time>
      </trkpt>
      <trkpt lat="43.8929" lon="7.72833">
        <ele>926.976</ele>
        <time>2018-03-24T16:53:38Z</time>
      </trkpt>
      <trkpt lat="43.89294" lon="7.72834">
        <ele>927.271</ele>
        <time>2018-03-24T16:53:40Z</time>
      </trkpt>
      <trkpt lat="43.89298" lon="7.72836">
        <ele>927.486</ele>
        <time>2018-03-24T16:53:46Z</time>
      </trkpt>
      <trkpt lat="43.89302" lon="7.72834">
        <ele>927.319</ele>
        <time>2018-03-24T16:53:48Z</time>
      </trkpt>
      <trkpt lat="43.89306" lon="7.72835">
        <ele>927.151</ele>
        <time>2018-03-24T16:53:50Z</time>
      </trkpt>
      <trkpt lat="43.8931" lon="7.72835">
        <ele>927.152</ele>
        <time>2018-03-24T16:53:52Z</time>
      </trkpt>
      <trkpt lat="43.89314" lon="7.72835">
        <ele>927.091</ele>
        <time>2018-03-24T16:53:56Z</time>
      </trkpt>
      <trkpt lat="43.89318" lon="7.72835">
        <ele>927.001</ele>
        <time>2018-03-24T16:53:58Z</time>
      </trkpt>
      <trkpt lat="43.89322" lon="7.72832">
        <ele>926.971</ele>
        <time>2018-03-24T16:54:00Z</time>
      </trkpt>
      <trkpt lat="43.89325" lon="7.7283">
        <ele>926.892</ele>
        <time>2018-03-24T16:54:02Z</time>
      </trkpt>
      <trkpt lat="43.89328" lon="7.72828">
        <ele>926.91</ele>
        <time>2018-03-24T16:54:04Z</time>
      </trkpt>
      <trkpt lat="43.89332" lon="7.72828">
        <ele>927.119</ele>
        <time>2018-03-24T16:54:07Z</time>
      </trkpt>
      <trkpt lat="43.89336" lon="7.72829">
        <ele>927.149</ele>
        <time>2018-03-24T16:54:09Z</time>
      </trkpt>
      <trkpt lat="43.89339" lon="7.72828">
        <ele>927.351</ele>
        <time>2018-03-24T16:54:12Z</time>
      </trkpt>
      <trkpt lat="43.89342" lon="7.72826">
        <ele>927.336</ele>
        <time>2018-03-24T16:54:14Z</time>
      </trkpt>
      <trkpt lat="43.89351" lon="7.72823">
        <ele>927.42</ele>
        <time>2018-03-24T16:54:16Z</time>
      </trkpt>
      <trkpt lat="43.89354" lon="7.72824">
        <ele>927.474</ele>
        <time>2018-03-24T16:54:17Z</time>
      </trkpt>
      <trkpt lat="43.89357" lon="7.72821">
        <ele>927.608</ele>
        <time>2018-03-24T16:54:20Z</time>
      </trkpt>
      <trkpt lat="43.8936" lon="7.72819">
        <ele>927.572</ele>
        <time>2018-03-24T16:54:22Z</time>
      </trkpt>
      <trkpt lat="43.89362" lon="7.72817">
        <ele>927.479</ele>
        <time>2018-03-24T16:54:27Z</time>
      </trkpt>
      <trkpt lat="43.89365" lon="7.72816">
        <ele>927.206</ele>
        <time>2018-03-24T16:54:30Z</time>
      </trkpt>
      <trkpt lat="43.89368" lon="7.72816">
        <ele>927.096</ele>
        <time>2018-03-24T16:54:32Z</time>
      </trkpt>
      <trkpt lat="43.89371" lon="7.72815">
        <ele>927.041</ele>
        <time>2018-03-24T16:54:34Z</time>
      </trkpt>
      <trkpt lat="43.89376" lon="7.72815">
        <ele>927.147</ele>
        <time>2018-03-24T16:54:37Z</time>
      </trkpt>
      <trkpt lat="43.89381" lon="7.72814">
        <ele>927.223</ele>
        <time>2018-03-24T16:54:39Z</time>
      </trkpt>
      <trkpt lat="43.89384" lon="7.72812">
        <ele>927.303</ele>
        <time>2018-03-24T16:54:41Z</time>
      </trkpt>
      <trkpt lat="43.89388" lon="7.7281">
        <ele>927.334</ele>
        <time>2018-03-24T16:54:43Z</time>
      </trkpt>
      <trkpt lat="43.89391" lon="7.72808">
        <ele>927.345</ele>
        <time>2018-03-24T16:54:45Z</time>
      </trkpt>
      <trkpt lat="43.89393" lon="7.72808">
        <ele>927.343</ele>
        <time>2018-03-24T16:54:47Z</time>
      </trkpt>
      <trkpt lat="43.89396" lon="7.72805">
        <ele>927.378</ele>
        <time>2018-03-24T16:54:49Z</time>
      </trkpt>
      <trkpt lat="43.89399" lon="7.72803">
        <ele>927.412</ele>
        <time>2018-03-24T16:54:52Z</time>
      </trkpt>
      <trkpt lat="43.89402" lon="7.728">
        <ele>927.454</ele>
        <time>2018-03-24T16:54:54Z</time>
      </trkpt>
      <trkpt lat="43.89404" lon="7.72798">
        <ele>927.551</ele>
        <time>2018-03-24T16:54:56Z</time>
      </trkpt>
      <trkpt lat="43.89407" lon="7.72795">
        <ele>927.574</ele>
        <time>2018-03-24T16:54:58Z</time>
      </trkpt>
      <trkpt lat="43.8941" lon="7.72794">
        <ele>927.727</ele>
        <time>2018-03-24T16:55:00Z</time>
      </trkpt>
      <trkpt lat="43.89412" lon="7.72792">
        <ele>927.802</ele>
        <time>2018-03-24T16:55:02Z</time>
      </trkpt>
      <trkpt lat="43.89416" lon="7.72789">
        <ele>927.792</ele>
        <time>2018-03-24T16:55:04Z</time>
      </trkpt>
      <trkpt lat="43.8942" lon="7.72788">
        <ele>927.428</ele>
        <time>2018-03-24T16:55:07Z</time>
      </trkpt>
      <trkpt lat="43.89422" lon="7.72785">
        <ele>927.335</ele>
        <time>2018-03-24T16:55:09Z</time>
      </trkpt>
      <trkpt lat="43.89425" lon="7.72782">
        <ele>927.126</ele>
        <time>2018-03-24T16:55:12Z</time>
      </trkpt>
      <trkpt lat="43.89427" lon="7.72777">
        <ele>926.887</ele>
        <time>2018-03-24T16:55:15Z</time>
      </trkpt>
      <trkpt lat="43.89429" lon="7.72773">
        <ele>926.654</ele>
        <time>2018-03-24T16:55:17Z</time>
      </trkpt>
      <trkpt lat="43.89432" lon="7.7277">
        <ele>926.505</ele>
        <time>2018-03-24T16:55:19Z</time>
      </trkpt>
      <trkpt lat="43.89432" lon="7.72764">
        <ele>926.333</ele>
        <time>2018-03-24T16:55:21Z</time>
      </trkpt>
      <trkpt lat="43.89434" lon="7.7276">
        <ele>926.032</ele>
        <time>2018-03-24T16:55:24Z</time>
      </trkpt>
      <trkpt lat="43.89436" lon="7.72759">
        <ele>925.588</ele>
        <time>2018-03-24T16:55:27Z</time>
      </trkpt>
      <trkpt lat="43.89439" lon="7.72755">
        <ele>925.232</ele>
        <time>2018-03-24T16:55:30Z</time>
      </trkpt>
      <trkpt lat="43.89442" lon="7.7275">
        <ele>924.955</ele>
        <time>2018-03-24T16:55:33Z</time>
      </trkpt>
      <trkpt lat="43.89443" lon="7.72746">
        <ele>924.702</ele>
        <time>2018-03-24T16:55:35Z</time>
      </trkpt>
      <trkpt lat="43.89445" lon="7.72742">
        <ele>924.431</ele>
        <time>2018-03-24T16:55:37Z</time>
      </trkpt>
      <trkpt lat="43.89448" lon="7.7274">
        <ele>923.968</ele>
        <time>2018-03-24T16:55:41Z</time>
      </trkpt>
      <trkpt lat="43.89452" lon="7.72738">
        <ele>923.419</ele>
        <time>2018-03-24T16:55:46Z</time>
      </trkpt>
      <trkpt lat="43.89455" lon="7.72737">
        <ele>923.177</ele>
        <time>2018-03-24T16:55:48Z</time>
      </trkpt>
      <trkpt lat="43.89459" lon="7.72734">
        <ele>923.121</ele>
        <time>2018-03-24T16:55:50Z</time>
      </trkpt>
      <trkpt lat="43.89464" lon="7.7273">
        <ele>922.962</ele>
        <time>2018-03-24T16:55:52Z</time>
      </trkpt>
      <trkpt lat="43.89465" lon="7.72726">
        <ele>922.879</ele>
        <time>2018-03-24T16:55:55Z</time>
      </trkpt>
      <trkpt lat="43.89469" lon="7.72723">
        <ele>922.885</ele>
        <time>2018-03-24T16:55:57Z</time>
      </trkpt>
      <trkpt lat="43.8947" lon="7.7272">
        <ele>922.802</ele>
        <time>2018-03-24T16:55:59Z</time>
      </trkpt>
      <trkpt lat="43.89472" lon="7.72716">
        <ele>922.761</ele>
        <time>2018-03-24T16:56:01Z</time>
      </trkpt>
      <trkpt lat="43.89474" lon="7.72711">
        <ele>922.516</ele>
        <time>2018-03-24T16:56:04Z</time>
      </trkpt>
      <trkpt lat="43.89475" lon="7.72708">
        <ele>922.375</ele>
        <time>2018-03-24T16:56:06Z</time>
      </trkpt>
      <trkpt lat="43.89476" lon="7.72704">
        <ele>922.38</ele>
        <time>2018-03-24T16:56:08Z</time>
      </trkpt>
      <trkpt lat="43.8948" lon="7.72699">
        <ele>922.227</ele>
        <time>2018-03-24T16:56:11Z</time>
      </trkpt>
      <trkpt lat="43.89482" lon="7.72696">
        <ele>922.094</ele>
        <time>2018-03-24T16:56:13Z</time>
      </trkpt>
      <trkpt lat="43.89485" lon="7.72693">
        <ele>921.969</ele>
        <time>2018-03-24T16:56:16Z</time>
      </trkpt>
      <trkpt lat="43.89488" lon="7.72691">
        <ele>921.781</ele>
        <time>2018-03-24T16:56:19Z</time>
      </trkpt>
      <trkpt lat="43.89491" lon="7.72691">
        <ele>921.57</ele>
        <time>2018-03-24T16:56:22Z</time>
      </trkpt>
      <trkpt lat="43.89492" lon="7.72694">
        <ele>921.144</ele>
        <time>2018-03-24T16:56:25Z</time>
      </trkpt>
      <trkpt lat="43.89494" lon="7.72697">
        <ele>920.858</ele>
        <time>2018-03-24T16:56:27Z</time>
      </trkpt>
      <trkpt lat="43.89498" lon="7.72701">
        <ele>920.737</ele>
        <time>2018-03-24T16:56:29Z</time>
      </trkpt>
      <trkpt lat="43.89501" lon="7.72704">
        <ele>920.737</ele>
        <time>2018-03-24T16:56:31Z</time>
      </trkpt>
      <trkpt lat="43.89504" lon="7.72705">
        <ele>920.704</ele>
        <time>2018-03-24T16:56:33Z</time>
      </trkpt>
      <trkpt lat="43.89508" lon="7.72705">
        <ele>920.564</ele>
        <time>2018-03-24T16:56:37Z</time>
      </trkpt>
      <trkpt lat="43.8951" lon="7.72708">
        <ele>920.305</ele>
        <time>2018-03-24T16:56:39Z</time>
      </trkpt>
      <trkpt lat="43.89513" lon="7.7271">
        <ele>919.943</ele>
        <time>2018-03-24T16:56:42Z</time>
      </trkpt>
      <trkpt lat="43.89515" lon="7.72713">
        <ele>919.755</ele>
        <time>2018-03-24T16:56:44Z</time>
      </trkpt>
      <trkpt lat="43.89518" lon="7.72714">
        <ele>919.644</ele>
        <time>2018-03-24T16:56:46Z</time>
      </trkpt>
      <trkpt lat="43.89521" lon="7.72715">
        <ele>919.424</ele>
        <time>2018-03-24T16:56:49Z</time>
      </trkpt>
      <trkpt lat="43.89523" lon="7.72717">
        <ele>919.442</ele>
        <time>2018-03-24T16:56:52Z</time>
      </trkpt>
      <trkpt lat="43.89525" lon="7.72719">
        <ele>919.535</ele>
        <time>2018-03-24T16:56:54Z</time>
      </trkpt>
      <trkpt lat="43.89526" lon="7.72725">
        <ele>919.621</ele>
        <time>2018-03-24T16:56:58Z</time>
      </trkpt>
      <trkpt lat="43.89528" lon="7.7273">
        <ele>919.633</ele>
        <time>2018-03-24T16:57:01Z</time>
      </trkpt>
      <trkpt lat="43.89532" lon="7.72736">
        <ele>919.69</ele>
        <time>2018-03-24T16:57:04Z</time>
      </trkpt>
      <trkpt lat="43.89534" lon="7.72739">
        <ele>919.65</ele>
        <time>2018-03-24T16:57:07Z</time>
      </trkpt>
      <trkpt lat="43.89538" lon="7.72742">
        <ele>919.546</ele>
        <time>2018-03-24T16:57:09Z</time>
      </trkpt>
      <trkpt lat="43.89538" lon="7.72746">
        <ele>919.456</ele>
        <time>2018-03-24T16:57:13Z</time>
      </trkpt>
      <trkpt lat="43.89539" lon="7.72753">
        <ele>919.764</ele>
        <time>2018-03-24T16:57:19Z</time>
      </trkpt>
      <trkpt lat="43.89542" lon="7.72754">
        <ele>919.911</ele>
        <time>2018-03-24T16:57:21Z</time>
      </trkpt>
      <trkpt lat="43.89545" lon="7.72755">
        <ele>920.243</ele>
        <time>2018-03-24T16:57:23Z</time>
      </trkpt>
      <trkpt lat="43.89548" lon="7.72757">
        <ele>920.804</ele>
        <time>2018-03-24T16:57:27Z</time>
      </trkpt>
      <trkpt lat="43.89552" lon="7.72758">
        <ele>921.104</ele>
        <time>2018-03-24T16:57:29Z</time>
      </trkpt>
      <trkpt lat="43.89556" lon="7.72761">
        <ele>921.432</ele>
        <time>2018-03-24T16:57:31Z</time>
      </trkpt>
      <trkpt lat="43.8956" lon="7.72763">
        <ele>921.636</ele>
        <time>2018-03-24T16:57:33Z</time>
      </trkpt>
      <trkpt lat="43.89564" lon="7.72764">
        <ele>921.762</ele>
        <time>2018-03-24T16:57:35Z</time>
      </trkpt>
      <trkpt lat="43.89568" lon="7.72768">
        <ele>921.878</ele>
        <time>2018-03-24T16:57:37Z</time>
      </trkpt>
      <trkpt lat="43.89575" lon="7.72772">
        <ele>921.886</ele>
        <time>2018-03-24T16:57:40Z</time>
      </trkpt>
      <trkpt lat="43.89575" lon="7.72776">
        <ele>921.824</ele>
        <time>2018-03-24T16:57:41Z</time>
      </trkpt>
      <trkpt lat="43.8958" lon="7.72778">
        <ele>921.884</ele>
        <time>2018-03-24T16:57:43Z</time>
      </trkpt>
      <trkpt lat="43.89583" lon="7.72781">
        <ele>922.096</ele>
        <time>2018-03-24T16:57:49Z</time>
      </trkpt>
      <trkpt lat="43.89587" lon="7.72784">
        <ele>922.112</ele>
        <time>2018-03-24T16:57:53Z</time>
      </trkpt>
      <trkpt lat="43.8959" lon="7.72787">
        <ele>921.952</ele>
        <time>2018-03-24T16:57:58Z</time>
      </trkpt>
      <trkpt lat="43.89594" lon="7.72789">
        <ele>921.817</ele>
        <time>2018-03-24T16:58:00Z</time>
      </trkpt>
      <trkpt lat="43.89598" lon="7.7279">
        <ele>921.721</ele>
        <time>2018-03-24T16:58:03Z</time>
      </trkpt>
      <trkpt lat="43.89601" lon="7.7279">
        <ele>921.887</ele>
        <time>2018-03-24T16:58:05Z</time>
      </trkpt>
      <trkpt lat="43.89606" lon="7.72791">
        <ele>922.09</ele>
        <time>2018-03-24T16:58:09Z</time>
      </trkpt>
      <trkpt lat="43.89608" lon="7.72792">
        <ele>922.157</ele>
        <time>2018-03-24T16:58:11Z</time>
      </trkpt>
      <trkpt lat="43.89613" lon="7.72792">
        <ele>922.3</ele>
        <time>2018-03-24T16:58:15Z</time>
      </trkpt>
      <trkpt lat="43.89616" lon="7.72791">
        <ele>922.377</ele>
        <time>2018-03-24T16:58:17Z</time>
      </trkpt>
      <trkpt lat="43.89621" lon="7.72789">
        <ele>922.474</ele>
        <time>2018-03-24T16:58:19Z</time>
      </trkpt>
      <trkpt lat="43.89624" lon="7.72788">
        <ele>922.589</ele>
        <time>2018-03-24T16:58:21Z</time>
      </trkpt>
      <trkpt lat="43.89628" lon="7.72786">
        <ele>922.787</ele>
        <time>2018-03-24T16:58:23Z</time>
      </trkpt>
      <trkpt lat="43.89632" lon="7.72785">
        <ele>922.819</ele>
        <time>2018-03-24T16:58:25Z</time>
      </trkpt>
      <trkpt lat="43.89636" lon="7.72783">
        <ele>923.053</ele>
        <time>2018-03-24T16:58:27Z</time>
      </trkpt>
      <trkpt lat="43.8964" lon="7.72779">
        <ele>923.445</ele>
        <time>2018-03-24T16:58:29Z</time>
      </trkpt>
      <trkpt lat="43.89644" lon="7.72778">
        <ele>923.728</ele>
        <time>2018-03-24T16:58:31Z</time>
      </trkpt>
      <trkpt lat="43.89648" lon="7.72776">
        <ele>923.939</ele>
        <time>2018-03-24T16:58:34Z</time>
      </trkpt>
      <trkpt lat="43.89651" lon="7.72776">
        <ele>924.236</ele>
        <time>2018-03-24T16:58:39Z</time>
      </trkpt>
      <trkpt lat="43.89655" lon="7.72775">
        <ele>924.439</ele>
        <time>2018-03-24T16:58:43Z</time>
      </trkpt>
      <trkpt lat="43.89659" lon="7.72773">
        <ele>924.406</ele>
        <time>2018-03-24T16:58:45Z</time>
      </trkpt>
      <trkpt lat="43.89662" lon="7.72771">
        <ele>924.359</ele>
        <time>2018-03-24T16:58:47Z</time>
      </trkpt>
      <trkpt lat="43.89666" lon="7.72772">
        <ele>924.411</ele>
        <time>2018-03-24T16:58:50Z</time>
      </trkpt>
      <trkpt lat="43.89669" lon="7.72771">
        <ele>924.357</ele>
        <time>2018-03-24T16:58:55Z</time>
      </trkpt>
      <trkpt lat="43.89673" lon="7.72769">
        <ele>924.242</ele>
        <time>2018-03-24T16:58:57Z</time>
      </trkpt>
      <trkpt lat="43.89677" lon="7.72767">
        <ele>924.114</ele>
        <time>2018-03-24T16:58:59Z</time>
      </trkpt>
      <trkpt lat="43.8968" lon="7.72767">
        <ele>923.993</ele>
        <time>2018-03-24T16:59:01Z</time>
      </trkpt>
      <trkpt lat="43.89682" lon="7.72765">
        <ele>923.94</ele>
        <time>2018-03-24T16:59:03Z</time>
      </trkpt>
      <trkpt lat="43.89685" lon="7.72763">
        <ele>924.067</ele>
        <time>2018-03-24T16:59:05Z</time>
      </trkpt>
      <trkpt lat="43.89688" lon="7.72759">
        <ele>924.325</ele>
        <time>2018-03-24T16:59:08Z</time>
      </trkpt>
      <trkpt lat="43.89691" lon="7.72758">
        <ele>924.656</ele>
        <time>2018-03-24T16:59:11Z</time>
      </trkpt>
      <trkpt lat="43.89695" lon="7.72757">
        <ele>924.954</ele>
        <time>2018-03-24T16:59:14Z</time>
      </trkpt>
      <trkpt lat="43.89697" lon="7.72758">
        <ele>925.175</ele>
        <time>2018-03-24T16:59:16Z</time>
      </trkpt>
      <trkpt lat="43.897" lon="7.72759">
        <ele>925.464</ele>
        <time>2018-03-24T16:59:18Z</time>
      </trkpt>
      <trkpt lat="43.89703" lon="7.72761">
        <ele>925.708</ele>
        <time>2018-03-24T16:59:20Z</time>
      </trkpt>
      <trkpt lat="43.89706" lon="7.72762">
        <ele>925.867</ele>
        <time>2018-03-24T16:59:23Z</time>
      </trkpt>
      <trkpt lat="43.89709" lon="7.72764">
        <ele>925.851</ele>
        <time>2018-03-24T16:59:27Z</time>
      </trkpt>
      <trkpt lat="43.89712" lon="7.72763">
        <ele>925.9</ele>
        <time>2018-03-24T16:59:29Z</time>
      </trkpt>
      <trkpt lat="43.89715" lon="7.72764">
        <ele>926.032</ele>
        <time>2018-03-24T16:59:31Z</time>
      </trkpt>
      <trkpt lat="43.89719" lon="7.72763">
        <ele>926.037</ele>
        <time>2018-03-24T16:59:34Z</time>
      </trkpt>
      <trkpt lat="43.89723" lon="7.72762">
        <ele>926.056</ele>
        <time>2018-03-24T16:59:37Z</time>
      </trkpt>
      <trkpt lat="43.89727" lon="7.7276">
        <ele>926.178</ele>
        <time>2018-03-24T16:59:40Z</time>
      </trkpt>
      <trkpt lat="43.8973" lon="7.72759">
        <ele>926.347</ele>
        <time>2018-03-24T16:59:42Z</time>
      </trkpt>
      <trkpt lat="43.89733" lon="7.72758">
        <ele>926.742</ele>
        <time>2018-03-24T16:59:45Z</time>
      </trkpt>
      <trkpt lat="43.89736" lon="7.72758">
        <ele>927.144</ele>
        <time>2018-03-24T16:59:47Z</time>
      </trkpt>
      <trkpt lat="43.8974" lon="7.72759">
        <ele>927.615</ele>
        <time>2018-03-24T16:59:50Z</time>
      </trkpt>
      <trkpt lat="43.89742" lon="7.72761">
        <ele>927.879</ele>
        <time>2018-03-24T16:59:53Z</time>
      </trkpt>
      <trkpt lat="43.89745" lon="7.72761">
        <ele>928.167</ele>
        <time>2018-03-24T16:59:55Z</time>
      </trkpt>
      <trkpt lat="43.89748" lon="7.72762">
        <ele>928.468</ele>
        <time>2018-03-24T16:59:57Z</time>
      </trkpt>
      <trkpt lat="43.89752" lon="7.72763">
        <ele>928.871</ele>
        <time>2018-03-24T17:00:00Z</time>
      </trkpt>
      <trkpt lat="43.89756" lon="7.72765">
        <ele>929.32</ele>
        <time>2018-03-24T17:00:03Z</time>
      </trkpt>
      <trkpt lat="43.89759" lon="7.72767">
        <ele>929.564</ele>
        <time>2018-03-24T17:00:06Z</time>
      </trkpt>
      <trkpt lat="43.89763" lon="7.72768">
        <ele>929.927</ele>
        <time>2018-03-24T17:00:10Z</time>
      </trkpt>
      <trkpt lat="43.89767" lon="7.72767">
        <ele>930.367</ele>
        <time>2018-03-24T17:00:13Z</time>
      </trkpt>
      <trkpt lat="43.8977" lon="7.72766">
        <ele>930.588</ele>
        <time>2018-03-24T17:00:16Z</time>
      </trkpt>
      <trkpt lat="43.89774" lon="7.72765">
        <ele>930.76</ele>
        <time>2018-03-24T17:00:18Z</time>
      </trkpt>
      <trkpt lat="43.89777" lon="7.72763">
        <ele>930.902</ele>
        <time>2018-03-24T17:00:20Z</time>
      </trkpt>
      <trkpt lat="43.8978" lon="7.72761">
        <ele>931.151</ele>
        <time>2018-03-24T17:00:23Z</time>
      </trkpt>
      <trkpt lat="43.89783" lon="7.72761">
        <ele>931.405</ele>
        <time>2018-03-24T17:00:26Z</time>
      </trkpt>
      <trkpt lat="43.89786" lon="7.7276">
        <ele>931.841</ele>
        <time>2018-03-24T17:00:29Z</time>
      </trkpt>
      <trkpt lat="43.89789" lon="7.7276">
        <ele>932.324</ele>
        <time>2018-03-24T17:00:33Z</time>
      </trkpt>
      <trkpt lat="43.89791" lon="7.72762">
        <ele>932.71</ele>
        <time>2018-03-24T17:00:37Z</time>
      </trkpt>
      <trkpt lat="43.89794" lon="7.72765">
        <ele>933.132</ele>
        <time>2018-03-24T17:00:40Z</time>
      </trkpt>
      <trkpt lat="43.89798" lon="7.72764">
        <ele>933.455</ele>
        <time>2018-03-24T17:00:43Z</time>
      </trkpt>
      <trkpt lat="43.89803" lon="7.72764">
        <ele>933.648</ele>
        <time>2018-03-24T17:00:45Z</time>
      </trkpt>
      <trkpt lat="43.89807" lon="7.72763">
        <ele>933.694</ele>
        <time>2018-03-24T17:00:47Z</time>
      </trkpt>
      <trkpt lat="43.8981" lon="7.72764">
        <ele>933.651</ele>
        <time>2018-03-24T17:00:50Z</time>
      </trkpt>
      <trkpt lat="43.89812" lon="7.72765">
        <ele>933.711</ele>
        <time>2018-03-24T17:00:53Z</time>
      </trkpt>
      <trkpt lat="43.89816" lon="7.72765">
        <ele>933.71</ele>
        <time>2018-03-24T17:00:58Z</time>
      </trkpt>
      <trkpt lat="43.8982" lon="7.72766">
        <ele>933.666</ele>
        <time>2018-03-24T17:01:00Z</time>
      </trkpt>
      <trkpt lat="43.89823" lon="7.7277">
        <ele>934.021</ele>
        <time>2018-03-24T17:01:03Z</time>
      </trkpt>
      <trkpt lat="43.89824" lon="7.72774">
        <ele>934.262</ele>
        <time>2018-03-24T17:01:14Z</time>
      </trkpt>
      <trkpt lat="43.89828" lon="7.72776">
        <ele>934.703</ele>
        <time>2018-03-24T17:01:21Z</time>
      </trkpt>
      <trkpt lat="43.89832" lon="7.72778">
        <ele>935.415</ele>
        <time>2018-03-24T17:01:24Z</time>
      </trkpt>
      <trkpt lat="43.89835" lon="7.72776">
        <ele>936.245</ele>
        <time>2018-03-24T17:01:30Z</time>
      </trkpt>
      <trkpt lat="43.8984" lon="7.72776">
        <ele>936.901</ele>
        <time>2018-03-24T17:01:34Z</time>
      </trkpt>
      <trkpt lat="43.89843" lon="7.72776">
        <ele>937.274</ele>
        <time>2018-03-24T17:01:37Z</time>
      </trkpt>
      <trkpt lat="43.89846" lon="7.72776">
        <ele>937.559</ele>
        <time>2018-03-24T17:01:39Z</time>
      </trkpt>
      <trkpt lat="43.89849" lon="7.72776">
        <ele>937.744</ele>
        <time>2018-03-24T17:01:41Z</time>
      </trkpt>
      <trkpt lat="43.89853" lon="7.72776">
        <ele>937.952</ele>
        <time>2018-03-24T17:01:43Z</time>
      </trkpt>
      <trkpt lat="43.89856" lon="7.72775">
        <ele>938.406</ele>
        <time>2018-03-24T17:01:46Z</time>
      </trkpt>
      <trkpt lat="43.89859" lon="7.72775">
        <ele>938.696</ele>
        <time>2018-03-24T17:01:48Z</time>
      </trkpt>
      <trkpt lat="43.89862" lon="7.72774">
        <ele>938.915</ele>
        <time>2018-03-24T17:01:51Z</time>
      </trkpt>
      <trkpt lat="43.89867" lon="7.72773">
        <ele>939.129</ele>
        <time>2018-03-24T17:01:54Z</time>
      </trkpt>
      <trkpt lat="43.8987" lon="7.72772">
        <ele>939.32</ele>
        <time>2018-03-24T17:01:56Z</time>
      </trkpt>
      <trkpt lat="43.89873" lon="7.72771">
        <ele>939.712</ele>
        <time>2018-03-24T17:01:58Z</time>
      </trkpt>
      <trkpt lat="43.89876" lon="7.7277">
        <ele>940.151</ele>
        <time>2018-03-24T17:02:00Z</time>
      </trkpt>
      <trkpt lat="43.89879" lon="7.72769">
        <ele>940.83</ele>
        <time>2018-03-24T17:02:03Z</time>
      </trkpt>
      <trkpt lat="43.89882" lon="7.72768">
        <ele>941.597</ele>
        <time>2018-03-24T17:02:06Z</time>
      </trkpt>
      <trkpt lat="43.89886" lon="7.72764">
        <ele>942.075</ele>
        <time>2018-03-24T17:02:09Z</time>
      </trkpt>
      <trkpt lat="43.89889" lon="7.72762">
        <ele>942.4</ele>
        <time>2018-03-24T17:02:11Z</time>
      </trkpt>
      <trkpt lat="43.89893" lon="7.72759">
        <ele>942.745</ele>
        <time>2018-03-24T17:02:14Z</time>
      </trkpt>
      <trkpt lat="43.89896" lon="7.72757">
        <ele>943.05</ele>
        <time>2018-03-24T17:02:17Z</time>
      </trkpt>
      <trkpt lat="43.89899" lon="7.72755">
        <ele>943.59</ele>
        <time>2018-03-24T17:02:20Z</time>
      </trkpt>
      <trkpt lat="43.899" lon="7.7275">
        <ele>944.764</ele>
        <time>2018-03-24T17:02:25Z</time>
      </trkpt>
      <trkpt lat="43.89902" lon="7.72747">
        <ele>945.562</ele>
        <time>2018-03-24T17:02:28Z</time>
      </trkpt>
      <trkpt lat="43.89905" lon="7.72744">
        <ele>946.03</ele>
        <time>2018-03-24T17:02:30Z</time>
      </trkpt>
      <trkpt lat="43.89908" lon="7.72743">
        <ele>946.463</ele>
        <time>2018-03-24T17:02:32Z</time>
      </trkpt>
      <trkpt lat="43.89911" lon="7.72738">
        <ele>947.721</ele>
        <time>2018-03-24T17:02:42Z</time>
      </trkpt>
      <trkpt lat="43.89915" lon="7.72733">
        <ele>947.932</ele>
        <time>2018-03-24T17:02:45Z</time>
      </trkpt>
      <trkpt lat="43.89919" lon="7.72733">
        <ele>948.004</ele>
        <time>2018-03-24T17:02:47Z</time>
      </trkpt>
      <trkpt lat="43.89922" lon="7.72731">
        <ele>948.025</ele>
        <time>2018-03-24T17:02:49Z</time>
      </trkpt>
      <trkpt lat="43.89925" lon="7.7273">
        <ele>948.175</ele>
        <time>2018-03-24T17:02:52Z</time>
      </trkpt>
      <trkpt lat="43.89927" lon="7.72728">
        <ele>948.185</ele>
        <time>2018-03-24T17:02:54Z</time>
      </trkpt>
      <trkpt lat="43.8993" lon="7.72725">
        <ele>948.381</ele>
        <time>2018-03-24T17:02:57Z</time>
      </trkpt>
      <trkpt lat="43.89933" lon="7.72724">
        <ele>948.725</ele>
        <time>2018-03-24T17:03:00Z</time>
      </trkpt>
      <trkpt lat="43.89936" lon="7.72722">
        <ele>948.965</ele>
        <time>2018-03-24T17:03:02Z</time>
      </trkpt>
      <trkpt lat="43.89939" lon="7.7272">
        <ele>949.251</ele>
        <time>2018-03-24T17:03:05Z</time>
      </trkpt>
      <trkpt lat="43.89942" lon="7.72718">
        <ele>949.511</ele>
        <time>2018-03-24T17:03:09Z</time>
      </trkpt>
      <trkpt lat="43.89943" lon="7.72715">
        <ele>949.011</ele>
        <time>2018-03-24T17:03:17Z</time>
      </trkpt>
      <trkpt lat="43.89946" lon="7.72711">
        <ele>948.832</ele>
        <time>2018-03-24T17:03:19Z</time>
      </trkpt>
      <trkpt lat="43.8995" lon="7.72705">
        <ele>948.673</ele>
        <time>2018-03-24T17:03:21Z</time>
      </trkpt>
      <trkpt lat="43.89954" lon="7.72701">
        <ele>948.917</ele>
        <time>2018-03-24T17:03:23Z</time>
      </trkpt>
      <trkpt lat="43.89958" lon="7.727">
        <ele>948.865</ele>
        <time>2018-03-24T17:03:25Z</time>
      </trkpt>
      <trkpt lat="43.8996" lon="7.72699">
        <ele>948.887</ele>
        <time>2018-03-24T17:03:27Z</time>
      </trkpt>
      <trkpt lat="43.89963" lon="7.72697">
        <ele>948.958</ele>
        <time>2018-03-24T17:03:29Z</time>
      </trkpt>
      <trkpt lat="43.89968" lon="7.72696">
        <ele>949.074</ele>
        <time>2018-03-24T17:03:31Z</time>
      </trkpt>
      <trkpt lat="43.8997" lon="7.72693">
        <ele>949.107</ele>
        <time>2018-03-24T17:03:34Z</time>
      </trkpt>
      <trkpt lat="43.89974" lon="7.72691">
        <ele>949.226</ele>
        <time>2018-03-24T17:03:37Z</time>
      </trkpt>
      <trkpt lat="43.89977" lon="7.7269">
        <ele>949.235</ele>
        <time>2018-03-24T17:03:40Z</time>
      </trkpt>
      <trkpt lat="43.8998" lon="7.72687">
        <ele>949.264</ele>
        <time>2018-03-24T17:03:42Z</time>
      </trkpt>
      <trkpt lat="43.89983" lon="7.72686">
        <ele>949.308</ele>
        <time>2018-03-24T17:03:44Z</time>
      </trkpt>
      <trkpt lat="43.89984" lon="7.72682">
        <ele>949.239</ele>
        <time>2018-03-24T17:03:46Z</time>
      </trkpt>
      <trkpt lat="43.89987" lon="7.72679">
        <ele>949.066</ele>
        <time>2018-03-24T17:03:50Z</time>
      </trkpt>
      <trkpt lat="43.8999" lon="7.72675">
        <ele>949.207</ele>
        <time>2018-03-24T17:03:53Z</time>
      </trkpt>
      <trkpt lat="43.89992" lon="7.72673">
        <ele>949.073</ele>
        <time>2018-03-24T17:03:55Z</time>
      </trkpt>
      <trkpt lat="43.89996" lon="7.72669">
        <ele>948.871</ele>
        <time>2018-03-24T17:03:58Z</time>
      </trkpt>
      <trkpt lat="43.89999" lon="7.72668">
        <ele>948.905</ele>
        <time>2018-03-24T17:04:00Z</time>
      </trkpt>
      <trkpt lat="43.90002" lon="7.72666">
        <ele>949.154</ele>
        <time>2018-03-24T17:04:02Z</time>
      </trkpt>
      <trkpt lat="43.90005" lon="7.72664">
        <ele>949.192</ele>
        <time>2018-03-24T17:04:04Z</time>
      </trkpt>
      <trkpt lat="43.90008" lon="7.72662">
        <ele>949.175</ele>
        <time>2018-03-24T17:04:06Z</time>
      </trkpt>
      <trkpt lat="43.9001" lon="7.72658">
        <ele>949.038</ele>
        <time>2018-03-24T17:04:08Z</time>
      </trkpt>
      <trkpt lat="43.90013" lon="7.72656">
        <ele>949.124</ele>
        <time>2018-03-24T17:04:10Z</time>
      </trkpt>
      <trkpt lat="43.90016" lon="7.72655">
        <ele>949.275</ele>
        <time>2018-03-24T17:04:12Z</time>
      </trkpt>
      <trkpt lat="43.90019" lon="7.72653">
        <ele>949.514</ele>
        <time>2018-03-24T17:04:14Z</time>
      </trkpt>
      <trkpt lat="43.90022" lon="7.72651">
        <ele>950.544</ele>
        <time>2018-03-24T17:04:19Z</time>
      </trkpt>
      <trkpt lat="43.90025" lon="7.72647">
        <ele>950.946</ele>
        <time>2018-03-24T17:04:22Z</time>
      </trkpt>
      <trkpt lat="43.90027" lon="7.72645">
        <ele>950.949</ele>
        <time>2018-03-24T17:04:24Z</time>
      </trkpt>
      <trkpt lat="43.90029" lon="7.7264">
        <ele>950.812</ele>
        <time>2018-03-24T17:04:29Z</time>
      </trkpt>
      <trkpt lat="43.9003" lon="7.72636">
        <ele>950.774</ele>
        <time>2018-03-24T17:04:31Z</time>
      </trkpt>
      <trkpt lat="43.90032" lon="7.7263">
        <ele>950.709</ele>
        <time>2018-03-24T17:04:33Z</time>
      </trkpt>
      <trkpt lat="43.90033" lon="7.72627">
        <ele>950.779</ele>
        <time>2018-03-24T17:04:35Z</time>
      </trkpt>
      <trkpt lat="43.90037" lon="7.72625">
        <ele>950.838</ele>
        <time>2018-03-24T17:04:38Z</time>
      </trkpt>
      <trkpt lat="43.9004" lon="7.72624">
        <ele>950.855</ele>
        <time>2018-03-24T17:04:40Z</time>
      </trkpt>
      <trkpt lat="43.90043" lon="7.72621">
        <ele>950.969</ele>
        <time>2018-03-24T17:04:43Z</time>
      </trkpt>
      <trkpt lat="43.90046" lon="7.72617">
        <ele>950.993</ele>
        <time>2018-03-24T17:04:46Z</time>
      </trkpt>
      <trkpt lat="43.90053" lon="7.72612">
        <ele>950.83</ele>
        <time>2018-03-24T17:04:50Z</time>
      </trkpt>
      <trkpt lat="43.90057" lon="7.72611">
        <ele>950.773</ele>
        <time>2018-03-24T17:04:52Z</time>
      </trkpt>
      <trkpt lat="43.9006" lon="7.72609">
        <ele>950.499</ele>
        <time>2018-03-24T17:04:55Z</time>
      </trkpt>
      <trkpt lat="43.90062" lon="7.72604">
        <ele>950</ele>
        <time>2018-03-24T17:04:58Z</time>
      </trkpt>
      <trkpt lat="43.90065" lon="7.72602">
        <ele>949.59</ele>
        <time>2018-03-24T17:05:01Z</time>
      </trkpt>
      <trkpt lat="43.90068" lon="7.72599">
        <ele>949.207</ele>
        <time>2018-03-24T17:05:04Z</time>
      </trkpt>
      <trkpt lat="43.9007" lon="7.72595">
        <ele>948.937</ele>
        <time>2018-03-24T17:05:06Z</time>
      </trkpt>
      <trkpt lat="43.90074" lon="7.72593">
        <ele>948.58</ele>
        <time>2018-03-24T17:05:09Z</time>
      </trkpt>
      <trkpt lat="43.90078" lon="7.72593">
        <ele>948.108</ele>
        <time>2018-03-24T17:05:13Z</time>
      </trkpt>
      <trkpt lat="43.90081" lon="7.72591">
        <ele>947.614</ele>
        <time>2018-03-24T17:05:17Z</time>
      </trkpt>
      <trkpt lat="43.90085" lon="7.72591">
        <ele>947.081</ele>
        <time>2018-03-24T17:05:24Z</time>
      </trkpt>
      <trkpt lat="43.90088" lon="7.72591">
        <ele>946.937</ele>
        <time>2018-03-24T17:05:27Z</time>
      </trkpt>
      <trkpt lat="43.90091" lon="7.72591">
        <ele>946.56</ele>
        <time>2018-03-24T17:05:32Z</time>
      </trkpt>
      <trkpt lat="43.90094" lon="7.7259">
        <ele>946.52</ele>
        <time>2018-03-24T17:05:34Z</time>
      </trkpt>
      <trkpt lat="43.90097" lon="7.7259">
        <ele>946.402</ele>
        <time>2018-03-24T17:05:36Z</time>
      </trkpt>
      <trkpt lat="43.90101" lon="7.72592">
        <ele>946.273</ele>
        <time>2018-03-24T17:05:38Z</time>
      </trkpt>
      <trkpt lat="43.90103" lon="7.72596">
        <ele>946.091</ele>
        <time>2018-03-24T17:05:41Z</time>
      </trkpt>
      <trkpt lat="43.90107" lon="7.72599">
        <ele>944.159</ele>
        <time>2018-03-24T17:05:48Z</time>
      </trkpt>
      <trkpt lat="43.9011" lon="7.72599">
        <ele>943.737</ele>
        <time>2018-03-24T17:05:52Z</time>
      </trkpt>
      <trkpt lat="43.90113" lon="7.72599">
        <ele>943.43</ele>
        <time>2018-03-24T17:05:54Z</time>
      </trkpt>
      <trkpt lat="43.90116" lon="7.726">
        <ele>943.169</ele>
        <time>2018-03-24T17:05:56Z</time>
      </trkpt>
      <trkpt lat="43.90119" lon="7.726">
        <ele>943.141</ele>
        <time>2018-03-24T17:06:03Z</time>
      </trkpt>
      <trkpt lat="43.90119" lon="7.72596">
        <ele>942.682</ele>
        <time>2018-03-24T17:06:11Z</time>
      </trkpt>
      <trkpt lat="43.90117" lon="7.72592">
        <ele>942.2</ele>
        <time>2018-03-24T17:06:15Z</time>
      </trkpt>
      <trkpt lat="43.90115" lon="7.72589">
        <ele>942.139</ele>
        <time>2018-03-24T17:06:19Z</time>
      </trkpt>
      <trkpt lat="43.90113" lon="7.72585">
        <ele>941.977</ele>
        <time>2018-03-24T17:06:21Z</time>
      </trkpt>
      <trkpt lat="43.90111" lon="7.72582">
        <ele>941.868</ele>
        <time>2018-03-24T17:06:25Z</time>
      </trkpt>
      <trkpt lat="43.90109" lon="7.72579">
        <ele>941.797</ele>
        <time>2018-03-24T17:06:28Z</time>
      </trkpt>
      <trkpt lat="43.90107" lon="7.72575">
        <ele>941.699</ele>
        <time>2018-03-24T17:06:30Z</time>
      </trkpt>
      <trkpt lat="43.90106" lon="7.72571">
        <ele>941.422</ele>
        <time>2018-03-24T17:06:32Z</time>
      </trkpt>
      <trkpt lat="43.90105" lon="7.72567">
        <ele>940.965</ele>
        <time>2018-03-24T17:06:34Z</time>
      </trkpt>
      <trkpt lat="43.90103" lon="7.72564">
        <ele>940.002</ele>
        <time>2018-03-24T17:06:37Z</time>
      </trkpt>
      <trkpt lat="43.901" lon="7.7256">
        <ele>939.541</ele>
        <time>2018-03-24T17:06:40Z</time>
      </trkpt>
      <trkpt lat="43.90098" lon="7.72556">
        <ele>939.469</ele>
        <time>2018-03-24T17:06:42Z</time>
      </trkpt>
      <trkpt lat="43.90096" lon="7.72552">
        <ele>939.293</ele>
        <time>2018-03-24T17:06:44Z</time>
      </trkpt>
      <trkpt lat="43.90095" lon="7.72548">
        <ele>939.224</ele>
        <time>2018-03-24T17:06:46Z</time>
      </trkpt>
      <trkpt lat="43.90093" lon="7.72545">
        <ele>939.171</ele>
        <time>2018-03-24T17:06:48Z</time>
      </trkpt>
      <trkpt lat="43.90091" lon="7.72542">
        <ele>939.103</ele>
        <time>2018-03-24T17:06:50Z</time>
      </trkpt>
      <trkpt lat="43.90089" lon="7.72539">
        <ele>938.976</ele>
        <time>2018-03-24T17:06:52Z</time>
      </trkpt>
      <trkpt lat="43.90087" lon="7.72534">
        <ele>938.65</ele>
        <time>2018-03-24T17:06:54Z</time>
      </trkpt>
      <trkpt lat="43.90085" lon="7.72532">
        <ele>938.301</ele>
        <time>2018-03-24T17:06:57Z</time>
      </trkpt>
      <trkpt lat="43.90082" lon="7.72531">
        <ele>937.772</ele>
        <time>2018-03-24T17:07:00Z</time>
      </trkpt>
      <trkpt lat="43.90079" lon="7.72532">
        <ele>937.183</ele>
        <time>2018-03-24T17:07:03Z</time>
      </trkpt>
      <trkpt lat="43.90076" lon="7.72533">
        <ele>937.077</ele>
        <time>2018-03-24T17:07:05Z</time>
      </trkpt>
      <trkpt lat="43.90075" lon="7.72536">
        <ele>936.851</ele>
        <time>2018-03-24T17:07:08Z</time>
      </trkpt>
      <trkpt lat="43.90073" lon="7.72539">
        <ele>935.037</ele>
        <time>2018-03-24T17:07:24Z</time>
      </trkpt>
      <trkpt lat="43.90069" lon="7.7254">
        <ele>933.879</ele>
        <time>2018-03-24T17:07:29Z</time>
      </trkpt>
      <trkpt lat="43.90066" lon="7.72541">
        <ele>933.364</ele>
        <time>2018-03-24T17:07:31Z</time>
      </trkpt>
      <trkpt lat="43.90063" lon="7.72542">
        <ele>932.319</ele>
        <time>2018-03-24T17:07:34Z</time>
      </trkpt>
      <trkpt lat="43.90059" lon="7.7254">
        <ele>931.695</ele>
        <time>2018-03-24T17:07:36Z</time>
      </trkpt>
      <trkpt lat="43.90056" lon="7.72538">
        <ele>931.145</ele>
        <time>2018-03-24T17:07:39Z</time>
      </trkpt>
      <trkpt lat="43.90053" lon="7.72538">
        <ele>930.773</ele>
        <time>2018-03-24T17:07:41Z</time>
      </trkpt>
      <trkpt lat="43.9005" lon="7.72537">
        <ele>930.127</ele>
        <time>2018-03-24T17:07:44Z</time>
      </trkpt>
      <trkpt lat="43.90047" lon="7.72535">
        <ele>929.851</ele>
        <time>2018-03-24T17:07:46Z</time>
      </trkpt>
      <trkpt lat="43.90044" lon="7.72534">
        <ele>929.741</ele>
        <time>2018-03-24T17:07:48Z</time>
      </trkpt>
      <trkpt lat="43.90042" lon="7.72533">
        <ele>929.609</ele>
        <time>2018-03-24T17:07:50Z</time>
      </trkpt>
      <trkpt lat="43.90039" lon="7.72532">
        <ele>929.247</ele>
        <time>2018-03-24T17:07:54Z</time>
      </trkpt>
      <trkpt lat="43.90036" lon="7.7253">
        <ele>928.882</ele>
        <time>2018-03-24T17:08:00Z</time>
      </trkpt>
      <trkpt lat="43.90038" lon="7.72528">
        <ele>927.667</ele>
        <time>2018-03-24T17:08:20Z</time>
      </trkpt>
      <trkpt lat="43.90037" lon="7.72524">
        <ele>926.495</ele>
        <time>2018-03-24T17:08:53Z</time>
      </trkpt>
      <trkpt lat="43.90034" lon="7.7252">
        <ele>926.625</ele>
        <time>2018-03-24T17:08:55Z</time>
      </trkpt>
      <trkpt lat="43.90031" lon="7.7252">
        <ele>926.658</ele>
        <time>2018-03-24T17:08:58Z</time>
      </trkpt>
      <trkpt lat="43.90027" lon="7.72519">
        <ele>926.822</ele>
        <time>2018-03-24T17:09:00Z</time>
      </trkpt>
      <trkpt lat="43.90024" lon="7.72518">
        <ele>926.896</ele>
        <time>2018-03-24T17:09:03Z</time>
      </trkpt>
      <trkpt lat="43.90021" lon="7.72517">
        <ele>926.932</ele>
        <time>2018-03-24T17:09:05Z</time>
      </trkpt>
      <trkpt lat="43.90018" lon="7.72516">
        <ele>927.14</ele>
        <time>2018-03-24T17:09:08Z</time>
      </trkpt>
      <trkpt lat="43.90015" lon="7.72515">
        <ele>927.158</ele>
        <time>2018-03-24T17:09:12Z</time>
      </trkpt>
      <trkpt lat="43.90012" lon="7.72514">
        <ele>926.843</ele>
        <time>2018-03-24T17:09:16Z</time>
      </trkpt>
      <trkpt lat="43.90009" lon="7.72513">
        <ele>926.436</ele>
        <time>2018-03-24T17:09:20Z</time>
      </trkpt>
      <trkpt lat="43.90005" lon="7.72513">
        <ele>926.156</ele>
        <time>2018-03-24T17:09:23Z</time>
      </trkpt>
      <trkpt lat="43.90001" lon="7.7251">
        <ele>925.9</ele>
        <time>2018-03-24T17:09:26Z</time>
      </trkpt>
      <trkpt lat="43.89999" lon="7.7251">
        <ele>925.598</ele>
        <time>2018-03-24T17:09:31Z</time>
      </trkpt>
      <trkpt lat="43.89996" lon="7.7251">
        <ele>925.504</ele>
        <time>2018-03-24T17:09:34Z</time>
      </trkpt>
      <trkpt lat="43.89992" lon="7.7251">
        <ele>925.421</ele>
        <time>2018-03-24T17:09:36Z</time>
      </trkpt>
      <trkpt lat="43.89989" lon="7.72509">
        <ele>925.291</ele>
        <time>2018-03-24T17:09:38Z</time>
      </trkpt>
      <trkpt lat="43.89986" lon="7.72506">
        <ele>924.852</ele>
        <time>2018-03-24T17:09:41Z</time>
      </trkpt>
      <trkpt lat="43.89985" lon="7.72502">
        <ele>924.502</ele>
        <time>2018-03-24T17:09:44Z</time>
      </trkpt>
      <trkpt lat="43.89989" lon="7.72503">
        <ele>923.623</ele>
        <time>2018-03-24T17:09:52Z</time>
      </trkpt>
      <trkpt lat="43.89993" lon="7.72501">
        <ele>923.312</ele>
        <time>2018-03-24T17:09:54Z</time>
      </trkpt>
      <trkpt lat="43.89996" lon="7.72501">
        <ele>923.067</ele>
        <time>2018-03-24T17:09:56Z</time>
      </trkpt>
      <trkpt lat="43.9" lon="7.72502">
        <ele>922.732</ele>
        <time>2018-03-24T17:09:58Z</time>
      </trkpt>
      <trkpt lat="43.90003" lon="7.72503">
        <ele>922.419</ele>
        <time>2018-03-24T17:10:01Z</time>
      </trkpt>
      <trkpt lat="43.90007" lon="7.72502">
        <ele>922.079</ele>
        <time>2018-03-24T17:10:03Z</time>
      </trkpt>
      <trkpt lat="43.9001" lon="7.72503">
        <ele>921.457</ele>
        <time>2018-03-24T17:10:07Z</time>
      </trkpt>
      <trkpt lat="43.90014" lon="7.72504">
        <ele>921.17</ele>
        <time>2018-03-24T17:10:10Z</time>
      </trkpt>
      <trkpt lat="43.90017" lon="7.72506">
        <ele>920.803</ele>
        <time>2018-03-24T17:10:15Z</time>
      </trkpt>
      <trkpt lat="43.9002" lon="7.72506">
        <ele>920.569</ele>
        <time>2018-03-24T17:10:18Z</time>
      </trkpt>
      <trkpt lat="43.90023" lon="7.72505">
        <ele>920.368</ele>
        <time>2018-03-24T17:10:20Z</time>
      </trkpt>
      <trkpt lat="43.90027" lon="7.72509">
        <ele>920.134</ele>
        <time>2018-03-24T17:10:22Z</time>
      </trkpt>
      <trkpt lat="43.9003" lon="7.72511">
        <ele>919.909</ele>
        <time>2018-03-24T17:10:24Z</time>
      </trkpt>
      <trkpt lat="43.90032" lon="7.72514">
        <ele>919.769</ele>
        <time>2018-03-24T17:10:26Z</time>
      </trkpt>
      <trkpt lat="43.90035" lon="7.72514">
        <ele>919.491</ele>
        <time>2018-03-24T17:10:29Z</time>
      </trkpt>
      <trkpt lat="43.90038" lon="7.72514">
        <ele>919.286</ele>
        <time>2018-03-24T17:10:32Z</time>
      </trkpt>
      <trkpt lat="43.90042" lon="7.72513">
        <ele>918.85</ele>
        <time>2018-03-24T17:10:36Z</time>
      </trkpt>
      <trkpt lat="43.90046" lon="7.72515">
        <ele>918.581</ele>
        <time>2018-03-24T17:10:38Z</time>
      </trkpt>
      <trkpt lat="43.90049" lon="7.72517">
        <ele>918.431</ele>
        <time>2018-03-24T17:10:40Z</time>
      </trkpt>
      <trkpt lat="43.90054" lon="7.72517">
        <ele>918.11</ele>
        <time>2018-03-24T17:10:43Z</time>
      </trkpt>
      <trkpt lat="43.90057" lon="7.72518">
        <ele>917.964</ele>
        <time>2018-03-24T17:10:45Z</time>
      </trkpt>
      <trkpt lat="43.9006" lon="7.72519">
        <ele>917.747</ele>
        <time>2018-03-24T17:10:47Z</time>
      </trkpt>
      <trkpt lat="43.90064" lon="7.72519">
        <ele>917.731</ele>
        <time>2018-03-24T17:10:50Z</time>
      </trkpt>
      <trkpt lat="43.90068" lon="7.72517">
        <ele>917.642</ele>
        <time>2018-03-24T17:10:53Z</time>
      </trkpt>
      <trkpt lat="43.90071" lon="7.72516">
        <ele>917.432</ele>
        <time>2018-03-24T17:10:55Z</time>
      </trkpt>
      <trkpt lat="43.90073" lon="7.72513">
        <ele>917.329</ele>
        <time>2018-03-24T17:10:57Z</time>
      </trkpt>
      <trkpt lat="43.90076" lon="7.7251">
        <ele>917.283</ele>
        <time>2018-03-24T17:10:59Z</time>
      </trkpt>
      <trkpt lat="43.9008" lon="7.72507">
        <ele>917.038</ele>
        <time>2018-03-24T17:11:02Z</time>
      </trkpt>
      <trkpt lat="43.90083" lon="7.72504">
        <ele>916.859</ele>
        <time>2018-03-24T17:11:05Z</time>
      </trkpt>
      <trkpt lat="43.90087" lon="7.72502">
        <ele>916.678</ele>
        <time>2018-03-24T17:11:07Z</time>
      </trkpt>
      <trkpt lat="43.90089" lon="7.725">
        <ele>916.561</ele>
        <time>2018-03-24T17:11:09Z</time>
      </trkpt>
      <trkpt lat="43.90092" lon="7.72498">
        <ele>916.598</ele>
        <time>2018-03-24T17:11:11Z</time>
      </trkpt>
      <trkpt lat="43.90095" lon="7.72496">
        <ele>916.659</ele>
        <time>2018-03-24T17:11:13Z</time>
      </trkpt>
      <trkpt lat="43.90099" lon="7.72496">
        <ele>916.572</ele>
        <time>2018-03-24T17:11:16Z</time>
      </trkpt>
      <trkpt lat="43.90102" lon="7.72494">
        <ele>916.481</ele>
        <time>2018-03-24T17:11:19Z</time>
      </trkpt>
      <trkpt lat="43.90105" lon="7.72493">
        <ele>916.503</ele>
        <time>2018-03-24T17:11:21Z</time>
      </trkpt>
      <trkpt lat="43.90109" lon="7.72496">
        <ele>916.513</ele>
        <time>2018-03-24T17:11:24Z</time>
      </trkpt>
      <trkpt lat="43.90111" lon="7.725">
        <ele>916.531</ele>
        <time>2018-03-24T17:11:26Z</time>
      </trkpt>
      <trkpt lat="43.90113" lon="7.72503">
        <ele>916.378</ele>
        <time>2018-03-24T17:11:28Z</time>
      </trkpt>
      <trkpt lat="43.90114" lon="7.72507">
        <ele>916.415</ele>
        <time>2018-03-24T17:11:31Z</time>
      </trkpt>
      <trkpt lat="43.90114" lon="7.72511">
        <ele>916.309</ele>
        <time>2018-03-24T17:11:34Z</time>
      </trkpt>
      <trkpt lat="43.90116" lon="7.72514">
        <ele>916.329</ele>
        <time>2018-03-24T17:11:36Z</time>
      </trkpt>
      <trkpt lat="43.90118" lon="7.72517">
        <ele>916.415</ele>
        <time>2018-03-24T17:11:38Z</time>
      </trkpt>
      <trkpt lat="43.90119" lon="7.72521">
        <ele>916.412</ele>
        <time>2018-03-24T17:11:40Z</time>
      </trkpt>
      <trkpt lat="43.90121" lon="7.72526">
        <ele>916.344</ele>
        <time>2018-03-24T17:11:42Z</time>
      </trkpt>
      <trkpt lat="43.90124" lon="7.7253">
        <ele>916.351</ele>
        <time>2018-03-24T17:11:44Z</time>
      </trkpt>
      <trkpt lat="43.90125" lon="7.72533">
        <ele>916.132</ele>
        <time>2018-03-24T17:11:47Z</time>
      </trkpt>
      <trkpt lat="43.90127" lon="7.72537">
        <ele>915.991</ele>
        <time>2018-03-24T17:11:49Z</time>
      </trkpt>
      <trkpt lat="43.9013" lon="7.7254">
        <ele>915.779</ele>
        <time>2018-03-24T17:11:52Z</time>
      </trkpt>
      <trkpt lat="43.90133" lon="7.72542">
        <ele>915.45</ele>
        <time>2018-03-24T17:11:55Z</time>
      </trkpt>
      <trkpt lat="43.90136" lon="7.72546">
        <ele>915.146</ele>
        <time>2018-03-24T17:11:59Z</time>
      </trkpt>
      <trkpt lat="43.90138" lon="7.72549">
        <ele>915.293</ele>
        <time>2018-03-24T17:12:01Z</time>
      </trkpt>
      <trkpt lat="43.90141" lon="7.72553">
        <ele>915.42</ele>
        <time>2018-03-24T17:12:03Z</time>
      </trkpt>
      <trkpt lat="43.90144" lon="7.72554">
        <ele>915.427</ele>
        <time>2018-03-24T17:12:05Z</time>
      </trkpt>
      <trkpt lat="43.90148" lon="7.72555">
        <ele>915.356</ele>
        <time>2018-03-24T17:12:08Z</time>
      </trkpt>
      <trkpt lat="43.90151" lon="7.72555">
        <ele>915.389</ele>
        <time>2018-03-24T17:12:10Z</time>
      </trkpt>
      <trkpt lat="43.90154" lon="7.72555">
        <ele>915.542</ele>
        <time>2018-03-24T17:12:12Z</time>
      </trkpt>
      <trkpt lat="43.90158" lon="7.72555">
        <ele>915.613</ele>
        <time>2018-03-24T17:12:14Z</time>
      </trkpt>
      <trkpt lat="43.90161" lon="7.72554">
        <ele>915.578</ele>
        <time>2018-03-24T17:12:16Z</time>
      </trkpt>
      <trkpt lat="43.90165" lon="7.72554">
        <ele>915.61</ele>
        <time>2018-03-24T17:12:18Z</time>
      </trkpt>
      <trkpt lat="43.90168" lon="7.72553">
        <ele>915.676</ele>
        <time>2018-03-24T17:12:20Z</time>
      </trkpt>
      <trkpt lat="43.90171" lon="7.72552">
        <ele>915.614</ele>
        <time>2018-03-24T17:12:23Z</time>
      </trkpt>
      <trkpt lat="43.90174" lon="7.72551">
        <ele>915.541</ele>
        <time>2018-03-24T17:12:26Z</time>
      </trkpt>
      <trkpt lat="43.90178" lon="7.7255">
        <ele>915.622</ele>
        <time>2018-03-24T17:12:29Z</time>
      </trkpt>
      <trkpt lat="43.90181" lon="7.7255">
        <ele>915.617</ele>
        <time>2018-03-24T17:12:31Z</time>
      </trkpt>
      <trkpt lat="43.90184" lon="7.72549">
        <ele>915.476</ele>
        <time>2018-03-24T17:12:34Z</time>
      </trkpt>
      <trkpt lat="43.90187" lon="7.72548">
        <ele>915.425</ele>
        <time>2018-03-24T17:12:37Z</time>
      </trkpt>
      <trkpt lat="43.9019" lon="7.72548">
        <ele>915.439</ele>
        <time>2018-03-24T17:12:39Z</time>
      </trkpt>
      <trkpt lat="43.90194" lon="7.72547">
        <ele>915.359</ele>
        <time>2018-03-24T17:12:41Z</time>
      </trkpt>
      <trkpt lat="43.90197" lon="7.72546">
        <ele>915.228</ele>
        <time>2018-03-24T17:12:44Z</time>
      </trkpt>
      <trkpt lat="43.90201" lon="7.72545">
        <ele>915.312</ele>
        <time>2018-03-24T17:12:46Z</time>
      </trkpt>
      <trkpt lat="43.90204" lon="7.72545">
        <ele>915.45</ele>
        <time>2018-03-24T17:12:48Z</time>
      </trkpt>
      <trkpt lat="43.90208" lon="7.72544">
        <ele>915.415</ele>
        <time>2018-03-24T17:12:50Z</time>
      </trkpt>
      <trkpt lat="43.90211" lon="7.72545">
        <ele>915.576</ele>
        <time>2018-03-24T17:12:52Z</time>
      </trkpt>
      <trkpt lat="43.90215" lon="7.72546">
        <ele>915.634</ele>
        <time>2018-03-24T17:12:54Z</time>
      </trkpt>
      <trkpt lat="43.90218" lon="7.72548">
        <ele>915.623</ele>
        <time>2018-03-24T17:12:57Z</time>
      </trkpt>
      <trkpt lat="43.9022" lon="7.7255">
        <ele>915.527</ele>
        <time>2018-03-24T17:12:59Z</time>
      </trkpt>
      <trkpt lat="43.90223" lon="7.72552">
        <ele>915.314</ele>
        <time>2018-03-24T17:13:02Z</time>
      </trkpt>
      <trkpt lat="43.90226" lon="7.72555">
        <ele>915.04</ele>
        <time>2018-03-24T17:13:05Z</time>
      </trkpt>
      <trkpt lat="43.90229" lon="7.72556">
        <ele>914.873</ele>
        <time>2018-03-24T17:13:07Z</time>
      </trkpt>
      <trkpt lat="43.90232" lon="7.72558">
        <ele>914.535</ele>
        <time>2018-03-24T17:13:09Z</time>
      </trkpt>
      <trkpt lat="43.90235" lon="7.72561">
        <ele>914.174</ele>
        <time>2018-03-24T17:13:11Z</time>
      </trkpt>
      <trkpt lat="43.90238" lon="7.72563">
        <ele>913.922</ele>
        <time>2018-03-24T17:13:14Z</time>
      </trkpt>
      <trkpt lat="43.90241" lon="7.72565">
        <ele>913.379</ele>
        <time>2018-03-24T17:13:17Z</time>
      </trkpt>
      <trkpt lat="43.90245" lon="7.72565">
        <ele>913.149</ele>
        <time>2018-03-24T17:13:19Z</time>
      </trkpt>
      <trkpt lat="43.90249" lon="7.72565">
        <ele>912.938</ele>
        <time>2018-03-24T17:13:22Z</time>
      </trkpt>
      <trkpt lat="43.90252" lon="7.72566">
        <ele>912.886</ele>
        <time>2018-03-24T17:13:24Z</time>
      </trkpt>
      <trkpt lat="43.90255" lon="7.72567">
        <ele>912.768</ele>
        <time>2018-03-24T17:13:26Z</time>
      </trkpt>
      <trkpt lat="43.90258" lon="7.72567">
        <ele>912.672</ele>
        <time>2018-03-24T17:13:29Z</time>
      </trkpt>
      <trkpt lat="43.90262" lon="7.72568">
        <ele>912.516</ele>
        <time>2018-03-24T17:13:32Z</time>
      </trkpt>
      <trkpt lat="43.90266" lon="7.72567">
        <ele>912.217</ele>
        <time>2018-03-24T17:13:35Z</time>
      </trkpt>
      <trkpt lat="43.90269" lon="7.72566">
        <ele>911.994</ele>
        <time>2018-03-24T17:13:37Z</time>
      </trkpt>
      <trkpt lat="43.90272" lon="7.72564">
        <ele>911.947</ele>
        <time>2018-03-24T17:13:39Z</time>
      </trkpt>
      <trkpt lat="43.90275" lon="7.72561">
        <ele>912.006</ele>
        <time>2018-03-24T17:13:41Z</time>
      </trkpt>
      <trkpt lat="43.90277" lon="7.72558">
        <ele>911.996</ele>
        <time>2018-03-24T17:13:43Z</time>
      </trkpt>
      <trkpt lat="43.90279" lon="7.72554">
        <ele>912.024</ele>
        <time>2018-03-24T17:13:45Z</time>
      </trkpt>
      <trkpt lat="43.90281" lon="7.72551">
        <ele>912.047</ele>
        <time>2018-03-24T17:13:47Z</time>
      </trkpt>
      <trkpt lat="43.90283" lon="7.72547">
        <ele>912.164</ele>
        <time>2018-03-24T17:13:50Z</time>
      </trkpt>
      <trkpt lat="43.90284" lon="7.72543">
        <ele>913.147</ele>
        <time>2018-03-24T17:14:03Z</time>
      </trkpt>
      <trkpt lat="43.90286" lon="7.7254">
        <ele>913.368</ele>
        <time>2018-03-24T17:14:05Z</time>
      </trkpt>
      <trkpt lat="43.90288" lon="7.72536">
        <ele>913.557</ele>
        <time>2018-03-24T17:14:07Z</time>
      </trkpt>
      <trkpt lat="43.90289" lon="7.72533">
        <ele>913.656</ele>
        <time>2018-03-24T17:14:09Z</time>
      </trkpt>
      <trkpt lat="43.90292" lon="7.72528">
        <ele>913.608</ele>
        <time>2018-03-24T17:14:12Z</time>
      </trkpt>
      <trkpt lat="43.90293" lon="7.72525">
        <ele>913.488</ele>
        <time>2018-03-24T17:14:14Z</time>
      </trkpt>
      <trkpt lat="43.90295" lon="7.72522">
        <ele>913.59</ele>
        <time>2018-03-24T17:14:16Z</time>
      </trkpt>
      <trkpt lat="43.90296" lon="7.72517">
        <ele>913.726</ele>
        <time>2018-03-24T17:14:19Z</time>
      </trkpt>
      <trkpt lat="43.90298" lon="7.72514">
        <ele>913.911</ele>
        <time>2018-03-24T17:14:21Z</time>
      </trkpt>
      <trkpt lat="43.90299" lon="7.7251">
        <ele>914.313</ele>
        <time>2018-03-24T17:14:24Z</time>
      </trkpt>
      <trkpt lat="43.90298" lon="7.72506">
        <ele>914.717</ele>
        <time>2018-03-24T17:15:20Z</time>
      </trkpt>
      <trkpt lat="43.90299" lon="7.72502">
        <ele>915.869</ele>
        <time>2018-03-24T17:15:55Z</time>
      </trkpt>
      <trkpt lat="43.90301" lon="7.72498">
        <ele>916.679</ele>
        <time>2018-03-24T17:18:45Z</time>
      </trkpt>
      <trkpt lat="43.903" lon="7.72493">
        <ele>914.539</ele>
        <time>2018-03-24T17:19:56Z</time>
      </trkpt>
      <trkpt lat="43.90301" lon="7.72488">
        <ele>915.111</ele>
        <time>2018-03-24T17:20:12Z</time>
      </trkpt>
      <trkpt lat="43.903" lon="7.72484">
        <ele>917.945</ele>
        <time>2018-03-24T17:21:27Z</time>
      </trkpt>
      <trkpt lat="43.90301" lon="7.7248">
        <ele>920.809</ele>
        <time>2018-03-24T17:22:55Z</time>
      </trkpt>
      <trkpt lat="43.90301" lon="7.72476">
        <ele>919.616</ele>
        <time>2018-03-24T17:23:12Z</time>
      </trkpt>
      <trkpt lat="43.903" lon="7.72471">
        <ele>921.407</ele>
        <time>2018-03-24T17:25:01Z</time>
      </trkpt>
      <trkpt lat="43.90301" lon="7.72467">
        <ele>921.239</ele>
        <time>2018-03-24T17:25:04Z</time>
      </trkpt>
      <trkpt lat="43.90298" lon="7.72464">
        <ele>920.772</ele>
        <time>2018-03-24T17:25:48Z</time>
      </trkpt>
      <trkpt lat="43.90299" lon="7.7246">
        <ele>919.164</ele>
        <time>2018-03-24T17:26:15Z</time>
      </trkpt>
      <trkpt lat="43.90299" lon="7.72455">
        <ele>917.814</ele>
        <time>2018-03-24T17:26:21Z</time>
      </trkpt>
      <trkpt lat="43.903" lon="7.72451">
        <ele>917.409</ele>
        <time>2018-03-24T17:26:23Z</time>
      </trkpt>
      <trkpt lat="43.90301" lon="7.72447">
        <ele>917.254</ele>
        <time>2018-03-24T17:26:25Z</time>
      </trkpt>
      <trkpt lat="43.90303" lon="7.72444">
        <ele>917.033</ele>
        <time>2018-03-24T17:26:27Z</time>
      </trkpt>
      <trkpt lat="43.90302" lon="7.72439">
        <ele>916.594</ele>
        <time>2018-03-24T17:26:29Z</time>
      </trkpt>
      <trkpt lat="43.90304" lon="7.72435">
        <ele>916.429</ele>
        <time>2018-03-24T17:26:31Z</time>
      </trkpt>
      <trkpt lat="43.90306" lon="7.72431">
        <ele>916.721</ele>
        <time>2018-03-24T17:26:35Z</time>
      </trkpt>
      <trkpt lat="43.90306" lon="7.72427">
        <ele>916.783</ele>
        <time>2018-03-24T17:26:37Z</time>
      </trkpt>
      <trkpt lat="43.90305" lon="7.72422">
        <ele>916.507</ele>
        <time>2018-03-24T17:26:41Z</time>
      </trkpt>
      <trkpt lat="43.90305" lon="7.72418">
        <ele>916.378</ele>
        <time>2018-03-24T17:26:43Z</time>
      </trkpt>
      <trkpt lat="43.90307" lon="7.72413">
        <ele>915.068</ele>
        <time>2018-03-24T17:27:01Z</time>
      </trkpt>
      <trkpt lat="43.90308" lon="7.7241">
        <ele>914.365</ele>
        <time>2018-03-24T17:27:03Z</time>
      </trkpt>
      <trkpt lat="43.9031" lon="7.72405">
        <ele>914.003</ele>
        <time>2018-03-24T17:27:05Z</time>
      </trkpt>
      <trkpt lat="43.90312" lon="7.72402">
        <ele>913.77</ele>
        <time>2018-03-24T17:27:07Z</time>
      </trkpt>
      <trkpt lat="43.90313" lon="7.72398">
        <ele>913.655</ele>
        <time>2018-03-24T17:27:09Z</time>
      </trkpt>
      <trkpt lat="43.90313" lon="7.72393">
        <ele>913.52</ele>
        <time>2018-03-24T17:27:12Z</time>
      </trkpt>
      <trkpt lat="43.90313" lon="7.72388">
        <ele>913.601</ele>
        <time>2018-03-24T17:27:15Z</time>
      </trkpt>
      <trkpt lat="43.90312" lon="7.72383">
        <ele>913.761</ele>
        <time>2018-03-24T17:27:17Z</time>
      </trkpt>
      <trkpt lat="43.90312" lon="7.72379">
        <ele>914.099</ele>
        <time>2018-03-24T17:27:19Z</time>
      </trkpt>
      <trkpt lat="43.90311" lon="7.72373">
        <ele>914.668</ele>
        <time>2018-03-24T17:27:22Z</time>
      </trkpt>
      <trkpt lat="43.90308" lon="7.72368">
        <ele>915.039</ele>
        <time>2018-03-24T17:27:24Z</time>
      </trkpt>
      <trkpt lat="43.90306" lon="7.72364">
        <ele>915.548</ele>
        <time>2018-03-24T17:27:27Z</time>
      </trkpt>
      <trkpt lat="43.90308" lon="7.7236">
        <ele>915.852</ele>
        <time>2018-03-24T17:27:30Z</time>
      </trkpt>
      <trkpt lat="43.90308" lon="7.72356">
        <ele>915.949</ele>
        <time>2018-03-24T17:27:32Z</time>
      </trkpt>
      <trkpt lat="43.90309" lon="7.72352">
        <ele>916.012</ele>
        <time>2018-03-24T17:27:34Z</time>
      </trkpt>
      <trkpt lat="43.9031" lon="7.72348">
        <ele>916.108</ele>
        <time>2018-03-24T17:27:37Z</time>
      </trkpt>
      <trkpt lat="43.9031" lon="7.72343">
        <ele>916.021</ele>
        <time>2018-03-24T17:27:40Z</time>
      </trkpt>
      <trkpt lat="43.90311" lon="7.72339">
        <ele>915.905</ele>
        <time>2018-03-24T17:27:43Z</time>
      </trkpt>
      <trkpt lat="43.90313" lon="7.72335">
        <ele>915.517</ele>
        <time>2018-03-24T17:27:45Z</time>
      </trkpt>
      <trkpt lat="43.90315" lon="7.72331">
        <ele>914.95</ele>
        <time>2018-03-24T17:27:47Z</time>
      </trkpt>
      <trkpt lat="43.90317" lon="7.72327">
        <ele>914.326</ele>
        <time>2018-03-24T17:27:49Z</time>
      </trkpt>
      <trkpt lat="43.90318" lon="7.72322">
        <ele>913.607</ele>
        <time>2018-03-24T17:27:52Z</time>
      </trkpt>
      <trkpt lat="43.90318" lon="7.72318">
        <ele>913.176</ele>
        <time>2018-03-24T17:27:54Z</time>
      </trkpt>
      <trkpt lat="43.90318" lon="7.72312">
        <ele>912.258</ele>
        <time>2018-03-24T17:28:02Z</time>
      </trkpt>
      <trkpt lat="43.90318" lon="7.72308">
        <ele>911.914</ele>
        <time>2018-03-24T17:28:04Z</time>
      </trkpt>
      <trkpt lat="43.90316" lon="7.72303">
        <ele>911.652</ele>
        <time>2018-03-24T17:28:07Z</time>
      </trkpt>
      <trkpt lat="43.90316" lon="7.72297">
        <ele>911.621</ele>
        <time>2018-03-24T17:28:09Z</time>
      </trkpt>
      <trkpt lat="43.90316" lon="7.72292">
        <ele>911.771</ele>
        <time>2018-03-24T17:28:11Z</time>
      </trkpt>
      <trkpt lat="43.90316" lon="7.72287">
        <ele>911.672</ele>
        <time>2018-03-24T17:28:13Z</time>
      </trkpt>
      <trkpt lat="43.90315" lon="7.72283">
        <ele>911.717</ele>
        <time>2018-03-24T17:28:15Z</time>
      </trkpt>
      <trkpt lat="43.90315" lon="7.72279">
        <ele>911.797</ele>
        <time>2018-03-24T17:28:18Z</time>
      </trkpt>
      <trkpt lat="43.90314" lon="7.72275">
        <ele>911.8</ele>
        <time>2018-03-24T17:28:20Z</time>
      </trkpt>
      <trkpt lat="43.90312" lon="7.72271">
        <ele>911.84</ele>
        <time>2018-03-24T17:28:22Z</time>
      </trkpt>
      <trkpt lat="43.90312" lon="7.72266">
        <ele>911.887</ele>
        <time>2018-03-24T17:28:24Z</time>
      </trkpt>
      <trkpt lat="43.90311" lon="7.72262">
        <ele>911.921</ele>
        <time>2018-03-24T17:28:26Z</time>
      </trkpt>
      <trkpt lat="43.9031" lon="7.72256">
        <ele>912.011</ele>
        <time>2018-03-24T17:28:29Z</time>
      </trkpt>
      <trkpt lat="43.90311" lon="7.72252">
        <ele>911.85</ele>
        <time>2018-03-24T17:28:31Z</time>
      </trkpt>
      <trkpt lat="43.90311" lon="7.72247">
        <ele>911.546</ele>
        <time>2018-03-24T17:28:34Z</time>
      </trkpt>
      <trkpt lat="43.90311" lon="7.72241">
        <ele>911.327</ele>
        <time>2018-03-24T17:28:37Z</time>
      </trkpt>
      <trkpt lat="43.90311" lon="7.72236">
        <ele>910.971</ele>
        <time>2018-03-24T17:28:40Z</time>
      </trkpt>
      <trkpt lat="43.90311" lon="7.72231">
        <ele>910.474</ele>
        <time>2018-03-24T17:28:43Z</time>
      </trkpt>
      <trkpt lat="43.90312" lon="7.72227">
        <ele>910.239</ele>
        <time>2018-03-24T17:28:45Z</time>
      </trkpt>
      <trkpt lat="43.90314" lon="7.72222">
        <ele>910.162</ele>
        <time>2018-03-24T17:28:47Z</time>
      </trkpt>
      <trkpt lat="43.90315" lon="7.72218">
        <ele>910.102</ele>
        <time>2018-03-24T17:28:49Z</time>
      </trkpt>
      <trkpt lat="43.90316" lon="7.72214">
        <ele>909.936</ele>
        <time>2018-03-24T17:28:52Z</time>
      </trkpt>
      <trkpt lat="43.90317" lon="7.72209">
        <ele>909.634</ele>
        <time>2018-03-24T17:28:55Z</time>
      </trkpt>
      <trkpt lat="43.90316" lon="7.72204">
        <ele>909.07</ele>
        <time>2018-03-24T17:28:58Z</time>
      </trkpt>
      <trkpt lat="43.90317" lon="7.72198">
        <ele>908.501</ele>
        <time>2018-03-24T17:29:01Z</time>
      </trkpt>
      <trkpt lat="43.90318" lon="7.72194">
        <ele>908.335</ele>
        <time>2018-03-24T17:29:03Z</time>
      </trkpt>
      <trkpt lat="43.90319" lon="7.7219">
        <ele>908.225</ele>
        <time>2018-03-24T17:29:06Z</time>
      </trkpt>
      <trkpt lat="43.90321" lon="7.72185">
        <ele>907.986</ele>
        <time>2018-03-24T17:29:09Z</time>
      </trkpt>
      <trkpt lat="43.90322" lon="7.72181">
        <ele>907.948</ele>
        <time>2018-03-24T17:29:11Z</time>
      </trkpt>
      <trkpt lat="43.90322" lon="7.72176">
        <ele>907.969</ele>
        <time>2018-03-24T17:29:13Z</time>
      </trkpt>
      <trkpt lat="43.9032" lon="7.72171">
        <ele>907.956</ele>
        <time>2018-03-24T17:29:15Z</time>
      </trkpt>
      <trkpt lat="43.90321" lon="7.72167">
        <ele>908.054</ele>
        <time>2018-03-24T17:29:19Z</time>
      </trkpt>
      <trkpt lat="43.90323" lon="7.72163">
        <ele>908.067</ele>
        <time>2018-03-24T17:29:21Z</time>
      </trkpt>
      <trkpt lat="43.90325" lon="7.72159">
        <ele>908.211</ele>
        <time>2018-03-24T17:29:23Z</time>
      </trkpt>
      <trkpt lat="43.90326" lon="7.72155">
        <ele>908.472</ele>
        <time>2018-03-24T17:29:25Z</time>
      </trkpt>
      <trkpt lat="43.90328" lon="7.72151">
        <ele>908.587</ele>
        <time>2018-03-24T17:29:27Z</time>
      </trkpt>
      <trkpt lat="43.9033" lon="7.72148">
        <ele>908.745</ele>
        <time>2018-03-24T17:29:29Z</time>
      </trkpt>
      <trkpt lat="43.9033" lon="7.72144">
        <ele>908.909</ele>
        <time>2018-03-24T17:29:31Z</time>
      </trkpt>
      <trkpt lat="43.90332" lon="7.72141">
        <ele>908.889</ele>
        <time>2018-03-24T17:29:33Z</time>
      </trkpt>
      <trkpt lat="43.90333" lon="7.72136">
        <ele>908.464</ele>
        <time>2018-03-24T17:29:36Z</time>
      </trkpt>
      <trkpt lat="43.90334" lon="7.72133">
        <ele>908.186</ele>
        <time>2018-03-24T17:29:38Z</time>
      </trkpt>
      <trkpt lat="43.90335" lon="7.72129">
        <ele>907.872</ele>
        <time>2018-03-24T17:29:40Z</time>
      </trkpt>
      <trkpt lat="43.90337" lon="7.72125">
        <ele>907.691</ele>
        <time>2018-03-24T17:29:43Z</time>
      </trkpt>
      <trkpt lat="43.90337" lon="7.72121">
        <ele>907.788</ele>
        <time>2018-03-24T17:29:45Z</time>
      </trkpt>
      <trkpt lat="43.90338" lon="7.72116">
        <ele>907.917</ele>
        <time>2018-03-24T17:29:48Z</time>
      </trkpt>
      <trkpt lat="43.90339" lon="7.7211">
        <ele>908.026</ele>
        <time>2018-03-24T17:29:50Z</time>
      </trkpt>
      <trkpt lat="43.90339" lon="7.72107">
        <ele>908.109</ele>
        <time>2018-03-24T17:29:52Z</time>
      </trkpt>
      <trkpt lat="43.90338" lon="7.72103">
        <ele>908.258</ele>
        <time>2018-03-24T17:29:54Z</time>
      </trkpt>
      <trkpt lat="43.90338" lon="7.72098">
        <ele>908.323</ele>
        <time>2018-03-24T17:29:56Z</time>
      </trkpt>
      <trkpt lat="43.90336" lon="7.72094">
        <ele>908.381</ele>
        <time>2018-03-24T17:29:58Z</time>
      </trkpt>
      <trkpt lat="43.90336" lon="7.7209">
        <ele>908.32</ele>
        <time>2018-03-24T17:30:01Z</time>
      </trkpt>
      <trkpt lat="43.90337" lon="7.72085">
        <ele>908.115</ele>
        <time>2018-03-24T17:30:03Z</time>
      </trkpt>
      <trkpt lat="43.90339" lon="7.7208">
        <ele>907.643</ele>
        <time>2018-03-24T17:30:06Z</time>
      </trkpt>
      <trkpt lat="43.90341" lon="7.72075">
        <ele>907.323</ele>
        <time>2018-03-24T17:30:08Z</time>
      </trkpt>
      <trkpt lat="43.90343" lon="7.72071">
        <ele>906.945</ele>
        <time>2018-03-24T17:30:10Z</time>
      </trkpt>
      <trkpt lat="43.90344" lon="7.72067">
        <ele>906.367</ele>
        <time>2018-03-24T17:30:12Z</time>
      </trkpt>
      <trkpt lat="43.90346" lon="7.72063">
        <ele>905.584</ele>
        <time>2018-03-24T17:30:15Z</time>
      </trkpt>
      <trkpt lat="43.90347" lon="7.72058">
        <ele>905.136</ele>
        <time>2018-03-24T17:30:17Z</time>
      </trkpt>
      <trkpt lat="43.90348" lon="7.72054">
        <ele>904.317</ele>
        <time>2018-03-24T17:30:20Z</time>
      </trkpt>
      <trkpt lat="43.9035" lon="7.72048">
        <ele>903.399</ele>
        <time>2018-03-24T17:30:23Z</time>
      </trkpt>
      <trkpt lat="43.90351" lon="7.72042">
        <ele>902.967</ele>
        <time>2018-03-24T17:30:25Z</time>
      </trkpt>
      <trkpt lat="43.90353" lon="7.72036">
        <ele>902.738</ele>
        <time>2018-03-24T17:30:27Z</time>
      </trkpt>
      <trkpt lat="43.90354" lon="7.7203">
        <ele>902.659</ele>
        <time>2018-03-24T17:30:29Z</time>
      </trkpt>
      <trkpt lat="43.90355" lon="7.72027">
        <ele>902.835</ele>
        <time>2018-03-24T17:30:31Z</time>
      </trkpt>
      <trkpt lat="43.90357" lon="7.72023">
        <ele>903.014</ele>
        <time>2018-03-24T17:30:33Z</time>
      </trkpt>
      <trkpt lat="43.90358" lon="7.72017">
        <ele>903.34</ele>
        <time>2018-03-24T17:30:37Z</time>
      </trkpt>
      <trkpt lat="43.9036" lon="7.72013">
        <ele>903.427</ele>
        <time>2018-03-24T17:30:39Z</time>
      </trkpt>
      <trkpt lat="43.90361" lon="7.72009">
        <ele>903.721</ele>
        <time>2018-03-24T17:30:42Z</time>
      </trkpt>
      <trkpt lat="43.90363" lon="7.72006">
        <ele>903.796</ele>
        <time>2018-03-24T17:30:44Z</time>
      </trkpt>
      <trkpt lat="43.90366" lon="7.72004">
        <ele>903.678</ele>
        <time>2018-03-24T17:30:46Z</time>
      </trkpt>
      <trkpt lat="43.90365" lon="7.71999">
        <ele>903.716</ele>
        <time>2018-03-24T17:30:54Z</time>
      </trkpt>
      <trkpt lat="43.90365" lon="7.71996">
        <ele>904.001</ele>
        <time>2018-03-24T17:30:57Z</time>
      </trkpt>
      <trkpt lat="43.90365" lon="7.71992">
        <ele>904.027</ele>
        <time>2018-03-24T17:30:59Z</time>
      </trkpt>
      <trkpt lat="43.90365" lon="7.71986">
        <ele>904.144</ele>
        <time>2018-03-24T17:31:01Z</time>
      </trkpt>
      <trkpt lat="43.9036" lon="7.71984">
        <ele>904.202</ele>
        <time>2018-03-24T17:31:07Z</time>
      </trkpt>
      <trkpt lat="43.90361" lon="7.7198">
        <ele>904.942</ele>
        <time>2018-03-24T17:31:29Z</time>
      </trkpt>
    </trkseg>
  </trk>
</gpx>